<?xml version="1.0" encoding="UTF-8"?>
<gpx creator="WikiLoc - http://www.wikiloc.com" version="1.1" xmlns="http://www.topografix.com/GPX/1/1">
    <trk>
        <name>TERRASSA-GALLIFA-SAVALL-TERRASSA</name>
        <cmt>RUTAQUE SALE DE TERRASSA, CASTELLAR,CRUCE DEL PUIG DE LA CREU, TRIALERA QEU NOS ENSEÑO EL FENOMENO DEL DAVID HASTA SANT SABASTIA DE  MONTMAJOR, CAMINO TRADICIONAL A GALLIFA, VUELTA TRADICIONAL HASTA LA PISTA Y SENDERO NUEVO SACADO DE LA ENDURADA DE LA CLAU PARA LLEGAR A SAVALL, CAMINO HASTA CAN CATAFAL PARA BAJAR POR LA N UEVA VARIANTE SENDEROTRILERA QUE NOS LLEVA A CASTELLAR PARA VOLVER A TERRASA POR LA RIERA DE CASTELLAR, CAPELLANS Y CASA.</cmt>
        <desc>RUTAQUE SALE DE TERRASSA, CASTELLAR,CRUCE DEL PUIG DE LA CREU, TRIALERA QEU NOS ENSEÑO EL FENOMENO DEL DAVID HASTA SANT SABASTIA DE  MONTMAJOR, CAMINO TRADICIONAL A GALLIFA, VUELTA TRADICIONAL HASTA LA PISTA Y SENDERO NUEVO SACADO DE LA ENDURADA DE LA CLAU PARA LLEGAR A SAVALL, CAMINO HASTA CAN CATAFAL PARA BAJAR POR LA N UEVA VARIANTE SENDEROTRILERA QUE NOS LLEVA A CASTELLAR PARA VOLVER A TERRASA POR LA RIERA DE CASTELLAR, CAPELLANS Y CASA.</desc>
        <trkseg>
            <trkpt lat="41.580681" lon="2.027747">
                <ele>355.800000</ele>
                <time>1989-12-31T00:59:59.000+01:00</time>
            </trkpt>
            <trkpt lat="41.581571" lon="2.027807">
                <ele>355.800000</ele>
                <time>1989-12-31T00:59:59.000+01:00</time>
            </trkpt>
            <trkpt lat="41.583291" lon="2.027400">
                <ele>362.600000</ele>
                <time>1989-12-31T00:59:59.000+01:00</time>
            </trkpt>
            <trkpt lat="41.583458" lon="2.027731">
                <ele>362.600000</ele>
                <time>1989-12-31T00:59:59.000+01:00</time>
            </trkpt>
            <trkpt lat="41.584015" lon="2.031691">
                <ele>357.300000</ele>
                <time>1989-12-31T00:59:59.000+01:00</time>
            </trkpt>
            <trkpt lat="41.583104" lon="2.033711">
                <ele>353.400000</ele>
                <time>1989-12-31T00:59:59.000+01:00</time>
            </trkpt>
            <trkpt lat="41.582721" lon="2.035902">
                <ele>358.200000</ele>
                <time>1989-12-31T00:59:59.000+01:00</time>
            </trkpt>
            <trkpt lat="41.583150" lon="2.036155">
                <ele>356.800000</ele>
                <time>1989-12-31T00:59:59.000+01:00</time>
            </trkpt>
            <trkpt lat="41.584307" lon="2.036217">
                <ele>349.100000</ele>
                <time>1989-12-31T00:59:59.000+01:00</time>
            </trkpt>
            <trkpt lat="41.585184" lon="2.038847">
                <ele>346.200000</ele>
                <time>1989-12-31T00:59:59.000+01:00</time>
            </trkpt>
            <trkpt lat="41.583837" lon="2.039060">
                <ele>351.000000</ele>
                <time>1989-12-31T00:59:59.000+01:00</time>
            </trkpt>
            <trkpt lat="41.584385" lon="2.039586">
                <ele>356.300000</ele>
                <time>1989-12-31T00:59:59.000+01:00</time>
            </trkpt>
            <trkpt lat="41.585524" lon="2.039748">
                <ele>360.200000</ele>
                <time>1989-12-31T00:59:59.000+01:00</time>
            </trkpt>
            <trkpt lat="41.586051" lon="2.040435">
                <ele>360.200000</ele>
                <time>1989-12-31T00:59:59.000+01:00</time>
            </trkpt>
            <trkpt lat="41.585637" lon="2.041142">
                <ele>353.400000</ele>
                <time>1989-12-31T00:59:59.000+01:00</time>
            </trkpt>
            <trkpt lat="41.585560" lon="2.041877">
                <ele>343.800000</ele>
                <time>1989-12-31T00:59:59.000+01:00</time>
            </trkpt>
            <trkpt lat="41.584813" lon="2.042707">
                <ele>340.900000</ele>
                <time>1989-12-31T00:59:59.000+01:00</time>
            </trkpt>
            <trkpt lat="41.584400" lon="2.042789">
                <ele>340.900000</ele>
                <time>1989-12-31T00:59:59.000+01:00</time>
            </trkpt>
            <trkpt lat="41.584167" lon="2.043237">
                <ele>342.800000</ele>
                <time>1989-12-31T00:59:59.000+01:00</time>
            </trkpt>
            <trkpt lat="41.584498" lon="2.044454">
                <ele>346.200000</ele>
                <time>1989-12-31T00:59:59.000+01:00</time>
            </trkpt>
            <trkpt lat="41.584196" lon="2.044998">
                <ele>345.300000</ele>
                <time>1989-12-31T00:59:59.000+01:00</time>
            </trkpt>
            <trkpt lat="41.585371" lon="2.048847">
                <ele>353.900000</ele>
                <time>1989-12-31T00:59:59.000+01:00</time>
            </trkpt>
            <trkpt lat="41.585734" lon="2.049336">
                <ele>351.000000</ele>
                <time>1989-12-31T00:59:59.000+01:00</time>
            </trkpt>
            <trkpt lat="41.586560" lon="2.049603">
                <ele>345.300000</ele>
                <time>1989-12-31T00:59:59.000+01:00</time>
            </trkpt>
            <trkpt lat="41.586800" lon="2.050325">
                <ele>348.100000</ele>
                <time>1989-12-31T00:59:59.000+01:00</time>
            </trkpt>
            <trkpt lat="41.585649" lon="2.052432">
                <ele>338.000000</ele>
                <time>1989-12-31T00:59:59.000+01:00</time>
            </trkpt>
            <trkpt lat="41.584985" lon="2.055145">
                <ele>332.800000</ele>
                <time>1989-12-31T00:59:59.000+01:00</time>
            </trkpt>
            <trkpt lat="41.584986" lon="2.056428">
                <ele>333.200000</ele>
                <time>1989-12-31T00:59:59.000+01:00</time>
            </trkpt>
            <trkpt lat="41.585662" lon="2.057608">
                <ele>328.900000</ele>
                <time>1989-12-31T00:59:59.000+01:00</time>
            </trkpt>
            <trkpt lat="41.585349" lon="2.058727">
                <ele>327.500000</ele>
                <time>1989-12-31T00:59:59.000+01:00</time>
            </trkpt>
            <trkpt lat="41.585452" lon="2.059248">
                <ele>324.600000</ele>
                <time>1989-12-31T00:59:59.000+01:00</time>
            </trkpt>
            <trkpt lat="41.586271" lon="2.059832">
                <ele>324.600000</ele>
                <time>1989-12-31T00:59:59.000+01:00</time>
            </trkpt>
            <trkpt lat="41.585409" lon="2.062461">
                <ele>317.900000</ele>
                <time>1989-12-31T00:59:59.000+01:00</time>
            </trkpt>
            <trkpt lat="41.584732" lon="2.062435">
                <ele>315.900000</ele>
                <time>1989-12-31T00:59:59.000+01:00</time>
            </trkpt>
            <trkpt lat="41.584493" lon="2.062764">
                <ele>315.000000</ele>
                <time>1989-12-31T00:59:59.000+01:00</time>
            </trkpt>
            <trkpt lat="41.584292" lon="2.064468">
                <ele>310.600000</ele>
                <time>1989-12-31T00:59:59.000+01:00</time>
            </trkpt>
            <trkpt lat="41.583856" lon="2.065677">
                <ele>307.800000</ele>
                <time>1989-12-31T00:59:59.000+01:00</time>
            </trkpt>
            <trkpt lat="41.584148" lon="2.067122">
                <ele>303.400000</ele>
                <time>1989-12-31T00:59:59.000+01:00</time>
            </trkpt>
            <trkpt lat="41.583854" lon="2.067668">
                <ele>301.000000</ele>
                <time>1989-12-31T00:59:59.000+01:00</time>
            </trkpt>
            <trkpt lat="41.584559" lon="2.070903">
                <ele>285.200000</ele>
                <time>1989-12-31T00:59:59.000+01:00</time>
            </trkpt>
            <trkpt lat="41.585097" lon="2.069481">
                <ele>266.900000</ele>
                <time>1989-12-31T00:59:59.000+01:00</time>
            </trkpt>
            <trkpt lat="41.585372" lon="2.069373">
                <ele>263.500000</ele>
                <time>1989-12-31T00:59:59.000+01:00</time>
            </trkpt>
            <trkpt lat="41.586553" lon="2.069793">
                <ele>244.800000</ele>
                <time>1989-12-31T00:59:59.000+01:00</time>
            </trkpt>
            <trkpt lat="41.586597" lon="2.068653">
                <ele>228.000000</ele>
                <time>1989-12-31T00:59:59.000+01:00</time>
            </trkpt>
            <trkpt lat="41.587137" lon="2.068748">
                <ele>223.200000</ele>
                <time>1989-12-31T00:59:59.000+01:00</time>
            </trkpt>
            <trkpt lat="41.586995" lon="2.070175">
                <ele>219.300000</ele>
                <time>1989-12-31T00:59:59.000+01:00</time>
            </trkpt>
            <trkpt lat="41.585673" lon="2.071949">
                <ele>213.100000</ele>
                <time>1989-12-31T00:59:59.000+01:00</time>
            </trkpt>
            <trkpt lat="41.585300" lon="2.072970">
                <ele>210.200000</ele>
                <time>1989-12-31T00:59:59.000+01:00</time>
            </trkpt>
            <trkpt lat="41.585516" lon="2.073944">
                <ele>206.800000</ele>
                <time>1989-12-31T00:59:59.000+01:00</time>
            </trkpt>
            <trkpt lat="41.585021" lon="2.076159">
                <ele>202.000000</ele>
                <time>1989-12-31T00:59:59.000+01:00</time>
            </trkpt>
            <trkpt lat="41.585000" lon="2.077892">
                <ele>200.600000</ele>
                <time>1989-12-31T00:59:59.000+01:00</time>
            </trkpt>
            <trkpt lat="41.586116" lon="2.079422">
                <ele>201.100000</ele>
                <time>1989-12-31T00:59:59.000+01:00</time>
            </trkpt>
            <trkpt lat="41.586883" lon="2.079869">
                <ele>201.500000</ele>
                <time>1989-12-31T00:59:59.000+01:00</time>
            </trkpt>
            <trkpt lat="41.587512" lon="2.079924">
                <ele>203.900000</ele>
                <time>1989-12-31T00:59:59.000+01:00</time>
            </trkpt>
            <trkpt lat="41.586975" lon="2.080739">
                <ele>201.500000</ele>
                <time>1989-12-31T00:59:59.000+01:00</time>
            </trkpt>
            <trkpt lat="41.588230" lon="2.082053">
                <ele>203.900000</ele>
                <time>1989-12-31T00:59:59.000+01:00</time>
            </trkpt>
            <trkpt lat="41.590550" lon="2.082146">
                <ele>208.300000</ele>
                <time>1989-12-31T00:59:59.000+01:00</time>
            </trkpt>
            <trkpt lat="41.591615" lon="2.082622">
                <ele>208.300000</ele>
                <time>1989-12-31T00:59:59.000+01:00</time>
            </trkpt>
            <trkpt lat="41.594019" lon="2.082513">
                <ele>210.700000</ele>
                <time>1989-12-31T00:59:59.000+01:00</time>
            </trkpt>
            <trkpt lat="41.594584" lon="2.082247">
                <ele>208.700000</ele>
                <time>1989-12-31T00:59:59.000+01:00</time>
            </trkpt>
            <trkpt lat="41.594519" lon="2.081742">
                <ele>205.400000</ele>
                <time>1989-12-31T00:59:59.000+01:00</time>
            </trkpt>
            <trkpt lat="41.595110" lon="2.080647">
                <ele>210.700000</ele>
                <time>1989-12-31T00:59:59.000+01:00</time>
            </trkpt>
            <trkpt lat="41.596466" lon="2.079807">
                <ele>214.500000</ele>
                <time>1989-12-31T00:59:59.000+01:00</time>
            </trkpt>
            <trkpt lat="41.597729" lon="2.079535">
                <ele>220.300000</ele>
                <time>1989-12-31T00:59:59.000+01:00</time>
            </trkpt>
            <trkpt lat="41.598622" lon="2.079917">
                <ele>228.500000</ele>
                <time>1989-12-31T00:59:59.000+01:00</time>
            </trkpt>
            <trkpt lat="41.598570" lon="2.080489">
                <ele>230.400000</ele>
                <time>1989-12-31T00:59:59.000+01:00</time>
            </trkpt>
            <trkpt lat="41.600325" lon="2.080524">
                <ele>250.100000</ele>
                <time>1989-12-31T00:59:59.000+01:00</time>
            </trkpt>
            <trkpt lat="41.602109" lon="2.081499">
                <ele>266.400000</ele>
                <time>1989-12-31T00:59:59.000+01:00</time>
            </trkpt>
            <trkpt lat="41.602908" lon="2.081467">
                <ele>274.100000</ele>
                <time>1989-12-31T00:59:59.000+01:00</time>
            </trkpt>
            <trkpt lat="41.603142" lon="2.081999">
                <ele>278.000000</ele>
                <time>1989-12-31T00:59:59.000+01:00</time>
            </trkpt>
            <trkpt lat="41.602998" lon="2.082820">
                <ele>282.300000</ele>
                <time>1989-12-31T00:59:59.000+01:00</time>
            </trkpt>
            <trkpt lat="41.603434" lon="2.083244">
                <ele>285.600000</ele>
                <time>1989-12-31T00:59:59.000+01:00</time>
            </trkpt>
            <trkpt lat="41.603579" lon="2.083936">
                <ele>288.500000</ele>
                <time>1989-12-31T00:59:59.000+01:00</time>
            </trkpt>
            <trkpt lat="41.606324" lon="2.083698">
                <ele>293.300000</ele>
                <time>1989-12-31T00:59:59.000+01:00</time>
            </trkpt>
            <trkpt lat="41.608996" lon="2.082787">
                <ele>298.600000</ele>
                <time>1989-12-31T00:59:59.000+01:00</time>
            </trkpt>
            <trkpt lat="41.610478" lon="2.083793">
                <ele>301.000000</ele>
                <time>1989-12-31T00:59:59.000+01:00</time>
            </trkpt>
            <trkpt lat="41.614483" lon="2.085499">
                <ele>315.400000</ele>
                <time>1989-12-31T00:59:59.000+01:00</time>
            </trkpt>
            <trkpt lat="41.615403" lon="2.086125">
                <ele>322.700000</ele>
                <time>1989-12-31T00:59:59.000+01:00</time>
            </trkpt>
            <trkpt lat="41.615876" lon="2.085709">
                <ele>324.600000</ele>
                <time>1989-12-31T00:59:59.000+01:00</time>
            </trkpt>
            <trkpt lat="41.616853" lon="2.086685">
                <ele>329.900000</ele>
                <time>1989-12-31T00:59:59.000+01:00</time>
            </trkpt>
            <trkpt lat="41.618187" lon="2.087034">
                <ele>334.700000</ele>
                <time>1989-12-31T00:59:59.000+01:00</time>
            </trkpt>
            <trkpt lat="41.618415" lon="2.087360">
                <ele>337.600000</ele>
                <time>1989-12-31T00:59:59.000+01:00</time>
            </trkpt>
            <trkpt lat="41.619390" lon="2.087535">
                <ele>341.900000</ele>
                <time>1989-12-31T00:59:59.000+01:00</time>
            </trkpt>
            <trkpt lat="41.620319" lon="2.088093">
                <ele>347.700000</ele>
                <time>1989-12-31T00:59:59.000+01:00</time>
            </trkpt>
            <trkpt lat="41.620337" lon="2.089380">
                <ele>356.800000</ele>
                <time>1989-12-31T00:59:59.000+01:00</time>
            </trkpt>
            <trkpt lat="41.620684" lon="2.089918">
                <ele>353.400000</ele>
                <time>1989-12-31T00:59:59.000+01:00</time>
            </trkpt>
            <trkpt lat="41.621069" lon="2.090035">
                <ele>353.900000</ele>
                <time>1989-12-31T00:59:59.000+01:00</time>
            </trkpt>
            <trkpt lat="41.622029" lon="2.088794">
                <ele>352.900000</ele>
                <time>1989-12-31T00:59:59.000+01:00</time>
            </trkpt>
            <trkpt lat="41.623040" lon="2.088187">
                <ele>353.900000</ele>
                <time>1989-12-31T00:59:59.000+01:00</time>
            </trkpt>
            <trkpt lat="41.624325" lon="2.088528">
                <ele>358.700000</ele>
                <time>1989-12-31T00:59:59.000+01:00</time>
            </trkpt>
            <trkpt lat="41.626329" lon="2.089659">
                <ele>366.400000</ele>
                <time>1989-12-31T00:59:59.000+01:00</time>
            </trkpt>
            <trkpt lat="41.626982" lon="2.089609">
                <ele>370.700000</ele>
                <time>1989-12-31T00:59:59.000+01:00</time>
            </trkpt>
            <trkpt lat="41.628344" lon="2.090044">
                <ele>381.300000</ele>
                <time>1989-12-31T00:59:59.000+01:00</time>
            </trkpt>
            <trkpt lat="41.628993" lon="2.089730">
                <ele>398.600000</ele>
                <time>1989-12-31T00:59:59.000+01:00</time>
            </trkpt>
            <trkpt lat="41.629272" lon="2.089603">
                <ele>401.000000</ele>
                <time>1989-12-31T00:59:59.000+01:00</time>
            </trkpt>
            <trkpt lat="41.629696" lon="2.090022">
                <ele>407.300000</ele>
                <time>1989-12-31T00:59:59.000+01:00</time>
            </trkpt>
            <trkpt lat="41.630014" lon="2.090000">
                <ele>410.100000</ele>
                <time>1989-12-31T00:59:59.000+01:00</time>
            </trkpt>
            <trkpt lat="41.631553" lon="2.089359">
                <ele>423.100000</ele>
                <time>1989-12-31T00:59:59.000+01:00</time>
            </trkpt>
            <trkpt lat="41.631959" lon="2.089863">
                <ele>427.000000</ele>
                <time>1989-12-31T00:59:59.000+01:00</time>
            </trkpt>
            <trkpt lat="41.632343" lon="2.089779">
                <ele>430.800000</ele>
                <time>1989-12-31T00:59:59.000+01:00</time>
            </trkpt>
            <trkpt lat="41.633182" lon="2.089978">
                <ele>439.000000</ele>
                <time>1989-12-31T00:59:59.000+01:00</time>
            </trkpt>
            <trkpt lat="41.634294" lon="2.090747">
                <ele>448.100000</ele>
                <time>1989-12-31T00:59:59.000+01:00</time>
            </trkpt>
            <trkpt lat="41.634438" lon="2.090603">
                <ele>450.000000</ele>
                <time>1989-12-31T00:59:59.000+01:00</time>
            </trkpt>
            <trkpt lat="41.636105" lon="2.090606">
                <ele>464.900000</ele>
                <time>1989-12-31T00:59:59.000+01:00</time>
            </trkpt>
            <trkpt lat="41.636759" lon="2.089890">
                <ele>473.100000</ele>
                <time>1989-12-31T00:59:59.000+01:00</time>
            </trkpt>
            <trkpt lat="41.637157" lon="2.089992">
                <ele>476.500000</ele>
                <time>1989-12-31T00:59:59.000+01:00</time>
            </trkpt>
            <trkpt lat="41.637551" lon="2.090760">
                <ele>480.300000</ele>
                <time>1989-12-31T00:59:59.000+01:00</time>
            </trkpt>
            <trkpt lat="41.638165" lon="2.090828">
                <ele>487.000000</ele>
                <time>1989-12-31T00:59:59.000+01:00</time>
            </trkpt>
            <trkpt lat="41.638796" lon="2.090684">
                <ele>493.800000</ele>
                <time>1989-12-31T00:59:59.000+01:00</time>
            </trkpt>
            <trkpt lat="41.639885" lon="2.089892">
                <ele>501.500000</ele>
                <time>1989-12-31T00:59:59.000+01:00</time>
            </trkpt>
            <trkpt lat="41.641415" lon="2.090145">
                <ele>511.600000</ele>
                <time>1989-12-31T00:59:59.000+01:00</time>
            </trkpt>
            <trkpt lat="41.641891" lon="2.090830">
                <ele>517.300000</ele>
                <time>1989-12-31T00:59:59.000+01:00</time>
            </trkpt>
            <trkpt lat="41.642240" lon="2.090549">
                <ele>520.200000</ele>
                <time>1989-12-31T00:59:59.000+01:00</time>
            </trkpt>
            <trkpt lat="41.642477" lon="2.091139">
                <ele>524.100000</ele>
                <time>1989-12-31T00:59:59.000+01:00</time>
            </trkpt>
            <trkpt lat="41.642819" lon="2.091315">
                <ele>527.900000</ele>
                <time>1989-12-31T00:59:59.000+01:00</time>
            </trkpt>
            <trkpt lat="41.643168" lon="2.092313">
                <ele>537.000000</ele>
                <time>1989-12-31T00:59:59.000+01:00</time>
            </trkpt>
            <trkpt lat="41.643152" lon="2.092840">
                <ele>541.400000</ele>
                <time>1989-12-31T00:59:59.000+01:00</time>
            </trkpt>
            <trkpt lat="41.643379" lon="2.093112">
                <ele>545.200000</ele>
                <time>1989-12-31T00:59:59.000+01:00</time>
            </trkpt>
            <trkpt lat="41.643376" lon="2.093694">
                <ele>551.900000</ele>
                <time>1989-12-31T00:59:59.000+01:00</time>
            </trkpt>
            <trkpt lat="41.643989" lon="2.094030">
                <ele>558.200000</ele>
                <time>1989-12-31T00:59:59.000+01:00</time>
            </trkpt>
            <trkpt lat="41.644093" lon="2.094873">
                <ele>566.800000</ele>
                <time>1989-12-31T00:59:59.000+01:00</time>
            </trkpt>
            <trkpt lat="41.644332" lon="2.095443">
                <ele>571.600000</ele>
                <time>1989-12-31T00:59:59.000+01:00</time>
            </trkpt>
            <trkpt lat="41.645022" lon="2.094596">
                <ele>579.800000</ele>
                <time>1989-12-31T00:59:59.000+01:00</time>
            </trkpt>
            <trkpt lat="41.645683" lon="2.096193">
                <ele>573.600000</ele>
                <time>1989-12-31T00:59:59.000+01:00</time>
            </trkpt>
            <trkpt lat="41.646673" lon="2.096649">
                <ele>565.400000</ele>
                <time>1989-12-31T00:59:59.000+01:00</time>
            </trkpt>
            <trkpt lat="41.647393" lon="2.096124">
                <ele>562.000000</ele>
                <time>1989-12-31T00:59:59.000+01:00</time>
            </trkpt>
            <trkpt lat="41.647422" lon="2.096772">
                <ele>560.600000</ele>
                <time>1989-12-31T00:59:59.000+01:00</time>
            </trkpt>
            <trkpt lat="41.648397" lon="2.097298">
                <ele>556.300000</ele>
                <time>1989-12-31T00:59:59.000+01:00</time>
            </trkpt>
            <trkpt lat="41.648843" lon="2.098236">
                <ele>552.900000</ele>
                <time>1989-12-31T00:59:59.000+01:00</time>
            </trkpt>
            <trkpt lat="41.649039" lon="2.098265">
                <ele>551.500000</ele>
                <time>1989-12-31T00:59:59.000+01:00</time>
            </trkpt>
            <trkpt lat="41.649763" lon="2.097502">
                <ele>547.100000</ele>
                <time>1989-12-31T00:59:59.000+01:00</time>
            </trkpt>
            <trkpt lat="41.650230" lon="2.097566">
                <ele>546.600000</ele>
                <time>1989-12-31T00:59:59.000+01:00</time>
            </trkpt>
            <trkpt lat="41.650570" lon="2.097249">
                <ele>546.200000</ele>
                <time>1989-12-31T00:59:59.000+01:00</time>
            </trkpt>
            <trkpt lat="41.651813" lon="2.097084">
                <ele>543.300000</ele>
                <time>1989-12-31T00:59:59.000+01:00</time>
            </trkpt>
            <trkpt lat="41.651237" lon="2.097981">
                <ele>552.900000</ele>
                <time>1989-12-31T00:59:59.000+01:00</time>
            </trkpt>
            <trkpt lat="41.651640" lon="2.097705">
                <ele>556.300000</ele>
                <time>1989-12-31T00:59:59.000+01:00</time>
            </trkpt>
            <trkpt lat="41.652134" lon="2.097777">
                <ele>559.600000</ele>
                <time>1989-12-31T00:59:59.000+01:00</time>
            </trkpt>
            <trkpt lat="41.652358" lon="2.098070">
                <ele>562.000000</ele>
                <time>1989-12-31T00:59:59.000+01:00</time>
            </trkpt>
            <trkpt lat="41.652790" lon="2.097890">
                <ele>568.300000</ele>
                <time>1989-12-31T00:59:59.000+01:00</time>
            </trkpt>
            <trkpt lat="41.653381" lon="2.099139">
                <ele>577.900000</ele>
                <time>1989-12-31T00:59:59.000+01:00</time>
            </trkpt>
            <trkpt lat="41.653290" lon="2.099205">
                <ele>579.800000</ele>
                <time>1989-12-31T00:59:59.000+01:00</time>
            </trkpt>
            <trkpt lat="41.652837" lon="2.098686">
                <ele>582.700000</ele>
                <time>1989-12-31T00:59:59.000+01:00</time>
            </trkpt>
            <trkpt lat="41.653393" lon="2.099967">
                <ele>594.700000</ele>
                <time>1989-12-31T00:59:59.000+01:00</time>
            </trkpt>
            <trkpt lat="41.653289" lon="2.100474">
                <ele>600.000000</ele>
                <time>1989-12-31T00:59:59.000+01:00</time>
            </trkpt>
            <trkpt lat="41.653156" lon="2.100010">
                <ele>602.400000</ele>
                <time>1989-12-31T00:59:59.000+01:00</time>
            </trkpt>
            <trkpt lat="41.652875" lon="2.100276">
                <ele>605.300000</ele>
                <time>1989-12-31T00:59:59.000+01:00</time>
            </trkpt>
            <trkpt lat="41.652980" lon="2.101418">
                <ele>613.000000</ele>
                <time>1989-12-31T00:59:59.000+01:00</time>
            </trkpt>
            <trkpt lat="41.652573" lon="2.102284">
                <ele>620.200000</ele>
                <time>1989-12-31T00:59:59.000+01:00</time>
            </trkpt>
            <trkpt lat="41.652914" lon="2.102090">
                <ele>621.600000</ele>
                <time>1989-12-31T00:59:59.000+01:00</time>
            </trkpt>
            <trkpt lat="41.653190" lon="2.103010">
                <ele>627.400000</ele>
                <time>1989-12-31T00:59:59.000+01:00</time>
            </trkpt>
            <trkpt lat="41.653395" lon="2.103103">
                <ele>627.400000</ele>
                <time>1989-12-31T00:59:59.000+01:00</time>
            </trkpt>
            <trkpt lat="41.653899" lon="2.102673">
                <ele>628.400000</ele>
                <time>1989-12-31T00:59:59.000+01:00</time>
            </trkpt>
            <trkpt lat="41.654589" lon="2.102806">
                <ele>626.400000</ele>
                <time>1989-12-31T00:59:59.000+01:00</time>
            </trkpt>
            <trkpt lat="41.654807" lon="2.103209">
                <ele>626.400000</ele>
                <time>1989-12-31T00:59:59.000+01:00</time>
            </trkpt>
            <trkpt lat="41.654755" lon="2.103998">
                <ele>625.500000</ele>
                <time>1989-12-31T00:59:59.000+01:00</time>
            </trkpt>
            <trkpt lat="41.655038" lon="2.104505">
                <ele>627.400000</ele>
                <time>1989-12-31T00:59:59.000+01:00</time>
            </trkpt>
            <trkpt lat="41.655596" lon="2.104474">
                <ele>626.900000</ele>
                <time>1989-12-31T00:59:59.000+01:00</time>
            </trkpt>
            <trkpt lat="41.655825" lon="2.104831">
                <ele>627.900000</ele>
                <time>1989-12-31T00:59:59.000+01:00</time>
            </trkpt>
            <trkpt lat="41.655843" lon="2.105317">
                <ele>630.300000</ele>
                <time>1989-12-31T00:59:59.000+01:00</time>
            </trkpt>
            <trkpt lat="41.657013" lon="2.108722">
                <ele>633.200000</ele>
                <time>1989-12-31T00:59:59.000+01:00</time>
            </trkpt>
            <trkpt lat="41.658293" lon="2.110157">
                <ele>641.800000</ele>
                <time>1989-12-31T00:59:59.000+01:00</time>
            </trkpt>
            <trkpt lat="41.658541" lon="2.110635">
                <ele>646.100000</ele>
                <time>1989-12-31T00:59:59.000+01:00</time>
            </trkpt>
            <trkpt lat="41.659371" lon="2.111408">
                <ele>647.600000</ele>
                <time>1989-12-31T00:59:59.000+01:00</time>
            </trkpt>
            <trkpt lat="41.659697" lon="2.112360">
                <ele>641.300000</ele>
                <time>1989-12-31T00:59:59.000+01:00</time>
            </trkpt>
            <trkpt lat="41.660184" lon="2.113080">
                <ele>631.700000</ele>
                <time>1989-12-31T00:59:59.000+01:00</time>
            </trkpt>
            <trkpt lat="41.660537" lon="2.113222">
                <ele>625.500000</ele>
                <time>1989-12-31T00:59:59.000+01:00</time>
            </trkpt>
            <trkpt lat="41.661199" lon="2.112734">
                <ele>613.000000</ele>
                <time>1989-12-31T00:59:59.000+01:00</time>
            </trkpt>
            <trkpt lat="41.662474" lon="2.113271">
                <ele>590.400000</ele>
                <time>1989-12-31T00:59:59.000+01:00</time>
            </trkpt>
            <trkpt lat="41.662580" lon="2.113455">
                <ele>586.500000</ele>
                <time>1989-12-31T00:59:59.000+01:00</time>
            </trkpt>
            <trkpt lat="41.662208" lon="2.114732">
                <ele>563.000000</ele>
                <time>1989-12-31T00:59:59.000+01:00</time>
            </trkpt>
            <trkpt lat="41.662506" lon="2.115280">
                <ele>556.300000</ele>
                <time>1989-12-31T00:59:59.000+01:00</time>
            </trkpt>
            <trkpt lat="41.663469" lon="2.115832">
                <ele>534.100000</ele>
                <time>1989-12-31T00:59:59.000+01:00</time>
            </trkpt>
            <trkpt lat="41.663701" lon="2.117312">
                <ele>515.400000</ele>
                <time>1989-12-31T00:59:59.000+01:00</time>
            </trkpt>
            <trkpt lat="41.663424" lon="2.117875">
                <ele>515.400000</ele>
                <time>1989-12-31T00:59:59.000+01:00</time>
            </trkpt>
            <trkpt lat="41.663540" lon="2.118190">
                <ele>509.600000</ele>
                <time>1989-12-31T00:59:59.000+01:00</time>
            </trkpt>
            <trkpt lat="41.663581" lon="2.117912">
                <ele>508.200000</ele>
                <time>1989-12-31T00:59:59.000+01:00</time>
            </trkpt>
            <trkpt lat="41.664874" lon="2.117509">
                <ele>494.700000</ele>
                <time>1989-12-31T00:59:59.000+01:00</time>
            </trkpt>
            <trkpt lat="41.665466" lon="2.117544">
                <ele>489.000000</ele>
                <time>1989-12-31T00:59:59.000+01:00</time>
            </trkpt>
            <trkpt lat="41.665932" lon="2.117283">
                <ele>480.300000</ele>
                <time>1989-12-31T00:59:59.000+01:00</time>
            </trkpt>
            <trkpt lat="41.665802" lon="2.117694">
                <ele>472.600000</ele>
                <time>1989-12-31T00:59:59.000+01:00</time>
            </trkpt>
            <trkpt lat="41.665262" lon="2.117847">
                <ele>469.700000</ele>
                <time>1989-12-31T00:59:59.000+01:00</time>
            </trkpt>
            <trkpt lat="41.665168" lon="2.118032">
                <ele>467.800000</ele>
                <time>1989-12-31T00:59:59.000+01:00</time>
            </trkpt>
            <trkpt lat="41.666036" lon="2.118904">
                <ele>460.100000</ele>
                <time>1989-12-31T00:59:59.000+01:00</time>
            </trkpt>
            <trkpt lat="41.665914" lon="2.118323">
                <ele>452.900000</ele>
                <time>1989-12-31T00:59:59.000+01:00</time>
            </trkpt>
            <trkpt lat="41.666391" lon="2.118152">
                <ele>449.100000</ele>
                <time>1989-12-31T00:59:59.000+01:00</time>
            </trkpt>
            <trkpt lat="41.666767" lon="2.117612">
                <ele>442.800000</ele>
                <time>1989-12-31T00:59:59.000+01:00</time>
            </trkpt>
            <trkpt lat="41.667075" lon="2.117745">
                <ele>439.500000</ele>
                <time>1989-12-31T00:59:59.000+01:00</time>
            </trkpt>
            <trkpt lat="41.666949" lon="2.116658">
                <ele>431.800000</ele>
                <time>1989-12-31T00:59:59.000+01:00</time>
            </trkpt>
            <trkpt lat="41.667305" lon="2.116153">
                <ele>428.400000</ele>
                <time>1989-12-31T00:59:59.000+01:00</time>
            </trkpt>
            <trkpt lat="41.667645" lon="2.115075">
                <ele>421.200000</ele>
                <time>1989-12-31T00:59:59.000+01:00</time>
            </trkpt>
            <trkpt lat="41.668031" lon="2.115446">
                <ele>404.900000</ele>
                <time>1989-12-31T00:59:59.000+01:00</time>
            </trkpt>
            <trkpt lat="41.668099" lon="2.116096">
                <ele>398.600000</ele>
                <time>1989-12-31T00:59:59.000+01:00</time>
            </trkpt>
            <trkpt lat="41.668492" lon="2.116983">
                <ele>400.000000</ele>
                <time>1989-12-31T00:59:59.000+01:00</time>
            </trkpt>
            <trkpt lat="41.668919" lon="2.117375">
                <ele>397.200000</ele>
                <time>1989-12-31T00:59:59.000+01:00</time>
            </trkpt>
            <trkpt lat="41.669492" lon="2.117409">
                <ele>397.200000</ele>
                <time>1989-12-31T00:59:59.000+01:00</time>
            </trkpt>
            <trkpt lat="41.669753" lon="2.118399">
                <ele>395.200000</ele>
                <time>1989-12-31T00:59:59.000+01:00</time>
            </trkpt>
            <trkpt lat="41.669892" lon="2.118299">
                <ele>401.500000</ele>
                <time>1989-12-31T00:59:59.000+01:00</time>
            </trkpt>
            <trkpt lat="41.670451" lon="2.119657">
                <ele>422.200000</ele>
                <time>1989-12-31T00:59:59.000+01:00</time>
            </trkpt>
            <trkpt lat="41.670992" lon="2.119958">
                <ele>431.800000</ele>
                <time>1989-12-31T00:59:59.000+01:00</time>
            </trkpt>
            <trkpt lat="41.671231" lon="2.119853">
                <ele>434.700000</ele>
                <time>1989-12-31T00:59:59.000+01:00</time>
            </trkpt>
            <trkpt lat="41.671747" lon="2.118597">
                <ele>445.200000</ele>
                <time>1989-12-31T00:59:59.000+01:00</time>
            </trkpt>
            <trkpt lat="41.672155" lon="2.118072">
                <ele>445.200000</ele>
                <time>1989-12-31T00:59:59.000+01:00</time>
            </trkpt>
            <trkpt lat="41.672275" lon="2.117948">
                <ele>445.200000</ele>
                <time>1989-12-31T00:59:59.000+01:00</time>
            </trkpt>
            <trkpt lat="41.672574" lon="2.118133">
                <ele>446.700000</ele>
                <time>1989-12-31T00:59:59.000+01:00</time>
            </trkpt>
            <trkpt lat="41.673218" lon="2.116972">
                <ele>455.300000</ele>
                <time>1989-12-31T00:59:59.000+01:00</time>
            </trkpt>
            <trkpt lat="41.674911" lon="2.115625">
                <ele>473.100000</ele>
                <time>1989-12-31T00:59:59.000+01:00</time>
            </trkpt>
            <trkpt lat="41.675557" lon="2.114331">
                <ele>478.900000</ele>
                <time>1989-12-31T00:59:59.000+01:00</time>
            </trkpt>
            <trkpt lat="41.676305" lon="2.113289">
                <ele>489.000000</ele>
                <time>1989-12-31T00:59:59.000+01:00</time>
            </trkpt>
            <trkpt lat="41.676980" lon="2.113383">
                <ele>497.600000</ele>
                <time>1989-12-31T00:59:59.000+01:00</time>
            </trkpt>
            <trkpt lat="41.677061" lon="2.113974">
                <ele>498.100000</ele>
                <time>1989-12-31T00:59:59.000+01:00</time>
            </trkpt>
            <trkpt lat="41.677459" lon="2.114609">
                <ele>487.000000</ele>
                <time>1989-12-31T00:59:59.000+01:00</time>
            </trkpt>
            <trkpt lat="41.678529" lon="2.115098">
                <ele>480.300000</ele>
                <time>1989-12-31T00:59:59.000+01:00</time>
            </trkpt>
            <trkpt lat="41.678539" lon="2.115422">
                <ele>477.900000</ele>
                <time>1989-12-31T00:59:59.000+01:00</time>
            </trkpt>
            <trkpt lat="41.677934" lon="2.116224">
                <ele>462.500000</ele>
                <time>1989-12-31T00:59:59.000+01:00</time>
            </trkpt>
            <trkpt lat="41.678774" lon="2.116143">
                <ele>449.100000</ele>
                <time>1989-12-31T00:59:59.000+01:00</time>
            </trkpt>
            <trkpt lat="41.679371" lon="2.116381">
                <ele>441.900000</ele>
                <time>1989-12-31T00:59:59.000+01:00</time>
            </trkpt>
            <trkpt lat="41.679592" lon="2.115533">
                <ele>434.200000</ele>
                <time>1989-12-31T00:59:59.000+01:00</time>
            </trkpt>
            <trkpt lat="41.679375" lon="2.114577">
                <ele>430.800000</ele>
                <time>1989-12-31T00:59:59.000+01:00</time>
            </trkpt>
            <trkpt lat="41.680191" lon="2.115073">
                <ele>427.900000</ele>
                <time>1989-12-31T00:59:59.000+01:00</time>
            </trkpt>
            <trkpt lat="41.680794" lon="2.114621">
                <ele>426.500000</ele>
                <time>1989-12-31T00:59:59.000+01:00</time>
            </trkpt>
            <trkpt lat="41.680772" lon="2.115306">
                <ele>429.800000</ele>
                <time>1989-12-31T00:59:59.000+01:00</time>
            </trkpt>
            <trkpt lat="41.680409" lon="2.115886">
                <ele>432.700000</ele>
                <time>1989-12-31T00:59:59.000+01:00</time>
            </trkpt>
            <trkpt lat="41.680506" lon="2.116783">
                <ele>437.500000</ele>
                <time>1989-12-31T00:59:59.000+01:00</time>
            </trkpt>
            <trkpt lat="41.680374" lon="2.117404">
                <ele>442.300000</ele>
                <time>1989-12-31T00:59:59.000+01:00</time>
            </trkpt>
            <trkpt lat="41.680800" lon="2.116696">
                <ele>445.700000</ele>
                <time>1989-12-31T00:59:59.000+01:00</time>
            </trkpt>
            <trkpt lat="41.681173" lon="2.115482">
                <ele>447.600000</ele>
                <time>1989-12-31T00:59:59.000+01:00</time>
            </trkpt>
            <trkpt lat="41.681502" lon="2.115183">
                <ele>448.100000</ele>
                <time>1989-12-31T00:59:59.000+01:00</time>
            </trkpt>
            <trkpt lat="41.681907" lon="2.114398">
                <ele>454.800000</ele>
                <time>1989-12-31T00:59:59.000+01:00</time>
            </trkpt>
            <trkpt lat="41.682169" lon="2.114219">
                <ele>458.700000</ele>
                <time>1989-12-31T00:59:59.000+01:00</time>
            </trkpt>
            <trkpt lat="41.683120" lon="2.114515">
                <ele>470.700000</ele>
                <time>1989-12-31T00:59:59.000+01:00</time>
            </trkpt>
            <trkpt lat="41.683311" lon="2.115066">
                <ele>476.000000</ele>
                <time>1989-12-31T00:59:59.000+01:00</time>
            </trkpt>
            <trkpt lat="41.683769" lon="2.114907">
                <ele>482.200000</ele>
                <time>1989-12-31T00:59:59.000+01:00</time>
            </trkpt>
            <trkpt lat="41.684305" lon="2.115200">
                <ele>484.600000</ele>
                <time>1989-12-31T00:59:59.000+01:00</time>
            </trkpt>
            <trkpt lat="41.684524" lon="2.115678">
                <ele>483.700000</ele>
                <time>1989-12-31T00:59:59.000+01:00</time>
            </trkpt>
            <trkpt lat="41.684932" lon="2.115596">
                <ele>486.100000</ele>
                <time>1989-12-31T00:59:59.000+01:00</time>
            </trkpt>
            <trkpt lat="41.686158" lon="2.116266">
                <ele>493.300000</ele>
                <time>1989-12-31T00:59:59.000+01:00</time>
            </trkpt>
            <trkpt lat="41.685820" lon="2.116569">
                <ele>496.200000</ele>
                <time>1989-12-31T00:59:59.000+01:00</time>
            </trkpt>
            <trkpt lat="41.685945" lon="2.116783">
                <ele>498.100000</ele>
                <time>1989-12-31T00:59:59.000+01:00</time>
            </trkpt>
            <trkpt lat="41.686410" lon="2.116446">
                <ele>501.000000</ele>
                <time>1989-12-31T00:59:59.000+01:00</time>
            </trkpt>
            <trkpt lat="41.686711" lon="2.116483">
                <ele>502.900000</ele>
                <time>1989-12-31T00:59:59.000+01:00</time>
            </trkpt>
            <trkpt lat="41.687361" lon="2.116976">
                <ele>506.300000</ele>
                <time>1989-12-31T00:59:59.000+01:00</time>
            </trkpt>
            <trkpt lat="41.687605" lon="2.119124">
                <ele>509.600000</ele>
                <time>1989-12-31T00:59:59.000+01:00</time>
            </trkpt>
            <trkpt lat="41.687915" lon="2.119562">
                <ele>501.500000</ele>
                <time>1989-12-31T00:59:59.000+01:00</time>
            </trkpt>
            <trkpt lat="41.688281" lon="2.119548">
                <ele>500.500000</ele>
                <time>1989-12-31T00:59:59.000+01:00</time>
            </trkpt>
            <trkpt lat="41.689076" lon="2.118530">
                <ele>501.900000</ele>
                <time>1989-12-31T00:59:59.000+01:00</time>
            </trkpt>
            <trkpt lat="41.689425" lon="2.115302">
                <ele>482.200000</ele>
                <time>1989-12-31T00:59:59.000+01:00</time>
            </trkpt>
            <trkpt lat="41.689968" lon="2.114100">
                <ele>474.500000</ele>
                <time>1989-12-31T00:59:59.000+01:00</time>
            </trkpt>
            <trkpt lat="41.690353" lon="2.113710">
                <ele>471.200000</ele>
                <time>1989-12-31T00:59:59.000+01:00</time>
            </trkpt>
            <trkpt lat="41.690495" lon="2.113746">
                <ele>465.900000</ele>
                <time>1989-12-31T00:59:59.000+01:00</time>
            </trkpt>
            <trkpt lat="41.690005" lon="2.115295">
                <ele>454.400000</ele>
                <time>1989-12-31T00:59:59.000+01:00</time>
            </trkpt>
            <trkpt lat="41.690423" lon="2.115207">
                <ele>449.600000</ele>
                <time>1989-12-31T00:59:59.000+01:00</time>
            </trkpt>
            <trkpt lat="41.690373" lon="2.115540">
                <ele>446.200000</ele>
                <time>1989-12-31T00:59:59.000+01:00</time>
            </trkpt>
            <trkpt lat="41.690765" lon="2.114594">
                <ele>446.700000</ele>
                <time>1989-12-31T00:59:59.000+01:00</time>
            </trkpt>
            <trkpt lat="41.691407" lon="2.114179">
                <ele>452.400000</ele>
                <time>1989-12-31T00:59:59.000+01:00</time>
            </trkpt>
            <trkpt lat="41.691559" lon="2.114324">
                <ele>455.300000</ele>
                <time>1989-12-31T00:59:59.000+01:00</time>
            </trkpt>
            <trkpt lat="41.691328" lon="2.114559">
                <ele>457.200000</ele>
                <time>1989-12-31T00:59:59.000+01:00</time>
            </trkpt>
            <trkpt lat="41.691119" lon="2.115454">
                <ele>459.600000</ele>
                <time>1989-12-31T00:59:59.000+01:00</time>
            </trkpt>
            <trkpt lat="41.691171" lon="2.115814">
                <ele>461.100000</ele>
                <time>1989-12-31T00:59:59.000+01:00</time>
            </trkpt>
            <trkpt lat="41.691382" lon="2.115970">
                <ele>463.500000</ele>
                <time>1989-12-31T00:59:59.000+01:00</time>
            </trkpt>
            <trkpt lat="41.692306" lon="2.115706">
                <ele>478.900000</ele>
                <time>1989-12-31T00:59:59.000+01:00</time>
            </trkpt>
            <trkpt lat="41.692129" lon="2.115222">
                <ele>483.700000</ele>
                <time>1989-12-31T00:59:59.000+01:00</time>
            </trkpt>
            <trkpt lat="41.693045" lon="2.114307">
                <ele>486.600000</ele>
                <time>1989-12-31T00:59:59.000+01:00</time>
            </trkpt>
            <trkpt lat="41.693231" lon="2.113241">
                <ele>486.100000</ele>
                <time>1989-12-31T00:59:59.000+01:00</time>
            </trkpt>
            <trkpt lat="41.693122" lon="2.114398">
                <ele>489.900000</ele>
                <time>1989-12-31T00:59:59.000+01:00</time>
            </trkpt>
            <trkpt lat="41.692816" lon="2.114900">
                <ele>492.800000</ele>
                <time>1989-12-31T00:59:59.000+01:00</time>
            </trkpt>
            <trkpt lat="41.693142" lon="2.116223">
                <ele>498.100000</ele>
                <time>1989-12-31T00:59:59.000+01:00</time>
            </trkpt>
            <trkpt lat="41.693402" lon="2.116465">
                <ele>501.500000</ele>
                <time>1989-12-31T00:59:59.000+01:00</time>
            </trkpt>
            <trkpt lat="41.693913" lon="2.114425">
                <ele>508.700000</ele>
                <time>1989-12-31T00:59:59.000+01:00</time>
            </trkpt>
            <trkpt lat="41.694159" lon="2.114828">
                <ele>520.700000</ele>
                <time>1989-12-31T00:59:59.000+01:00</time>
            </trkpt>
            <trkpt lat="41.694654" lon="2.114513">
                <ele>523.100000</ele>
                <time>1989-12-31T00:59:59.000+01:00</time>
            </trkpt>
            <trkpt lat="41.694288" lon="2.114837">
                <ele>520.700000</ele>
                <time>1989-12-31T00:59:59.000+01:00</time>
            </trkpt>
            <trkpt lat="41.694202" lon="2.114697">
                <ele>520.700000</ele>
                <time>1989-12-31T00:59:59.000+01:00</time>
            </trkpt>
            <trkpt lat="41.694216" lon="2.114493">
                <ele>518.300000</ele>
                <time>1989-12-31T00:59:59.000+01:00</time>
            </trkpt>
            <trkpt lat="41.694253" lon="2.114856">
                <ele>516.800000</ele>
                <time>1989-12-31T00:59:59.000+01:00</time>
            </trkpt>
            <trkpt lat="41.694631" lon="2.115129">
                <ele>517.300000</ele>
                <time>1989-12-31T00:59:59.000+01:00</time>
            </trkpt>
            <trkpt lat="41.694826" lon="2.114694">
                <ele>517.300000</ele>
                <time>1989-12-31T00:59:59.000+01:00</time>
            </trkpt>
            <trkpt lat="41.694094" lon="2.114585">
                <ele>518.300000</ele>
                <time>1989-12-31T00:59:59.000+01:00</time>
            </trkpt>
            <trkpt lat="41.694421" lon="2.114582">
                <ele>518.300000</ele>
                <time>1989-12-31T00:59:59.000+01:00</time>
            </trkpt>
            <trkpt lat="41.694108" lon="2.114304">
                <ele>518.300000</ele>
                <time>1989-12-31T00:59:59.000+01:00</time>
            </trkpt>
            <trkpt lat="41.693712" lon="2.114368">
                <ele>518.800000</ele>
                <time>1989-12-31T00:59:59.000+01:00</time>
            </trkpt>
            <trkpt lat="41.693927" lon="2.114668">
                <ele>518.800000</ele>
                <time>1989-12-31T00:59:59.000+01:00</time>
            </trkpt>
            <trkpt lat="41.693406" lon="2.114806">
                <ele>518.300000</ele>
                <time>1989-12-31T00:59:59.000+01:00</time>
            </trkpt>
            <trkpt lat="41.694271" lon="2.114728">
                <ele>518.800000</ele>
                <time>1989-12-31T00:59:59.000+01:00</time>
            </trkpt>
            <trkpt lat="41.694160" lon="2.114533">
                <ele>518.300000</ele>
                <time>1989-12-31T00:59:59.000+01:00</time>
            </trkpt>
            <trkpt lat="41.694102" lon="2.114720">
                <ele>518.800000</ele>
                <time>1989-12-31T00:59:59.000+01:00</time>
            </trkpt>
            <trkpt lat="41.694222" lon="2.114606">
                <ele>517.800000</ele>
                <time>1989-12-31T00:59:59.000+01:00</time>
            </trkpt>
            <trkpt lat="41.694281" lon="2.114773">
                <ele>517.800000</ele>
                <time>1989-12-31T00:59:59.000+01:00</time>
            </trkpt>
            <trkpt lat="41.694327" lon="2.114632">
                <ele>518.300000</ele>
                <time>1989-12-31T00:59:59.000+01:00</time>
            </trkpt>
            <trkpt lat="41.694135" lon="2.114812">
                <ele>518.300000</ele>
                <time>1989-12-31T00:59:59.000+01:00</time>
            </trkpt>
            <trkpt lat="41.694289" lon="2.114845">
                <ele>518.300000</ele>
                <time>1989-12-31T00:59:59.000+01:00</time>
            </trkpt>
            <trkpt lat="41.694269" lon="2.114582">
                <ele>518.300000</ele>
                <time>1989-12-31T00:59:59.000+01:00</time>
            </trkpt>
            <trkpt lat="41.694300" lon="2.114786">
                <ele>518.800000</ele>
                <time>1989-12-31T00:59:59.000+01:00</time>
            </trkpt>
            <trkpt lat="41.694113" lon="2.114582">
                <ele>517.800000</ele>
                <time>1989-12-31T00:59:59.000+01:00</time>
            </trkpt>
            <trkpt lat="41.694297" lon="2.114800">
                <ele>517.800000</ele>
                <time>1989-12-31T00:59:59.000+01:00</time>
            </trkpt>
            <trkpt lat="41.694207" lon="2.114644">
                <ele>517.800000</ele>
                <time>1989-12-31T00:59:59.000+01:00</time>
            </trkpt>
            <trkpt lat="41.694354" lon="2.114631">
                <ele>518.300000</ele>
                <time>1989-12-31T00:59:59.000+01:00</time>
            </trkpt>
            <trkpt lat="41.694177" lon="2.114613">
                <ele>518.300000</ele>
                <time>1989-12-31T00:59:59.000+01:00</time>
            </trkpt>
            <trkpt lat="41.694367" lon="2.114700">
                <ele>519.700000</ele>
                <time>1989-12-31T00:59:59.000+01:00</time>
            </trkpt>
            <trkpt lat="41.694178" lon="2.114724">
                <ele>519.700000</ele>
                <time>1989-12-31T00:59:59.000+01:00</time>
            </trkpt>
            <trkpt lat="41.694358" lon="2.114632">
                <ele>521.700000</ele>
                <time>1989-12-31T00:59:59.000+01:00</time>
            </trkpt>
            <trkpt lat="41.694243" lon="2.114741">
                <ele>521.700000</ele>
                <time>1989-12-31T00:59:59.000+01:00</time>
            </trkpt>
            <trkpt lat="41.694862" lon="2.114419">
                <ele>524.100000</ele>
                <time>1989-12-31T00:59:59.000+01:00</time>
            </trkpt>
            <trkpt lat="41.697298" lon="2.114730">
                <ele>531.300000</ele>
                <time>1989-12-31T00:59:59.000+01:00</time>
            </trkpt>
            <trkpt lat="41.697406" lon="2.114349">
                <ele>531.700000</ele>
                <time>1989-12-31T00:59:59.000+01:00</time>
            </trkpt>
            <trkpt lat="41.697227" lon="2.114050">
                <ele>532.200000</ele>
                <time>1989-12-31T00:59:59.000+01:00</time>
            </trkpt>
            <trkpt lat="41.695907" lon="2.112385">
                <ele>541.400000</ele>
                <time>1989-12-31T00:59:59.000+01:00</time>
            </trkpt>
            <trkpt lat="41.696504" lon="2.111243">
                <ele>541.800000</ele>
                <time>1989-12-31T00:59:59.000+01:00</time>
            </trkpt>
            <trkpt lat="41.696310" lon="2.110855">
                <ele>542.800000</ele>
                <time>1989-12-31T00:59:59.000+01:00</time>
            </trkpt>
            <trkpt lat="41.695551" lon="2.110678">
                <ele>545.700000</ele>
                <time>1989-12-31T00:59:59.000+01:00</time>
            </trkpt>
            <trkpt lat="41.694328" lon="2.111393">
                <ele>546.200000</ele>
                <time>1989-12-31T00:59:59.000+01:00</time>
            </trkpt>
            <trkpt lat="41.693876" lon="2.110877">
                <ele>546.200000</ele>
                <time>1989-12-31T00:59:59.000+01:00</time>
            </trkpt>
            <trkpt lat="41.693413" lon="2.110677">
                <ele>545.200000</ele>
                <time>1989-12-31T00:59:59.000+01:00</time>
            </trkpt>
            <trkpt lat="41.693035" lon="2.109261">
                <ele>540.900000</ele>
                <time>1989-12-31T00:59:59.000+01:00</time>
            </trkpt>
            <trkpt lat="41.693123" lon="2.107770">
                <ele>534.100000</ele>
                <time>1989-12-31T00:59:59.000+01:00</time>
            </trkpt>
            <trkpt lat="41.692591" lon="2.106783">
                <ele>534.600000</ele>
                <time>1989-12-31T00:59:59.000+01:00</time>
            </trkpt>
            <trkpt lat="41.692435" lon="2.106065">
                <ele>539.400000</ele>
                <time>1989-12-31T00:59:59.000+01:00</time>
            </trkpt>
            <trkpt lat="41.692017" lon="2.105505">
                <ele>542.800000</ele>
                <time>1989-12-31T00:59:59.000+01:00</time>
            </trkpt>
            <trkpt lat="41.692018" lon="2.105081">
                <ele>544.700000</ele>
                <time>1989-12-31T00:59:59.000+01:00</time>
            </trkpt>
            <trkpt lat="41.692348" lon="2.104840">
                <ele>546.200000</ele>
                <time>1989-12-31T00:59:59.000+01:00</time>
            </trkpt>
            <trkpt lat="41.693074" lon="2.104868">
                <ele>549.100000</ele>
                <time>1989-12-31T00:59:59.000+01:00</time>
            </trkpt>
            <trkpt lat="41.693101" lon="2.103446">
                <ele>555.800000</ele>
                <time>1989-12-31T00:59:59.000+01:00</time>
            </trkpt>
            <trkpt lat="41.693735" lon="2.102400">
                <ele>562.500000</ele>
                <time>1989-12-31T00:59:59.000+01:00</time>
            </trkpt>
            <trkpt lat="41.693830" lon="2.101491">
                <ele>562.500000</ele>
                <time>1989-12-31T00:59:59.000+01:00</time>
            </trkpt>
            <trkpt lat="41.694473" lon="2.101043">
                <ele>563.000000</ele>
                <time>1989-12-31T00:59:59.000+01:00</time>
            </trkpt>
            <trkpt lat="41.694557" lon="2.100437">
                <ele>562.500000</ele>
                <time>1989-12-31T00:59:59.000+01:00</time>
            </trkpt>
            <trkpt lat="41.694276" lon="2.100162">
                <ele>562.500000</ele>
                <time>1989-12-31T00:59:59.000+01:00</time>
            </trkpt>
            <trkpt lat="41.693687" lon="2.100660">
                <ele>564.900000</ele>
                <time>1989-12-31T00:59:59.000+01:00</time>
            </trkpt>
            <trkpt lat="41.693352" lon="2.100580">
                <ele>566.800000</ele>
                <time>1989-12-31T00:59:59.000+01:00</time>
            </trkpt>
            <trkpt lat="41.692872" lon="2.099793">
                <ele>572.100000</ele>
                <time>1989-12-31T00:59:59.000+01:00</time>
            </trkpt>
            <trkpt lat="41.692582" lon="2.099598">
                <ele>573.600000</ele>
                <time>1989-12-31T00:59:59.000+01:00</time>
            </trkpt>
            <trkpt lat="41.692417" lon="2.099909">
                <ele>575.000000</ele>
                <time>1989-12-31T00:59:59.000+01:00</time>
            </trkpt>
            <trkpt lat="41.692669" lon="2.101462">
                <ele>581.300000</ele>
                <time>1989-12-31T00:59:59.000+01:00</time>
            </trkpt>
            <trkpt lat="41.692332" lon="2.101789">
                <ele>583.200000</ele>
                <time>1989-12-31T00:59:59.000+01:00</time>
            </trkpt>
            <trkpt lat="41.691981" lon="2.102787">
                <ele>587.000000</ele>
                <time>1989-12-31T00:59:59.000+01:00</time>
            </trkpt>
            <trkpt lat="41.690720" lon="2.102857">
                <ele>593.800000</ele>
                <time>1989-12-31T00:59:59.000+01:00</time>
            </trkpt>
            <trkpt lat="41.689934" lon="2.102490">
                <ele>597.100000</ele>
                <time>1989-12-31T00:59:59.000+01:00</time>
            </trkpt>
            <trkpt lat="41.689719" lon="2.102816">
                <ele>598.100000</ele>
                <time>1989-12-31T00:59:59.000+01:00</time>
            </trkpt>
            <trkpt lat="41.689845" lon="2.103887">
                <ele>601.400000</ele>
                <time>1989-12-31T00:59:59.000+01:00</time>
            </trkpt>
            <trkpt lat="41.689753" lon="2.104483">
                <ele>604.300000</ele>
                <time>1989-12-31T00:59:59.000+01:00</time>
            </trkpt>
            <trkpt lat="41.689468" lon="2.104800">
                <ele>606.700000</ele>
                <time>1989-12-31T00:59:59.000+01:00</time>
            </trkpt>
            <trkpt lat="41.689151" lon="2.105806">
                <ele>611.100000</ele>
                <time>1989-12-31T00:59:59.000+01:00</time>
            </trkpt>
            <trkpt lat="41.689077" lon="2.107520">
                <ele>608.700000</ele>
                <time>1989-12-31T00:59:59.000+01:00</time>
            </trkpt>
            <trkpt lat="41.689333" lon="2.108335">
                <ele>604.800000</ele>
                <time>1989-12-31T00:59:59.000+01:00</time>
            </trkpt>
            <trkpt lat="41.689398" lon="2.109352">
                <ele>593.300000</ele>
                <time>1989-12-31T00:59:59.000+01:00</time>
            </trkpt>
            <trkpt lat="41.689132" lon="2.109669">
                <ele>590.400000</ele>
                <time>1989-12-31T00:59:59.000+01:00</time>
            </trkpt>
            <trkpt lat="41.688243" lon="2.109836">
                <ele>598.100000</ele>
                <time>1989-12-31T00:59:59.000+01:00</time>
            </trkpt>
            <trkpt lat="41.687507" lon="2.108306">
                <ele>584.100000</ele>
                <time>1989-12-31T00:59:59.000+01:00</time>
            </trkpt>
            <trkpt lat="41.686872" lon="2.108171">
                <ele>587.000000</ele>
                <time>1989-12-31T00:59:59.000+01:00</time>
            </trkpt>
            <trkpt lat="41.686092" lon="2.107041">
                <ele>591.800000</ele>
                <time>1989-12-31T00:59:59.000+01:00</time>
            </trkpt>
            <trkpt lat="41.686725" lon="2.107166">
                <ele>599.500000</ele>
                <time>1989-12-31T00:59:59.000+01:00</time>
            </trkpt>
            <trkpt lat="41.686711" lon="2.107660">
                <ele>603.800000</ele>
                <time>1989-12-31T00:59:59.000+01:00</time>
            </trkpt>
            <trkpt lat="41.686927" lon="2.107755">
                <ele>605.300000</ele>
                <time>1989-12-31T00:59:59.000+01:00</time>
            </trkpt>
            <trkpt lat="41.687187" lon="2.107472">
                <ele>608.700000</ele>
                <time>1989-12-31T00:59:59.000+01:00</time>
            </trkpt>
            <trkpt lat="41.687203" lon="2.106941">
                <ele>613.500000</ele>
                <time>1989-12-31T00:59:59.000+01:00</time>
            </trkpt>
            <trkpt lat="41.687521" lon="2.106999">
                <ele>614.900000</ele>
                <time>1989-12-31T00:59:59.000+01:00</time>
            </trkpt>
            <trkpt lat="41.687784" lon="2.106816">
                <ele>616.300000</ele>
                <time>1989-12-31T00:59:59.000+01:00</time>
            </trkpt>
            <trkpt lat="41.688435" lon="2.104855">
                <ele>624.500000</ele>
                <time>1989-12-31T00:59:59.000+01:00</time>
            </trkpt>
            <trkpt lat="41.688372" lon="2.103410">
                <ele>630.300000</ele>
                <time>1989-12-31T00:59:59.000+01:00</time>
            </trkpt>
            <trkpt lat="41.687916" lon="2.102382">
                <ele>633.600000</ele>
                <time>1989-12-31T00:59:59.000+01:00</time>
            </trkpt>
            <trkpt lat="41.687831" lon="2.101370">
                <ele>637.000000</ele>
                <time>1989-12-31T00:59:59.000+01:00</time>
            </trkpt>
            <trkpt lat="41.687230" lon="2.100676">
                <ele>639.400000</ele>
                <time>1989-12-31T00:59:59.000+01:00</time>
            </trkpt>
            <trkpt lat="41.687056" lon="2.099190">
                <ele>638.000000</ele>
                <time>1989-12-31T00:59:59.000+01:00</time>
            </trkpt>
            <trkpt lat="41.685412" lon="2.097423">
                <ele>631.200000</ele>
                <time>1989-12-31T00:59:59.000+01:00</time>
            </trkpt>
            <trkpt lat="41.685376" lon="2.097316">
                <ele>631.200000</ele>
            </trkpt>
            <trkpt lat="41.685367" lon="2.097285">
                <ele>631.200000</ele>
            </trkpt>
            <trkpt lat="41.685367" lon="2.097282">
                <ele>631.200000</ele>
            </trkpt>
            <trkpt lat="41.685369" lon="2.097264">
                <ele>636.050000</ele>
                <time>2010-11-14T10:28:59.000+01:00</time>
            </trkpt>
            <trkpt lat="41.685401" lon="2.097171">
                <ele>634.130000</ele>
                <time>2010-11-14T10:28:51.000+01:00</time>
            </trkpt>
            <trkpt lat="41.685400" lon="2.097123">
                <ele>632.680000</ele>
                <time>2010-11-14T10:28:44.000+01:00</time>
            </trkpt>
            <trkpt lat="41.685399" lon="2.097117">
                <ele>632.680000</ele>
                <time>2010-11-14T10:28:30.000+01:00</time>
            </trkpt>
            <trkpt lat="41.685387" lon="2.097114">
                <ele>632.680000</ele>
                <time>2010-11-14T10:28:17.000+01:00</time>
            </trkpt>
            <trkpt lat="41.685395" lon="2.097005">
                <ele>631.240000</ele>
                <time>2010-11-14T10:28:09.000+01:00</time>
            </trkpt>
            <trkpt lat="41.685393" lon="2.096952">
                <ele>629.800000</ele>
                <time>2010-11-14T10:28:04.000+01:00</time>
            </trkpt>
            <trkpt lat="41.685399" lon="2.096870">
                <ele>627.880000</ele>
                <time>2010-11-14T10:27:59.000+01:00</time>
            </trkpt>
            <trkpt lat="41.685330" lon="2.096759">
                <ele>626.920000</ele>
                <time>2010-11-14T10:27:51.000+01:00</time>
            </trkpt>
            <trkpt lat="41.685294" lon="2.096655">
                <ele>626.440000</ele>
                <time>2010-11-14T10:27:44.000+01:00</time>
            </trkpt>
            <trkpt lat="41.685229" lon="2.096524">
                <ele>625.470000</ele>
                <time>2010-11-14T10:27:35.000+01:00</time>
            </trkpt>
            <trkpt lat="41.685170" lon="2.096354">
                <ele>624.030000</ele>
                <time>2010-11-14T10:27:26.000+01:00</time>
            </trkpt>
            <trkpt lat="41.685182" lon="2.096259">
                <ele>623.070000</ele>
                <time>2010-11-14T10:27:21.000+01:00</time>
            </trkpt>
            <trkpt lat="41.685132" lon="2.096057">
                <ele>622.590000</ele>
                <time>2010-11-14T10:27:13.000+01:00</time>
            </trkpt>
            <trkpt lat="41.685097" lon="2.096036">
                <ele>622.110000</ele>
                <time>2010-11-14T10:27:11.000+01:00</time>
            </trkpt>
            <trkpt lat="41.684962" lon="2.095924">
                <ele>622.110000</ele>
                <time>2010-11-14T10:27:04.000+01:00</time>
            </trkpt>
            <trkpt lat="41.684952" lon="2.095863">
                <ele>622.110000</ele>
                <time>2010-11-14T10:27:01.000+01:00</time>
            </trkpt>
            <trkpt lat="41.684966" lon="2.095777">
                <ele>622.110000</ele>
                <time>2010-11-14T10:26:56.000+01:00</time>
            </trkpt>
            <trkpt lat="41.684919" lon="2.095656">
                <ele>620.670000</ele>
                <time>2010-11-14T10:26:48.000+01:00</time>
            </trkpt>
            <trkpt lat="41.684879" lon="2.095509">
                <ele>619.230000</ele>
                <time>2010-11-14T10:26:40.000+01:00</time>
            </trkpt>
            <trkpt lat="41.684865" lon="2.095471">
                <ele>619.230000</ele>
                <time>2010-11-14T10:26:38.000+01:00</time>
            </trkpt>
            <trkpt lat="41.684879" lon="2.095400">
                <ele>618.260000</ele>
                <time>2010-11-14T10:26:33.000+01:00</time>
            </trkpt>
            <trkpt lat="41.684886" lon="2.095330">
                <ele>617.300000</ele>
                <time>2010-11-14T10:26:28.000+01:00</time>
            </trkpt>
            <trkpt lat="41.684929" lon="2.095262">
                <ele>615.860000</ele>
                <time>2010-11-14T10:26:23.000+01:00</time>
            </trkpt>
            <trkpt lat="41.685026" lon="2.095150">
                <ele>613.460000</ele>
                <time>2010-11-14T10:26:14.000+01:00</time>
            </trkpt>
            <trkpt lat="41.685040" lon="2.095096">
                <ele>613.460000</ele>
                <time>2010-11-14T10:26:06.000+01:00</time>
            </trkpt>
            <trkpt lat="41.685011" lon="2.095007">
                <ele>611.060000</ele>
                <time>2010-11-14T10:25:55.000+01:00</time>
            </trkpt>
            <trkpt lat="41.685106" lon="2.094990">
                <ele>610.090000</ele>
                <time>2010-11-14T10:25:47.000+01:00</time>
            </trkpt>
            <trkpt lat="41.685181" lon="2.094935">
                <ele>608.650000</ele>
                <time>2010-11-14T10:25:43.000+01:00</time>
            </trkpt>
            <trkpt lat="41.685209" lon="2.094799">
                <ele>606.730000</ele>
                <time>2010-11-14T10:25:37.000+01:00</time>
            </trkpt>
            <trkpt lat="41.685227" lon="2.094751">
                <ele>605.770000</ele>
                <time>2010-11-14T10:25:35.000+01:00</time>
            </trkpt>
            <trkpt lat="41.685305" lon="2.094656">
                <ele>603.360000</ele>
                <time>2010-11-14T10:25:29.000+01:00</time>
            </trkpt>
            <trkpt lat="41.685372" lon="2.094671">
                <ele>603.360000</ele>
                <time>2010-11-14T10:25:26.000+01:00</time>
            </trkpt>
            <trkpt lat="41.685397" lon="2.094690">
                <ele>603.360000</ele>
                <time>2010-11-14T10:25:19.000+01:00</time>
            </trkpt>
            <trkpt lat="41.685440" lon="2.094754">
                <ele>600.960000</ele>
                <time>2010-11-14T10:25:08.000+01:00</time>
            </trkpt>
            <trkpt lat="41.685415" lon="2.094666">
                <ele>601.920000</ele>
                <time>2010-11-14T10:24:58.000+01:00</time>
            </trkpt>
            <trkpt lat="41.685345" lon="2.094601">
                <ele>601.920000</ele>
                <time>2010-11-14T10:24:52.000+01:00</time>
            </trkpt>
            <trkpt lat="41.685234" lon="2.094536">
                <ele>601.440000</ele>
                <time>2010-11-14T10:24:43.000+01:00</time>
            </trkpt>
            <trkpt lat="41.685309" lon="2.094404">
                <ele>600.960000</ele>
                <time>2010-11-14T10:24:12.000+01:00</time>
            </trkpt>
            <trkpt lat="41.685297" lon="2.094345">
                <ele>600.960000</ele>
                <time>2010-11-14T10:24:04.000+01:00</time>
            </trkpt>
            <trkpt lat="41.685294" lon="2.094315">
                <ele>600.480000</ele>
                <time>2010-11-14T10:23:34.000+01:00</time>
            </trkpt>
            <trkpt lat="41.685251" lon="2.094230">
                <ele>600.480000</ele>
                <time>2010-11-14T10:23:23.000+01:00</time>
            </trkpt>
            <trkpt lat="41.685246" lon="2.094112">
                <ele>599.520000</ele>
                <time>2010-11-14T10:23:14.000+01:00</time>
            </trkpt>
            <trkpt lat="41.685299" lon="2.093969">
                <ele>599.040000</ele>
                <time>2010-11-14T10:23:07.000+01:00</time>
            </trkpt>
            <trkpt lat="41.685271" lon="2.093852">
                <ele>598.560000</ele>
                <time>2010-11-14T10:23:03.000+01:00</time>
            </trkpt>
            <trkpt lat="41.685192" lon="2.093729">
                <ele>598.560000</ele>
                <time>2010-11-14T10:22:57.000+01:00</time>
            </trkpt>
            <trkpt lat="41.685045" lon="2.093504">
                <ele>597.600000</ele>
                <time>2010-11-14T10:22:49.000+01:00</time>
            </trkpt>
            <trkpt lat="41.684954" lon="2.093389">
                <ele>596.640000</ele>
                <time>2010-11-14T10:22:40.000+01:00</time>
            </trkpt>
            <trkpt lat="41.684948" lon="2.093377">
                <ele>596.640000</ele>
                <time>2010-11-14T10:22:39.000+01:00</time>
            </trkpt>
            <trkpt lat="41.684842" lon="2.093314">
                <ele>595.190000</ele>
                <time>2010-11-14T10:22:29.000+01:00</time>
            </trkpt>
            <trkpt lat="41.684758" lon="2.093288">
                <ele>593.750000</ele>
                <time>2010-11-14T10:22:20.000+01:00</time>
            </trkpt>
            <trkpt lat="41.684683" lon="2.093275">
                <ele>593.270000</ele>
                <time>2010-11-14T10:22:14.000+01:00</time>
            </trkpt>
            <trkpt lat="41.684653" lon="2.093288">
                <ele>592.790000</ele>
                <time>2010-11-14T10:22:09.000+01:00</time>
            </trkpt>
            <trkpt lat="41.684587" lon="2.093300">
                <ele>590.390000</ele>
                <time>2010-11-14T10:22:01.000+01:00</time>
            </trkpt>
            <trkpt lat="41.684532" lon="2.093306">
                <ele>589.430000</ele>
                <time>2010-11-14T10:21:55.000+01:00</time>
            </trkpt>
            <trkpt lat="41.684460" lon="2.093218">
                <ele>588.460000</ele>
                <time>2010-11-14T10:21:49.000+01:00</time>
            </trkpt>
            <trkpt lat="41.684421" lon="2.093177">
                <ele>588.460000</ele>
                <time>2010-11-14T10:21:46.000+01:00</time>
            </trkpt>
            <trkpt lat="41.684377" lon="2.093108">
                <ele>587.980000</ele>
                <time>2010-11-14T10:21:42.000+01:00</time>
            </trkpt>
            <trkpt lat="41.684296" lon="2.093054">
                <ele>587.020000</ele>
                <time>2010-11-14T10:21:06.000+01:00</time>
            </trkpt>
            <trkpt lat="41.684178" lon="2.092980">
                <ele>587.020000</ele>
                <time>2010-11-14T10:20:57.000+01:00</time>
            </trkpt>
            <trkpt lat="41.684131" lon="2.092920">
                <ele>587.020000</ele>
                <time>2010-11-14T10:20:53.000+01:00</time>
            </trkpt>
            <trkpt lat="41.683990" lon="2.092841">
                <ele>586.540000</ele>
                <time>2010-11-14T10:20:47.000+01:00</time>
            </trkpt>
            <trkpt lat="41.683853" lon="2.092805">
                <ele>585.580000</ele>
                <time>2010-11-14T10:20:40.000+01:00</time>
            </trkpt>
            <trkpt lat="41.683742" lon="2.092756">
                <ele>584.140000</ele>
                <time>2010-11-14T10:20:34.000+01:00</time>
            </trkpt>
            <trkpt lat="41.683591" lon="2.092637">
                <ele>583.180000</ele>
                <time>2010-11-14T10:20:26.000+01:00</time>
            </trkpt>
            <trkpt lat="41.683588" lon="2.092558">
                <ele>582.700000</ele>
                <time>2010-11-14T10:20:23.000+01:00</time>
            </trkpt>
            <trkpt lat="41.683532" lon="2.092446">
                <ele>581.730000</ele>
                <time>2010-11-14T10:20:16.000+01:00</time>
            </trkpt>
            <trkpt lat="41.683502" lon="2.092320">
                <ele>581.730000</ele>
                <time>2010-11-14T10:20:12.000+01:00</time>
            </trkpt>
            <trkpt lat="41.683393" lon="2.092180">
                <ele>580.290000</ele>
                <time>2010-11-14T10:20:06.000+01:00</time>
            </trkpt>
            <trkpt lat="41.683298" lon="2.092034">
                <ele>578.850000</ele>
                <time>2010-11-14T10:19:57.000+01:00</time>
            </trkpt>
            <trkpt lat="41.683307" lon="2.091975">
                <ele>578.370000</ele>
                <time>2010-11-14T10:19:53.000+01:00</time>
            </trkpt>
            <trkpt lat="41.683306" lon="2.091953">
                <ele>578.370000</ele>
                <time>2010-11-14T10:19:52.000+01:00</time>
            </trkpt>
            <trkpt lat="41.683275" lon="2.091895">
                <ele>578.370000</ele>
                <time>2010-11-14T10:19:45.000+01:00</time>
            </trkpt>
            <trkpt lat="41.683203" lon="2.091901">
                <ele>577.890000</ele>
                <time>2010-11-14T10:19:36.000+01:00</time>
            </trkpt>
            <trkpt lat="41.683144" lon="2.091855">
                <ele>577.410000</ele>
                <time>2010-11-14T10:17:05.000+01:00</time>
            </trkpt>
            <trkpt lat="41.683139" lon="2.091853">
                <ele>576.450000</ele>
                <time>2010-11-14T10:16:43.000+01:00</time>
            </trkpt>
            <trkpt lat="41.683107" lon="2.091852">
                <ele>575.490000</ele>
                <time>2010-11-14T10:16:33.000+01:00</time>
            </trkpt>
            <trkpt lat="41.683084" lon="2.091821">
                <ele>574.040000</ele>
                <time>2010-11-14T10:16:25.000+01:00</time>
            </trkpt>
            <trkpt lat="41.682995" lon="2.091789">
                <ele>572.600000</ele>
                <time>2010-11-14T10:16:16.000+01:00</time>
            </trkpt>
            <trkpt lat="41.682986" lon="2.091790">
                <ele>572.120000</ele>
                <time>2010-11-14T10:16:04.000+01:00</time>
            </trkpt>
            <trkpt lat="41.682969" lon="2.091744">
                <ele>572.120000</ele>
                <time>2010-11-14T10:15:52.000+01:00</time>
            </trkpt>
            <trkpt lat="41.682941" lon="2.091771">
                <ele>572.120000</ele>
                <time>2010-11-14T10:15:41.000+01:00</time>
            </trkpt>
            <trkpt lat="41.682853" lon="2.091746">
                <ele>571.640000</ele>
                <time>2010-11-14T10:15:35.000+01:00</time>
            </trkpt>
            <trkpt lat="41.682868" lon="2.091731">
                <ele>571.160000</ele>
                <time>2010-11-14T10:15:33.000+01:00</time>
            </trkpt>
            <trkpt lat="41.682819" lon="2.091735">
                <ele>568.760000</ele>
                <time>2010-11-14T10:15:08.000+01:00</time>
            </trkpt>
            <trkpt lat="41.682807" lon="2.091712">
                <ele>568.760000</ele>
                <time>2010-11-14T10:15:00.000+01:00</time>
            </trkpt>
            <trkpt lat="41.682750" lon="2.091705">
                <ele>568.280000</ele>
                <time>2010-11-14T10:14:52.000+01:00</time>
            </trkpt>
            <trkpt lat="41.682735" lon="2.091695">
                <ele>568.280000</ele>
                <time>2010-11-14T10:14:45.000+01:00</time>
            </trkpt>
            <trkpt lat="41.682740" lon="2.091711">
                <ele>568.280000</ele>
                <time>2010-11-14T10:14:37.000+01:00</time>
            </trkpt>
            <trkpt lat="41.682729" lon="2.091739">
                <ele>568.280000</ele>
                <time>2010-11-14T10:14:31.000+01:00</time>
            </trkpt>
            <trkpt lat="41.682717" lon="2.091689">
                <ele>567.800000</ele>
                <time>2010-11-14T10:14:26.000+01:00</time>
            </trkpt>
            <trkpt lat="41.682690" lon="2.091664">
                <ele>566.830000</ele>
                <time>2010-11-14T10:14:23.000+01:00</time>
            </trkpt>
            <trkpt lat="41.682681" lon="2.091657">
                <ele>566.830000</ele>
                <time>2010-11-14T10:14:22.000+01:00</time>
            </trkpt>
            <trkpt lat="41.682628" lon="2.091562">
                <ele>565.390000</ele>
                <time>2010-11-14T10:14:18.000+01:00</time>
            </trkpt>
            <trkpt lat="41.682558" lon="2.091479">
                <ele>565.390000</ele>
                <time>2010-11-14T10:14:14.000+01:00</time>
            </trkpt>
            <trkpt lat="41.682471" lon="2.091394">
                <ele>563.950000</ele>
                <time>2010-11-14T10:14:06.000+01:00</time>
            </trkpt>
            <trkpt lat="41.682373" lon="2.091276">
                <ele>564.430000</ele>
                <time>2010-11-14T10:14:01.000+01:00</time>
            </trkpt>
            <trkpt lat="41.682348" lon="2.091253">
                <ele>563.950000</ele>
                <time>2010-11-14T10:13:59.000+01:00</time>
            </trkpt>
            <trkpt lat="41.682338" lon="2.091221">
                <ele>564.430000</ele>
                <time>2010-11-14T10:13:56.000+01:00</time>
            </trkpt>
            <trkpt lat="41.682343" lon="2.091271">
                <ele>563.470000</ele>
                <time>2010-11-14T10:13:39.000+01:00</time>
            </trkpt>
            <trkpt lat="41.682346" lon="2.091249">
                <ele>563.470000</ele>
                <time>2010-11-14T10:13:29.000+01:00</time>
            </trkpt>
            <trkpt lat="41.682359" lon="2.091215">
                <ele>563.470000</ele>
                <time>2010-11-14T10:13:19.000+01:00</time>
            </trkpt>
            <trkpt lat="41.682289" lon="2.091230">
                <ele>562.990000</ele>
                <time>2010-11-14T10:13:08.000+01:00</time>
            </trkpt>
            <trkpt lat="41.682203" lon="2.091065">
                <ele>562.030000</ele>
                <time>2010-11-14T10:13:00.000+01:00</time>
            </trkpt>
            <trkpt lat="41.682197" lon="2.091031">
                <ele>562.030000</ele>
                <time>2010-11-14T10:12:59.000+01:00</time>
            </trkpt>
            <trkpt lat="41.682139" lon="2.090908">
                <ele>561.070000</ele>
                <time>2010-11-14T10:12:53.000+01:00</time>
            </trkpt>
            <trkpt lat="41.682115" lon="2.090883">
                <ele>561.550000</ele>
                <time>2010-11-14T10:12:51.000+01:00</time>
            </trkpt>
            <trkpt lat="41.682065" lon="2.090792">
                <ele>561.070000</ele>
                <time>2010-11-14T10:12:47.000+01:00</time>
            </trkpt>
            <trkpt lat="41.682039" lon="2.090705">
                <ele>560.590000</ele>
                <time>2010-11-14T10:12:44.000+01:00</time>
            </trkpt>
            <trkpt lat="41.681989" lon="2.090665">
                <ele>560.110000</ele>
                <time>2010-11-14T10:12:41.000+01:00</time>
            </trkpt>
            <trkpt lat="41.681914" lon="2.090557">
                <ele>559.620000</ele>
                <time>2010-11-14T10:12:36.000+01:00</time>
            </trkpt>
            <trkpt lat="41.681889" lon="2.090446">
                <ele>559.140000</ele>
                <time>2010-11-14T10:12:32.000+01:00</time>
            </trkpt>
            <trkpt lat="41.681846" lon="2.090363">
                <ele>558.660000</ele>
                <time>2010-11-14T10:12:28.000+01:00</time>
            </trkpt>
            <trkpt lat="41.681818" lon="2.090236">
                <ele>557.700000</ele>
                <time>2010-11-14T10:12:24.000+01:00</time>
            </trkpt>
            <trkpt lat="41.681687" lon="2.090011">
                <ele>556.260000</ele>
                <time>2010-11-14T10:12:15.000+01:00</time>
            </trkpt>
            <trkpt lat="41.681635" lon="2.089844">
                <ele>556.260000</ele>
                <time>2010-11-14T10:12:10.000+01:00</time>
            </trkpt>
            <trkpt lat="41.681525" lon="2.089596">
                <ele>555.300000</ele>
                <time>2010-11-14T10:12:01.000+01:00</time>
            </trkpt>
            <trkpt lat="41.681507" lon="2.089438">
                <ele>554.340000</ele>
                <time>2010-11-14T10:11:55.000+01:00</time>
            </trkpt>
            <trkpt lat="41.681435" lon="2.089305">
                <ele>554.340000</ele>
                <time>2010-11-14T10:11:47.000+01:00</time>
            </trkpt>
            <trkpt lat="41.681452" lon="2.089117">
                <ele>554.340000</ele>
                <time>2010-11-14T10:11:42.000+01:00</time>
            </trkpt>
            <trkpt lat="41.681468" lon="2.088975">
                <ele>553.860000</ele>
                <time>2010-11-14T10:11:37.000+01:00</time>
            </trkpt>
            <trkpt lat="41.681423" lon="2.088852">
                <ele>553.380000</ele>
                <time>2010-11-14T10:11:31.000+01:00</time>
            </trkpt>
            <trkpt lat="41.681371" lon="2.088753">
                <ele>552.410000</ele>
                <time>2010-11-14T10:11:25.000+01:00</time>
            </trkpt>
            <trkpt lat="41.681375" lon="2.088623">
                <ele>550.970000</ele>
                <time>2010-11-14T10:11:19.000+01:00</time>
            </trkpt>
            <trkpt lat="41.681327" lon="2.088471">
                <ele>549.050000</ele>
                <time>2010-11-14T10:11:12.000+01:00</time>
            </trkpt>
            <trkpt lat="41.681295" lon="2.088423">
                <ele>548.570000</ele>
                <time>2010-11-14T10:11:09.000+01:00</time>
            </trkpt>
            <trkpt lat="41.681229" lon="2.088309">
                <ele>547.610000</ele>
                <time>2010-11-14T10:11:03.000+01:00</time>
            </trkpt>
            <trkpt lat="41.681193" lon="2.088219">
                <ele>546.170000</ele>
                <time>2010-11-14T10:10:58.000+01:00</time>
            </trkpt>
            <trkpt lat="41.681189" lon="2.088077">
                <ele>544.720000</ele>
                <time>2010-11-14T10:10:52.000+01:00</time>
            </trkpt>
            <trkpt lat="41.681173" lon="2.088017">
                <ele>544.240000</ele>
                <time>2010-11-14T10:10:49.000+01:00</time>
            </trkpt>
            <trkpt lat="41.681154" lon="2.087736">
                <ele>543.760000</ele>
                <time>2010-11-14T10:10:40.000+01:00</time>
            </trkpt>
            <trkpt lat="41.681121" lon="2.087534">
                <ele>543.760000</ele>
                <time>2010-11-14T10:10:35.000+01:00</time>
            </trkpt>
            <trkpt lat="41.681087" lon="2.087345">
                <ele>542.800000</ele>
                <time>2010-11-14T10:10:28.000+01:00</time>
            </trkpt>
            <trkpt lat="41.681109" lon="2.087155">
                <ele>541.840000</ele>
                <time>2010-11-14T10:10:21.000+01:00</time>
            </trkpt>
            <trkpt lat="41.681073" lon="2.087008">
                <ele>540.400000</ele>
                <time>2010-11-14T10:10:14.000+01:00</time>
            </trkpt>
            <trkpt lat="41.681052" lon="2.086941">
                <ele>539.440000</ele>
                <time>2010-11-14T10:10:11.000+01:00</time>
            </trkpt>
            <trkpt lat="41.681003" lon="2.086708">
                <ele>538.960000</ele>
                <time>2010-11-14T10:10:05.000+01:00</time>
            </trkpt>
            <trkpt lat="41.680959" lon="2.086485">
                <ele>538.960000</ele>
                <time>2010-11-14T10:09:59.000+01:00</time>
            </trkpt>
            <trkpt lat="41.680940" lon="2.086473">
                <ele>538.480000</ele>
                <time>2010-11-14T10:09:58.000+01:00</time>
            </trkpt>
            <trkpt lat="41.680873" lon="2.086295">
                <ele>538.480000</ele>
                <time>2010-11-14T10:09:53.000+01:00</time>
            </trkpt>
            <trkpt lat="41.680808" lon="2.086212">
                <ele>537.510000</ele>
                <time>2010-11-14T10:09:48.000+01:00</time>
            </trkpt>
            <trkpt lat="41.680748" lon="2.086112">
                <ele>536.550000</ele>
                <time>2010-11-14T10:09:44.000+01:00</time>
            </trkpt>
            <trkpt lat="41.680735" lon="2.086059">
                <ele>536.550000</ele>
                <time>2010-11-14T10:09:42.000+01:00</time>
            </trkpt>
            <trkpt lat="41.680658" lon="2.085759">
                <ele>536.070000</ele>
                <time>2010-11-14T10:09:33.000+01:00</time>
            </trkpt>
            <trkpt lat="41.680664" lon="2.085728">
                <ele>536.070000</ele>
                <time>2010-11-14T10:09:32.000+01:00</time>
            </trkpt>
            <trkpt lat="41.680643" lon="2.085474">
                <ele>535.590000</ele>
                <time>2010-11-14T10:09:27.000+01:00</time>
            </trkpt>
            <trkpt lat="41.680607" lon="2.085168">
                <ele>534.630000</ele>
                <time>2010-11-14T10:09:20.000+01:00</time>
            </trkpt>
            <trkpt lat="41.680591" lon="2.085114">
                <ele>535.110000</ele>
                <time>2010-11-14T10:09:19.000+01:00</time>
            </trkpt>
            <trkpt lat="41.680625" lon="2.084965">
                <ele>536.550000</ele>
                <time>2010-11-14T10:09:14.000+01:00</time>
            </trkpt>
            <trkpt lat="41.680614" lon="2.084888">
                <ele>536.550000</ele>
                <time>2010-11-14T10:09:09.000+01:00</time>
            </trkpt>
            <trkpt lat="41.680628" lon="2.084729">
                <ele>537.990000</ele>
                <time>2010-11-14T10:09:05.000+01:00</time>
            </trkpt>
            <trkpt lat="41.680608" lon="2.084544">
                <ele>537.510000</ele>
                <time>2010-11-14T10:08:57.000+01:00</time>
            </trkpt>
            <trkpt lat="41.680601" lon="2.084467">
                <ele>537.990000</ele>
                <time>2010-11-14T10:08:55.000+01:00</time>
            </trkpt>
            <trkpt lat="41.680635" lon="2.084257">
                <ele>537.990000</ele>
                <time>2010-11-14T10:08:49.000+01:00</time>
            </trkpt>
            <trkpt lat="41.680595" lon="2.084021">
                <ele>537.510000</ele>
                <time>2010-11-14T10:08:42.000+01:00</time>
            </trkpt>
            <trkpt lat="41.680521" lon="2.083804">
                <ele>537.030000</ele>
                <time>2010-11-14T10:08:36.000+01:00</time>
            </trkpt>
            <trkpt lat="41.680547" lon="2.083617">
                <ele>536.070000</ele>
                <time>2010-11-14T10:08:30.000+01:00</time>
            </trkpt>
            <trkpt lat="41.680611" lon="2.083452">
                <ele>535.590000</ele>
                <time>2010-11-14T10:08:24.000+01:00</time>
            </trkpt>
            <trkpt lat="41.680654" lon="2.083309">
                <ele>534.630000</ele>
                <time>2010-11-14T10:08:18.000+01:00</time>
            </trkpt>
            <trkpt lat="41.680698" lon="2.083064">
                <ele>534.150000</ele>
                <time>2010-11-14T10:08:11.000+01:00</time>
            </trkpt>
            <trkpt lat="41.680736" lon="2.082819">
                <ele>533.190000</ele>
                <time>2010-11-14T10:08:04.000+01:00</time>
            </trkpt>
            <trkpt lat="41.680742" lon="2.082692">
                <ele>531.750000</ele>
                <time>2010-11-14T10:08:01.000+01:00</time>
            </trkpt>
            <trkpt lat="41.680734" lon="2.082495">
                <ele>530.790000</ele>
                <time>2010-11-14T10:07:54.000+01:00</time>
            </trkpt>
            <trkpt lat="41.680663" lon="2.082332">
                <ele>530.300000</ele>
                <time>2010-11-14T10:07:48.000+01:00</time>
            </trkpt>
            <trkpt lat="41.680655" lon="2.082156">
                <ele>529.340000</ele>
                <time>2010-11-14T10:07:41.000+01:00</time>
            </trkpt>
            <trkpt lat="41.680618" lon="2.082108">
                <ele>529.340000</ele>
                <time>2010-11-14T10:07:38.000+01:00</time>
            </trkpt>
            <trkpt lat="41.680485" lon="2.082007">
                <ele>527.900000</ele>
                <time>2010-11-14T10:07:29.000+01:00</time>
            </trkpt>
            <trkpt lat="41.680414" lon="2.081840">
                <ele>526.460000</ele>
                <time>2010-11-14T10:07:24.000+01:00</time>
            </trkpt>
            <trkpt lat="41.680420" lon="2.081757">
                <ele>525.500000</ele>
                <time>2010-11-14T10:07:21.000+01:00</time>
            </trkpt>
            <trkpt lat="41.680435" lon="2.081667">
                <ele>524.060000</ele>
                <time>2010-11-14T10:07:19.000+01:00</time>
            </trkpt>
            <trkpt lat="41.680459" lon="2.081425">
                <ele>523.090000</ele>
                <time>2010-11-14T10:07:15.000+01:00</time>
            </trkpt>
            <trkpt lat="41.680456" lon="2.081346">
                <ele>523.090000</ele>
                <time>2010-11-14T10:07:14.000+01:00</time>
            </trkpt>
            <trkpt lat="41.680426" lon="2.081158">
                <ele>522.610000</ele>
                <time>2010-11-14T10:07:09.000+01:00</time>
            </trkpt>
            <trkpt lat="41.680388" lon="2.081041">
                <ele>522.610000</ele>
                <time>2010-11-14T10:07:05.000+01:00</time>
            </trkpt>
            <trkpt lat="41.680383" lon="2.080945">
                <ele>524.540000</ele>
                <time>2010-11-14T10:07:00.000+01:00</time>
            </trkpt>
            <trkpt lat="41.680395" lon="2.080893">
                <ele>526.460000</ele>
                <time>2010-11-14T10:06:54.000+01:00</time>
            </trkpt>
            <trkpt lat="41.680403" lon="2.080864">
                <ele>526.460000</ele>
                <time>2010-11-14T10:06:52.000+01:00</time>
            </trkpt>
            <trkpt lat="41.680355" lon="2.080725">
                <ele>526.460000</ele>
                <time>2010-11-14T10:06:44.000+01:00</time>
            </trkpt>
            <trkpt lat="41.680329" lon="2.080687">
                <ele>526.940000</ele>
                <time>2010-11-14T10:06:31.000+01:00</time>
            </trkpt>
            <trkpt lat="41.680312" lon="2.080651">
                <ele>526.940000</ele>
                <time>2010-11-14T10:06:24.000+01:00</time>
            </trkpt>
            <trkpt lat="41.680296" lon="2.080610">
                <ele>526.460000</ele>
                <time>2010-11-14T10:06:22.000+01:00</time>
            </trkpt>
            <trkpt lat="41.680251" lon="2.080536">
                <ele>525.980000</ele>
                <time>2010-11-14T10:06:18.000+01:00</time>
            </trkpt>
            <trkpt lat="41.680240" lon="2.080525">
                <ele>525.980000</ele>
                <time>2010-11-14T10:06:17.000+01:00</time>
            </trkpt>
            <trkpt lat="41.680213" lon="2.080443">
                <ele>525.020000</ele>
                <time>2010-11-14T10:06:10.000+01:00</time>
            </trkpt>
            <trkpt lat="41.680170" lon="2.080221">
                <ele>524.060000</ele>
                <time>2010-11-14T10:06:00.000+01:00</time>
            </trkpt>
            <trkpt lat="41.680174" lon="2.080030">
                <ele>522.130000</ele>
                <time>2010-11-14T10:05:50.000+01:00</time>
            </trkpt>
            <trkpt lat="41.680175" lon="2.079874">
                <ele>520.690000</ele>
                <time>2010-11-14T10:05:42.000+01:00</time>
            </trkpt>
            <trkpt lat="41.680199" lon="2.079793">
                <ele>520.690000</ele>
                <time>2010-11-14T10:05:37.000+01:00</time>
            </trkpt>
            <trkpt lat="41.680207" lon="2.079687">
                <ele>520.210000</ele>
                <time>2010-11-14T10:05:27.000+01:00</time>
            </trkpt>
            <trkpt lat="41.680251" lon="2.079596">
                <ele>519.250000</ele>
                <time>2010-11-14T10:05:21.000+01:00</time>
            </trkpt>
            <trkpt lat="41.680285" lon="2.079462">
                <ele>518.770000</ele>
                <time>2010-11-14T10:05:14.000+01:00</time>
            </trkpt>
            <trkpt lat="41.680303" lon="2.079437">
                <ele>518.770000</ele>
                <time>2010-11-14T10:05:12.000+01:00</time>
            </trkpt>
            <trkpt lat="41.680424" lon="2.079331">
                <ele>518.290000</ele>
                <time>2010-11-14T10:05:05.000+01:00</time>
            </trkpt>
            <trkpt lat="41.680547" lon="2.079266">
                <ele>518.770000</ele>
                <time>2010-11-14T10:04:58.000+01:00</time>
            </trkpt>
            <trkpt lat="41.680564" lon="2.079264">
                <ele>519.250000</ele>
                <time>2010-11-14T10:04:56.000+01:00</time>
            </trkpt>
            <trkpt lat="41.680660" lon="2.079254">
                <ele>519.250000</ele>
                <time>2010-11-14T10:04:51.000+01:00</time>
            </trkpt>
            <trkpt lat="41.680769" lon="2.079230">
                <ele>521.170000</ele>
                <time>2010-11-14T10:04:45.000+01:00</time>
            </trkpt>
            <trkpt lat="41.680755" lon="2.079240">
                <ele>521.650000</ele>
                <time>2010-11-14T10:04:39.000+01:00</time>
            </trkpt>
            <trkpt lat="41.680811" lon="2.079222">
                <ele>521.650000</ele>
                <time>2010-11-14T10:04:29.000+01:00</time>
            </trkpt>
            <trkpt lat="41.680847" lon="2.079179">
                <ele>522.130000</ele>
                <time>2010-11-14T10:04:21.000+01:00</time>
            </trkpt>
            <trkpt lat="41.680883" lon="2.079051">
                <ele>522.130000</ele>
                <time>2010-11-14T10:04:11.000+01:00</time>
            </trkpt>
            <trkpt lat="41.680879" lon="2.078944">
                <ele>521.650000</ele>
                <time>2010-11-14T10:04:07.000+01:00</time>
            </trkpt>
            <trkpt lat="41.680818" lon="2.078787">
                <ele>520.690000</ele>
                <time>2010-11-14T10:04:01.000+01:00</time>
            </trkpt>
            <trkpt lat="41.680798" lon="2.078614">
                <ele>519.250000</ele>
                <time>2010-11-14T10:03:55.000+01:00</time>
            </trkpt>
            <trkpt lat="41.680818" lon="2.078438">
                <ele>518.290000</ele>
                <time>2010-11-14T10:03:49.000+01:00</time>
            </trkpt>
            <trkpt lat="41.680800" lon="2.078221">
                <ele>516.850000</ele>
                <time>2010-11-14T10:03:41.000+01:00</time>
            </trkpt>
            <trkpt lat="41.680695" lon="2.077940">
                <ele>515.400000</ele>
                <time>2010-11-14T10:03:31.000+01:00</time>
            </trkpt>
            <trkpt lat="41.680565" lon="2.077567">
                <ele>512.520000</ele>
                <time>2010-11-14T10:03:18.000+01:00</time>
            </trkpt>
            <trkpt lat="41.680455" lon="2.077232">
                <ele>511.080000</ele>
                <time>2010-11-14T10:03:07.000+01:00</time>
            </trkpt>
            <trkpt lat="41.680343" lon="2.076944">
                <ele>509.160000</ele>
                <time>2010-11-14T10:02:56.000+01:00</time>
            </trkpt>
            <trkpt lat="41.680265" lon="2.076680">
                <ele>506.750000</ele>
                <time>2010-11-14T10:02:46.000+01:00</time>
            </trkpt>
            <trkpt lat="41.680165" lon="2.076515">
                <ele>505.310000</ele>
                <time>2010-11-14T10:02:39.000+01:00</time>
            </trkpt>
            <trkpt lat="41.680120" lon="2.076288">
                <ele>503.390000</ele>
                <time>2010-11-14T10:02:31.000+01:00</time>
            </trkpt>
            <trkpt lat="41.680078" lon="2.076123">
                <ele>501.460000</ele>
                <time>2010-11-14T10:02:24.000+01:00</time>
            </trkpt>
            <trkpt lat="41.679910" lon="2.075860">
                <ele>499.060000</ele>
                <time>2010-11-14T10:02:14.000+01:00</time>
            </trkpt>
            <trkpt lat="41.679688" lon="2.075649">
                <ele>497.140000</ele>
                <time>2010-11-14T10:02:04.000+01:00</time>
            </trkpt>
            <trkpt lat="41.679680" lon="2.075617">
                <ele>496.660000</ele>
                <time>2010-11-14T10:02:03.000+01:00</time>
            </trkpt>
            <trkpt lat="41.679679" lon="2.075493">
                <ele>496.660000</ele>
                <time>2010-11-14T10:01:58.000+01:00</time>
            </trkpt>
            <trkpt lat="41.679655" lon="2.075339">
                <ele>497.140000</ele>
                <time>2010-11-14T10:01:52.000+01:00</time>
            </trkpt>
            <trkpt lat="41.679615" lon="2.075130">
                <ele>498.100000</ele>
                <time>2010-11-14T10:01:46.000+01:00</time>
            </trkpt>
            <trkpt lat="41.679546" lon="2.074881">
                <ele>497.620000</ele>
                <time>2010-11-14T10:01:39.000+01:00</time>
            </trkpt>
            <trkpt lat="41.679539" lon="2.074841">
                <ele>497.620000</ele>
                <time>2010-11-14T10:01:37.000+01:00</time>
            </trkpt>
            <trkpt lat="41.679528" lon="2.074633">
                <ele>497.140000</ele>
                <time>2010-11-14T10:01:30.000+01:00</time>
            </trkpt>
            <trkpt lat="41.679512" lon="2.074537">
                <ele>496.180000</ele>
                <time>2010-11-14T10:01:24.000+01:00</time>
            </trkpt>
            <trkpt lat="41.679476" lon="2.074478">
                <ele>496.180000</ele>
                <time>2010-11-14T10:01:19.000+01:00</time>
            </trkpt>
            <trkpt lat="41.679532" lon="2.074401">
                <ele>496.180000</ele>
                <time>2010-11-14T10:01:14.000+01:00</time>
            </trkpt>
            <trkpt lat="41.679557" lon="2.074318">
                <ele>496.180000</ele>
                <time>2010-11-14T10:01:11.000+01:00</time>
            </trkpt>
            <trkpt lat="41.679532" lon="2.074138">
                <ele>496.660000</ele>
                <time>2010-11-14T10:01:05.000+01:00</time>
            </trkpt>
            <trkpt lat="41.679530" lon="2.073936">
                <ele>495.700000</ele>
                <time>2010-11-14T10:00:58.000+01:00</time>
            </trkpt>
            <trkpt lat="41.679550" lon="2.073852">
                <ele>495.220000</ele>
                <time>2010-11-14T10:00:52.000+01:00</time>
            </trkpt>
            <trkpt lat="41.679580" lon="2.073806">
                <ele>495.220000</ele>
                <time>2010-11-14T10:00:44.000+01:00</time>
            </trkpt>
            <trkpt lat="41.679632" lon="2.073690">
                <ele>495.220000</ele>
                <time>2010-11-14T10:00:37.000+01:00</time>
            </trkpt>
            <trkpt lat="41.679662" lon="2.073611">
                <ele>494.740000</ele>
                <time>2010-11-14T10:00:23.000+01:00</time>
            </trkpt>
            <trkpt lat="41.679656" lon="2.073568">
                <ele>494.740000</ele>
                <time>2010-11-14T10:00:12.000+01:00</time>
            </trkpt>
            <trkpt lat="41.679678" lon="2.073508">
                <ele>494.740000</ele>
                <time>2010-11-14T10:00:05.000+01:00</time>
            </trkpt>
            <trkpt lat="41.679688" lon="2.073409">
                <ele>494.260000</ele>
                <time>2010-11-14T09:59:57.000+01:00</time>
            </trkpt>
            <trkpt lat="41.679752" lon="2.073343">
                <ele>494.260000</ele>
                <time>2010-11-14T09:59:48.000+01:00</time>
            </trkpt>
            <trkpt lat="41.679766" lon="2.073305">
                <ele>494.260000</ele>
                <time>2010-11-14T09:59:46.000+01:00</time>
            </trkpt>
            <trkpt lat="41.679783" lon="2.073255">
                <ele>494.260000</ele>
                <time>2010-11-14T09:59:44.000+01:00</time>
            </trkpt>
            <trkpt lat="41.679834" lon="2.073066">
                <ele>492.810000</ele>
                <time>2010-11-14T09:59:40.000+01:00</time>
            </trkpt>
            <trkpt lat="41.679763" lon="2.072709">
                <ele>494.740000</ele>
                <time>2010-11-14T09:59:36.000+01:00</time>
            </trkpt>
            <trkpt lat="41.679746" lon="2.072309">
                <ele>497.140000</ele>
                <time>2010-11-14T09:59:32.000+01:00</time>
            </trkpt>
            <trkpt lat="41.679868" lon="2.071906">
                <ele>500.980000</ele>
                <time>2010-11-14T09:59:27.000+01:00</time>
            </trkpt>
            <trkpt lat="41.679899" lon="2.071832">
                <ele>501.460000</ele>
                <time>2010-11-14T09:59:26.000+01:00</time>
            </trkpt>
            <trkpt lat="41.679994" lon="2.071589">
                <ele>502.910000</ele>
                <time>2010-11-14T09:59:20.000+01:00</time>
            </trkpt>
            <trkpt lat="41.680076" lon="2.071380">
                <ele>501.950000</ele>
                <time>2010-11-14T09:59:14.000+01:00</time>
            </trkpt>
            <trkpt lat="41.680224" lon="2.071192">
                <ele>501.950000</ele>
                <time>2010-11-14T09:59:08.000+01:00</time>
            </trkpt>
            <trkpt lat="41.680386" lon="2.071058">
                <ele>500.980000</ele>
                <time>2010-11-14T09:59:03.000+01:00</time>
            </trkpt>
            <trkpt lat="41.680360" lon="2.070755">
                <ele>500.980000</ele>
                <time>2010-11-14T09:58:58.000+01:00</time>
            </trkpt>
            <trkpt lat="41.680328" lon="2.070698">
                <ele>501.460000</ele>
                <time>2010-11-14T09:58:57.000+01:00</time>
            </trkpt>
            <trkpt lat="41.680167" lon="2.070119">
                <ele>503.870000</ele>
                <time>2010-11-14T09:58:48.000+01:00</time>
            </trkpt>
            <trkpt lat="41.680136" lon="2.069731">
                <ele>504.830000</ele>
                <time>2010-11-14T09:58:42.000+01:00</time>
            </trkpt>
            <trkpt lat="41.680113" lon="2.069589">
                <ele>506.270000</ele>
                <time>2010-11-14T09:58:37.000+01:00</time>
            </trkpt>
            <trkpt lat="41.680065" lon="2.069628">
                <ele>505.790000</ele>
                <time>2010-11-14T09:58:33.000+01:00</time>
            </trkpt>
            <trkpt lat="41.679855" lon="2.069795">
                <ele>504.350000</ele>
                <time>2010-11-14T09:58:22.000+01:00</time>
            </trkpt>
            <trkpt lat="41.679752" lon="2.069831">
                <ele>502.430000</ele>
                <time>2010-11-14T09:58:15.000+01:00</time>
            </trkpt>
            <trkpt lat="41.679622" lon="2.069782">
                <ele>501.950000</ele>
                <time>2010-11-14T09:58:08.000+01:00</time>
            </trkpt>
            <trkpt lat="41.679467" lon="2.069683">
                <ele>500.980000</ele>
                <time>2010-11-14T09:57:59.000+01:00</time>
            </trkpt>
            <trkpt lat="41.679398" lon="2.069644">
                <ele>500.980000</ele>
                <time>2010-11-14T09:57:54.000+01:00</time>
            </trkpt>
            <trkpt lat="41.679220" lon="2.069562">
                <ele>499.060000</ele>
                <time>2010-11-14T09:57:44.000+01:00</time>
            </trkpt>
            <trkpt lat="41.679056" lon="2.069478">
                <ele>497.620000</ele>
                <time>2010-11-14T09:57:36.000+01:00</time>
            </trkpt>
            <trkpt lat="41.678947" lon="2.069374">
                <ele>495.700000</ele>
                <time>2010-11-14T09:57:29.000+01:00</time>
            </trkpt>
            <trkpt lat="41.678922" lon="2.069341">
                <ele>494.740000</ele>
                <time>2010-11-14T09:57:27.000+01:00</time>
            </trkpt>
            <trkpt lat="41.678797" lon="2.069348">
                <ele>492.810000</ele>
                <time>2010-11-14T09:57:19.000+01:00</time>
            </trkpt>
            <trkpt lat="41.678666" lon="2.069369">
                <ele>489.930000</ele>
                <time>2010-11-14T09:57:11.000+01:00</time>
            </trkpt>
            <trkpt lat="41.678557" lon="2.069411">
                <ele>488.490000</ele>
                <time>2010-11-14T09:57:03.000+01:00</time>
            </trkpt>
            <trkpt lat="41.678426" lon="2.069435">
                <ele>486.560000</ele>
                <time>2010-11-14T09:56:56.000+01:00</time>
            </trkpt>
            <trkpt lat="41.678281" lon="2.069347">
                <ele>485.120000</ele>
                <time>2010-11-14T09:56:48.000+01:00</time>
            </trkpt>
            <trkpt lat="41.678096" lon="2.069166">
                <ele>483.680000</ele>
                <time>2010-11-14T09:56:40.000+01:00</time>
            </trkpt>
            <trkpt lat="41.678016" lon="2.069004">
                <ele>483.680000</ele>
                <time>2010-11-14T09:56:35.000+01:00</time>
            </trkpt>
            <trkpt lat="41.677854" lon="2.068967">
                <ele>482.240000</ele>
                <time>2010-11-14T09:56:29.000+01:00</time>
            </trkpt>
            <trkpt lat="41.677767" lon="2.068804">
                <ele>481.760000</ele>
                <time>2010-11-14T09:56:23.000+01:00</time>
            </trkpt>
            <trkpt lat="41.677730" lon="2.068602">
                <ele>481.760000</ele>
                <time>2010-11-14T09:56:17.000+01:00</time>
            </trkpt>
            <trkpt lat="41.677695" lon="2.068351">
                <ele>481.280000</ele>
                <time>2010-11-14T09:56:10.000+01:00</time>
            </trkpt>
            <trkpt lat="41.677788" lon="2.068133">
                <ele>481.280000</ele>
                <time>2010-11-14T09:56:04.000+01:00</time>
            </trkpt>
            <trkpt lat="41.678008" lon="2.067829">
                <ele>480.800000</ele>
                <time>2010-11-14T09:55:53.000+01:00</time>
            </trkpt>
            <trkpt lat="41.678085" lon="2.067784">
                <ele>479.840000</ele>
                <time>2010-11-14T09:55:49.000+01:00</time>
            </trkpt>
            <trkpt lat="41.678054" lon="2.067656">
                <ele>479.350000</ele>
                <time>2010-11-14T09:55:44.000+01:00</time>
            </trkpt>
            <trkpt lat="41.677906" lon="2.067422">
                <ele>476.950000</ele>
                <time>2010-11-14T09:55:36.000+01:00</time>
            </trkpt>
            <trkpt lat="41.677749" lon="2.067131">
                <ele>475.990000</ele>
                <time>2010-11-14T09:55:29.000+01:00</time>
            </trkpt>
            <trkpt lat="41.677635" lon="2.066788">
                <ele>475.510000</ele>
                <time>2010-11-14T09:55:22.000+01:00</time>
            </trkpt>
            <trkpt lat="41.677546" lon="2.066460">
                <ele>475.990000</ele>
                <time>2010-11-14T09:55:15.000+01:00</time>
            </trkpt>
            <trkpt lat="41.677582" lon="2.066090">
                <ele>475.510000</ele>
                <time>2010-11-14T09:55:08.000+01:00</time>
            </trkpt>
            <trkpt lat="41.677586" lon="2.065751">
                <ele>475.510000</ele>
                <time>2010-11-14T09:55:03.000+01:00</time>
            </trkpt>
            <trkpt lat="41.677588" lon="2.065489">
                <ele>476.950000</ele>
                <time>2010-11-14T09:54:59.000+01:00</time>
            </trkpt>
            <trkpt lat="41.677515" lon="2.065324">
                <ele>476.470000</ele>
                <time>2010-11-14T09:54:53.000+01:00</time>
            </trkpt>
            <trkpt lat="41.677445" lon="2.065081">
                <ele>476.950000</ele>
                <time>2010-11-14T09:54:45.000+01:00</time>
            </trkpt>
            <trkpt lat="41.677369" lon="2.064838">
                <ele>476.470000</ele>
                <time>2010-11-14T09:54:36.000+01:00</time>
            </trkpt>
            <trkpt lat="41.677376" lon="2.064635">
                <ele>476.470000</ele>
                <time>2010-11-14T09:54:32.000+01:00</time>
            </trkpt>
            <trkpt lat="41.677489" lon="2.064242">
                <ele>480.800000</ele>
                <time>2010-11-14T09:54:28.000+01:00</time>
            </trkpt>
            <trkpt lat="41.677526" lon="2.063927">
                <ele>484.640000</ele>
                <time>2010-11-14T09:54:24.000+01:00</time>
            </trkpt>
            <trkpt lat="41.677503" lon="2.063687">
                <ele>486.080000</ele>
                <time>2010-11-14T09:54:21.000+01:00</time>
            </trkpt>
            <trkpt lat="41.677355" lon="2.063081">
                <ele>488.970000</ele>
                <time>2010-11-14T09:54:15.000+01:00</time>
            </trkpt>
            <trkpt lat="41.677276" lon="2.062651">
                <ele>492.810000</ele>
                <time>2010-11-14T09:54:10.000+01:00</time>
            </trkpt>
            <trkpt lat="41.677307" lon="2.062483">
                <ele>493.770000</ele>
                <time>2010-11-14T09:54:08.000+01:00</time>
            </trkpt>
            <trkpt lat="41.677397" lon="2.062310">
                <ele>494.740000</ele>
                <time>2010-11-14T09:54:05.000+01:00</time>
            </trkpt>
            <trkpt lat="41.677423" lon="2.062260">
                <ele>495.700000</ele>
                <time>2010-11-14T09:54:04.000+01:00</time>
            </trkpt>
            <trkpt lat="41.677540" lon="2.062006">
                <ele>496.180000</ele>
                <time>2010-11-14T09:53:57.000+01:00</time>
            </trkpt>
            <trkpt lat="41.677604" lon="2.061789">
                <ele>496.180000</ele>
                <time>2010-11-14T09:53:50.000+01:00</time>
            </trkpt>
            <trkpt lat="41.677704" lon="2.061595">
                <ele>496.180000</ele>
                <time>2010-11-14T09:53:42.000+01:00</time>
            </trkpt>
            <trkpt lat="41.677794" lon="2.061413">
                <ele>495.700000</ele>
                <time>2010-11-14T09:53:34.000+01:00</time>
            </trkpt>
            <trkpt lat="41.677846" lon="2.061171">
                <ele>493.770000</ele>
                <time>2010-11-14T09:53:26.000+01:00</time>
            </trkpt>
            <trkpt lat="41.677907" lon="2.061051">
                <ele>493.770000</ele>
                <time>2010-11-14T09:53:22.000+01:00</time>
            </trkpt>
            <trkpt lat="41.678001" lon="2.061048">
                <ele>493.290000</ele>
                <time>2010-11-14T09:53:18.000+01:00</time>
            </trkpt>
            <trkpt lat="41.678108" lon="2.061048">
                <ele>492.810000</ele>
                <time>2010-11-14T09:53:13.000+01:00</time>
            </trkpt>
            <trkpt lat="41.678250" lon="2.061129">
                <ele>491.370000</ele>
                <time>2010-11-14T09:53:05.000+01:00</time>
            </trkpt>
            <trkpt lat="41.678424" lon="2.061136">
                <ele>489.930000</ele>
                <time>2010-11-14T09:52:56.000+01:00</time>
            </trkpt>
            <trkpt lat="41.678484" lon="2.061095">
                <ele>489.930000</ele>
                <time>2010-11-14T09:52:53.000+01:00</time>
            </trkpt>
            <trkpt lat="41.678573" lon="2.060975">
                <ele>488.970000</ele>
                <time>2010-11-14T09:52:47.000+01:00</time>
            </trkpt>
            <trkpt lat="41.678760" lon="2.060819">
                <ele>488.010000</ele>
                <time>2010-11-14T09:52:38.000+01:00</time>
            </trkpt>
            <trkpt lat="41.678952" lon="2.060812">
                <ele>487.530000</ele>
                <time>2010-11-14T09:52:31.000+01:00</time>
            </trkpt>
            <trkpt lat="41.679099" lon="2.060881">
                <ele>486.560000</ele>
                <time>2010-11-14T09:52:24.000+01:00</time>
            </trkpt>
            <trkpt lat="41.679304" lon="2.061009">
                <ele>485.600000</ele>
                <time>2010-11-14T09:52:16.000+01:00</time>
            </trkpt>
            <trkpt lat="41.679432" lon="2.061104">
                <ele>484.640000</ele>
                <time>2010-11-14T09:52:09.000+01:00</time>
            </trkpt>
            <trkpt lat="41.679510" lon="2.061157">
                <ele>484.160000</ele>
                <time>2010-11-14T09:52:05.000+01:00</time>
            </trkpt>
            <trkpt lat="41.679619" lon="2.061225">
                <ele>483.680000</ele>
                <time>2010-11-14T09:51:59.000+01:00</time>
            </trkpt>
            <trkpt lat="41.679810" lon="2.061217">
                <ele>482.720000</ele>
                <time>2010-11-14T09:51:50.000+01:00</time>
            </trkpt>
            <trkpt lat="41.679938" lon="2.061157">
                <ele>481.760000</ele>
                <time>2010-11-14T09:51:42.000+01:00</time>
            </trkpt>
            <trkpt lat="41.679958" lon="2.061093">
                <ele>481.760000</ele>
            </trkpt>
            <trkpt lat="41.679994" lon="2.060865">
                <ele>481.760000</ele>
            </trkpt>
            <trkpt lat="41.680025" lon="2.060642">
                <ele>481.760000</ele>
            </trkpt>
            <trkpt lat="41.680025" lon="2.060636">
                <ele>481.760000</ele>
            </trkpt>
            <trkpt lat="41.679855" lon="2.060483">
                <ele>481.760000</ele>
            </trkpt>
            <trkpt lat="41.679554" lon="2.060242">
                <ele>481.760000</ele>
            </trkpt>
            <trkpt lat="41.679423" lon="2.060014">
                <ele>481.760000</ele>
            </trkpt>
            <trkpt lat="41.679423" lon="2.060008">
                <ele>481.760000</ele>
            </trkpt>
            <trkpt lat="41.679284" lon="2.059635">
                <ele>481.760000</ele>
            </trkpt>
            <trkpt lat="41.679284" lon="2.059629">
                <ele>481.760000</ele>
            </trkpt>
            <trkpt lat="41.679019" lon="2.058901">
                <ele>481.760000</ele>
            </trkpt>
            <trkpt lat="41.679019" lon="2.058895">
                <ele>481.760000</ele>
            </trkpt>
            <trkpt lat="41.678916" lon="2.058570">
                <ele>481.760000</ele>
            </trkpt>
            <trkpt lat="41.678683" lon="2.058256">
                <ele>481.760000</ele>
            </trkpt>
            <trkpt lat="41.678549" lon="2.058085">
                <ele>481.760000</ele>
            </trkpt>
            <trkpt lat="41.678385" lon="2.057866">
                <ele>481.760000</ele>
            </trkpt>
            <trkpt lat="41.678317" lon="2.057902">
                <ele>481.760000</ele>
            </trkpt>
            <trkpt lat="41.678130" lon="2.058018">
                <ele>481.760000</ele>
            </trkpt>
            <trkpt lat="41.678051" lon="2.058059">
                <ele>481.760000</ele>
            </trkpt>
            <trkpt lat="41.678005" lon="2.058077">
                <ele>452.308000</ele>
                <time>2010-09-18T12:22:04.000+02:00</time>
            </trkpt>
            <trkpt lat="41.677608" lon="2.058217">
                <ele>452.857000</ele>
                <time>2010-09-18T12:22:16.000+02:00</time>
            </trkpt>
            <trkpt lat="41.677517" lon="2.058241">
                <ele>437.631000</ele>
                <time>2010-09-18T12:22:19.000+02:00</time>
            </trkpt>
            <trkpt lat="41.677493" lon="2.058247">
                <ele>450.077000</ele>
                <time>2010-09-18T12:22:20.000+02:00</time>
            </trkpt>
            <trkpt lat="41.677468" lon="2.058254">
                <ele>456.499000</ele>
                <time>2010-09-18T12:22:21.000+02:00</time>
            </trkpt>
            <trkpt lat="41.677438" lon="2.058262">
                <ele>454.040000</ele>
                <time>2010-09-18T12:22:22.000+02:00</time>
            </trkpt>
            <trkpt lat="41.677381" lon="2.058277">
                <ele>453.120000</ele>
                <time>2010-09-18T12:22:24.000+02:00</time>
            </trkpt>
            <trkpt lat="41.676931" lon="2.058366">
                <ele>452.212000</ele>
                <time>2010-09-18T12:22:38.000+02:00</time>
            </trkpt>
            <trkpt lat="41.676351" lon="2.058355">
                <ele>452.291000</ele>
                <time>2010-09-18T12:22:54.000+02:00</time>
            </trkpt>
            <trkpt lat="41.676157" lon="2.058385">
                <ele>443.985000</ele>
                <time>2010-09-18T12:22:59.000+02:00</time>
            </trkpt>
            <trkpt lat="41.676085" lon="2.058404">
                <ele>443.985000</ele>
                <time>2010-09-18T12:23:01.000+02:00</time>
            </trkpt>
            <trkpt lat="41.676047" lon="2.058414">
                <ele>451.407000</ele>
                <time>2010-09-18T12:23:02.000+02:00</time>
            </trkpt>
            <trkpt lat="41.676011" lon="2.058424">
                <ele>450.226000</ele>
                <time>2010-09-18T12:23:03.000+02:00</time>
            </trkpt>
            <trkpt lat="41.675676" lon="2.058513">
                <ele>448.601000</ele>
                <time>2010-09-18T12:23:09.000+02:00</time>
            </trkpt>
            <trkpt lat="41.675649" lon="2.058520">
                <ele>448.068000</ele>
                <time>2010-09-18T12:23:11.000+02:00</time>
            </trkpt>
            <trkpt lat="41.675538" lon="2.058968">
                <ele>450.554000</ele>
                <time>2010-09-18T12:23:17.000+02:00</time>
            </trkpt>
            <trkpt lat="41.675582" lon="2.059164">
                <ele>451.689000</ele>
                <time>2010-09-18T12:23:21.000+02:00</time>
            </trkpt>
            <trkpt lat="41.675617" lon="2.059321">
                <ele>451.768000</ele>
                <time>2010-09-18T12:23:24.000+02:00</time>
            </trkpt>
            <trkpt lat="41.675684" lon="2.060038">
                <ele>454.023000</ele>
                <time>2010-09-18T12:23:39.000+02:00</time>
            </trkpt>
            <trkpt lat="41.675765" lon="2.060342">
                <ele>455.215000</ele>
                <time>2010-09-18T12:23:47.000+02:00</time>
            </trkpt>
            <trkpt lat="41.675938" lon="2.060869">
                <ele>456.859000</ele>
                <time>2010-09-18T12:24:02.000+02:00</time>
            </trkpt>
            <trkpt lat="41.675804" lon="2.061243">
                <ele>459.145000</ele>
                <time>2010-09-18T12:24:13.000+02:00</time>
            </trkpt>
            <trkpt lat="41.675735" lon="2.061396">
                <ele>460.848000</ele>
                <time>2010-09-18T12:24:26.000+02:00</time>
            </trkpt>
            <trkpt lat="41.675735" lon="2.061396">
                <ele>463.098000</ele>
                <time>2010-09-18T12:24:38.000+02:00</time>
            </trkpt>
            <trkpt lat="41.675456" lon="2.062019">
                <ele>464.993000</ele>
                <time>2010-09-18T12:24:47.000+02:00</time>
            </trkpt>
            <trkpt lat="41.675381" lon="2.062128">
                <ele>466.009000</ele>
                <time>2010-09-18T12:24:55.000+02:00</time>
            </trkpt>
            <trkpt lat="41.675209" lon="2.062456">
                <ele>468.710000</ele>
                <time>2010-09-18T12:25:13.000+02:00</time>
            </trkpt>
            <trkpt lat="41.675051" lon="2.062731">
                <ele>471.344000</ele>
                <time>2010-09-18T12:25:30.000+02:00</time>
            </trkpt>
            <trkpt lat="41.675044" lon="2.062747">
                <ele>471.420000</ele>
                <time>2010-09-18T12:25:31.000+02:00</time>
            </trkpt>
            <trkpt lat="41.674915" lon="2.062990">
                <ele>474.691000</ele>
                <time>2010-09-18T12:25:46.000+02:00</time>
            </trkpt>
            <trkpt lat="41.674806" lon="2.063174">
                <ele>477.494000</ele>
                <time>2010-09-18T12:25:57.000+02:00</time>
            </trkpt>
            <trkpt lat="41.674684" lon="2.063308">
                <ele>479.552000</ele>
                <time>2010-09-18T12:26:07.000+02:00</time>
            </trkpt>
            <trkpt lat="41.674611" lon="2.063385">
                <ele>480.884000</ele>
                <time>2010-09-18T12:26:13.000+02:00</time>
            </trkpt>
            <trkpt lat="41.674574" lon="2.063699">
                <ele>482.656000</ele>
                <time>2010-09-18T12:26:27.000+02:00</time>
            </trkpt>
            <trkpt lat="41.674577" lon="2.063720">
                <ele>482.623000</ele>
                <time>2010-09-18T12:26:28.000+02:00</time>
            </trkpt>
            <trkpt lat="41.674553" lon="2.063812">
                <ele>483.340000</ele>
                <time>2010-09-18T12:26:32.000+02:00</time>
            </trkpt>
            <trkpt lat="41.674548" lon="2.063861">
                <ele>483.594000</ele>
                <time>2010-09-18T12:26:34.000+02:00</time>
            </trkpt>
            <trkpt lat="41.674405" lon="2.064213">
                <ele>485.780000</ele>
                <time>2010-09-18T12:26:52.000+02:00</time>
            </trkpt>
            <trkpt lat="41.674281" lon="2.064470">
                <ele>488.452000</ele>
                <time>2010-09-18T12:27:03.000+02:00</time>
            </trkpt>
            <trkpt lat="41.673999" lon="2.064772">
                <ele>487.694000</ele>
                <time>2010-09-18T12:27:15.000+02:00</time>
            </trkpt>
            <trkpt lat="41.673959" lon="2.064797">
                <ele>487.704000</ele>
                <time>2010-09-18T12:27:16.000+02:00</time>
            </trkpt>
            <trkpt lat="41.673775" lon="2.064938">
                <ele>487.270000</ele>
                <time>2010-09-18T12:27:21.000+02:00</time>
            </trkpt>
            <trkpt lat="41.673608" lon="2.064991">
                <ele>487.186000</ele>
                <time>2010-09-18T12:27:25.000+02:00</time>
            </trkpt>
            <trkpt lat="41.673024" lon="2.065076">
                <ele>489.170000</ele>
                <time>2010-09-18T12:27:40.000+02:00</time>
            </trkpt>
            <trkpt lat="41.672688" lon="2.065067">
                <ele>491.000000</ele>
                <time>2010-09-18T12:27:51.000+02:00</time>
            </trkpt>
            <trkpt lat="41.672378" lon="2.065200">
                <ele>491.478000</ele>
                <time>2010-09-18T12:28:01.000+02:00</time>
            </trkpt>
            <trkpt lat="41.672094" lon="2.065202">
                <ele>491.834000</ele>
                <time>2010-09-18T12:28:09.000+02:00</time>
            </trkpt>
            <trkpt lat="41.671992" lon="2.065363">
                <ele>489.932000</ele>
                <time>2010-09-18T12:28:13.000+02:00</time>
            </trkpt>
            <trkpt lat="41.671972" lon="2.065494">
                <ele>489.409000</ele>
                <time>2010-09-18T12:28:15.000+02:00</time>
            </trkpt>
            <trkpt lat="41.671957" lon="2.065876">
                <ele>488.324000</ele>
                <time>2010-09-18T12:28:20.000+02:00</time>
            </trkpt>
            <trkpt lat="41.671960" lon="2.066097">
                <ele>487.225000</ele>
                <time>2010-09-18T12:28:23.000+02:00</time>
            </trkpt>
            <trkpt lat="41.671945" lon="2.066272">
                <ele>486.426000</ele>
                <time>2010-09-18T12:28:25.000+02:00</time>
            </trkpt>
            <trkpt lat="41.671795" lon="2.066901">
                <ele>486.053000</ele>
                <time>2010-09-18T12:28:33.000+02:00</time>
            </trkpt>
            <trkpt lat="41.671624" lon="2.067142">
                <ele>485.956000</ele>
                <time>2010-09-18T12:28:38.000+02:00</time>
            </trkpt>
            <trkpt lat="41.671553" lon="2.067189">
                <ele>486.333000</ele>
                <time>2010-09-18T12:28:40.000+02:00</time>
            </trkpt>
            <trkpt lat="41.671498" lon="2.067593">
                <ele>484.200000</ele>
                <time>2010-09-18T12:28:47.000+02:00</time>
            </trkpt>
            <trkpt lat="41.671616" lon="2.068428">
                <ele>483.604000</ele>
                <time>2010-09-18T12:28:58.000+02:00</time>
            </trkpt>
            <trkpt lat="41.671612" lon="2.068550">
                <ele>483.649000</ele>
                <time>2010-09-18T12:29:00.000+02:00</time>
            </trkpt>
            <trkpt lat="41.671431" lon="2.068698">
                <ele>482.497000</ele>
                <time>2010-09-18T12:29:06.000+02:00</time>
            </trkpt>
            <trkpt lat="41.671347" lon="2.068651">
                <ele>483.130000</ele>
                <time>2010-09-18T12:29:08.000+02:00</time>
            </trkpt>
            <trkpt lat="41.670986" lon="2.068490">
                <ele>483.001000</ele>
                <time>2010-09-18T12:29:18.000+02:00</time>
            </trkpt>
            <trkpt lat="41.670823" lon="2.068635">
                <ele>481.208000</ele>
                <time>2010-09-18T12:29:22.000+02:00</time>
            </trkpt>
            <trkpt lat="41.670494" lon="2.069123">
                <ele>477.231000</ele>
                <time>2010-09-18T12:29:29.000+02:00</time>
            </trkpt>
            <trkpt lat="41.670190" lon="2.069990">
                <ele>476.260000</ele>
                <time>2010-09-18T12:29:40.000+02:00</time>
            </trkpt>
            <trkpt lat="41.670138" lon="2.070277">
                <ele>476.877000</ele>
                <time>2010-09-18T12:29:44.000+02:00</time>
            </trkpt>
            <trkpt lat="41.670144" lon="2.070471">
                <ele>476.919000</ele>
                <time>2010-09-18T12:29:47.000+02:00</time>
            </trkpt>
            <trkpt lat="41.670012" lon="2.070696">
                <ele>476.491000</ele>
                <time>2010-09-18T12:29:52.000+02:00</time>
            </trkpt>
            <trkpt lat="41.669307" lon="2.070827">
                <ele>476.240000</ele>
                <time>2010-09-18T12:30:07.000+02:00</time>
            </trkpt>
            <trkpt lat="41.668863" lon="2.070863">
                <ele>478.350000</ele>
                <time>2010-09-18T12:30:19.000+02:00</time>
            </trkpt>
            <trkpt lat="41.668823" lon="2.070869">
                <ele>479.145000</ele>
                <time>2010-09-18T12:30:21.000+02:00</time>
            </trkpt>
            <trkpt lat="41.668708" lon="2.070938">
                <ele>480.780000</ele>
                <time>2010-09-18T12:30:26.000+02:00</time>
            </trkpt>
            <trkpt lat="41.668653" lon="2.071088">
                <ele>480.809000</ele>
                <time>2010-09-18T12:30:31.000+02:00</time>
            </trkpt>
            <trkpt lat="41.668630" lon="2.071350">
                <ele>481.885000</ele>
                <time>2010-09-18T12:30:39.000+02:00</time>
            </trkpt>
            <trkpt lat="41.668581" lon="2.071614">
                <ele>483.336000</ele>
                <time>2010-09-18T12:30:47.000+02:00</time>
            </trkpt>
            <trkpt lat="41.668387" lon="2.071954">
                <ele>485.541000</ele>
                <time>2010-09-18T12:30:59.000+02:00</time>
            </trkpt>
            <trkpt lat="41.668234" lon="2.072232">
                <ele>487.916000</ele>
                <time>2010-09-18T12:31:11.000+02:00</time>
            </trkpt>
            <trkpt lat="41.668145" lon="2.072569">
                <ele>490.399000</ele>
                <time>2010-09-18T12:31:24.000+02:00</time>
            </trkpt>
            <trkpt lat="41.668031" lon="2.072884">
                <ele>493.212000</ele>
                <time>2010-09-18T12:31:39.000+02:00</time>
            </trkpt>
            <trkpt lat="41.667968" lon="2.073028">
                <ele>495.195000</ele>
                <time>2010-09-18T12:31:47.000+02:00</time>
            </trkpt>
            <trkpt lat="41.667931" lon="2.073069">
                <ele>495.886000</ele>
                <time>2010-09-18T12:31:50.000+02:00</time>
            </trkpt>
            <trkpt lat="41.667897" lon="2.073133">
                <ele>496.539000</ele>
                <time>2010-09-18T12:31:53.000+02:00</time>
            </trkpt>
            <trkpt lat="41.667659" lon="2.073490">
                <ele>498.246000</ele>
                <time>2010-09-18T12:32:09.000+02:00</time>
            </trkpt>
            <trkpt lat="41.667613" lon="2.073790">
                <ele>498.284000</ele>
                <time>2010-09-18T12:32:17.000+02:00</time>
            </trkpt>
            <trkpt lat="41.667795" lon="2.074089">
                <ele>499.211000</ele>
                <time>2010-09-18T12:32:27.000+02:00</time>
            </trkpt>
            <trkpt lat="41.667850" lon="2.074138">
                <ele>499.887000</ele>
                <time>2010-09-18T12:32:30.000+02:00</time>
            </trkpt>
            <trkpt lat="41.667941" lon="2.074245">
                <ele>500.297000</ele>
                <time>2010-09-18T12:32:35.000+02:00</time>
            </trkpt>
            <trkpt lat="41.667998" lon="2.074624">
                <ele>503.134000</ele>
                <time>2010-09-18T12:32:45.000+02:00</time>
            </trkpt>
            <trkpt lat="41.668115" lon="2.074915">
                <ele>504.507000</ele>
                <time>2010-09-18T12:32:54.000+02:00</time>
            </trkpt>
            <trkpt lat="41.668037" lon="2.075283">
                <ele>505.994000</ele>
                <time>2010-09-18T12:33:05.000+02:00</time>
            </trkpt>
            <trkpt lat="41.667740" lon="2.075284">
                <ele>509.379000</ele>
                <time>2010-09-18T12:33:20.000+02:00</time>
            </trkpt>
            <trkpt lat="41.667668" lon="2.075294">
                <ele>509.888000</ele>
                <time>2010-09-18T12:33:23.000+02:00</time>
            </trkpt>
            <trkpt lat="41.667421" lon="2.075600">
                <ele>512.501000</ele>
                <time>2010-09-18T12:33:38.000+02:00</time>
            </trkpt>
            <trkpt lat="41.667215" lon="2.076008">
                <ele>513.497000</ele>
                <time>2010-09-18T12:33:52.000+02:00</time>
            </trkpt>
            <trkpt lat="41.666941" lon="2.076185">
                <ele>514.860000</ele>
                <time>2010-09-18T12:34:03.000+02:00</time>
            </trkpt>
            <trkpt lat="41.666682" lon="2.076202">
                <ele>517.920000</ele>
                <time>2010-09-18T12:34:15.000+02:00</time>
            </trkpt>
            <trkpt lat="41.666402" lon="2.076127">
                <ele>518.646000</ele>
                <time>2010-09-18T12:34:26.000+02:00</time>
            </trkpt>
            <trkpt lat="41.666079" lon="2.076094">
                <ele>519.849000</ele>
                <time>2010-09-18T12:34:37.000+02:00</time>
            </trkpt>
            <trkpt lat="41.666002" lon="2.076126">
                <ele>519.818000</ele>
                <time>2010-09-18T12:34:40.000+02:00</time>
            </trkpt>
            <trkpt lat="41.665946" lon="2.076223">
                <ele>521.005000</ele>
                <time>2010-09-18T12:34:44.000+02:00</time>
            </trkpt>
            <trkpt lat="41.665912" lon="2.076375">
                <ele>522.012000</ele>
                <time>2010-09-18T12:34:49.000+02:00</time>
            </trkpt>
            <trkpt lat="41.665735" lon="2.076889">
                <ele>524.119000</ele>
                <time>2010-09-18T12:35:05.000+02:00</time>
            </trkpt>
            <trkpt lat="41.665762" lon="2.077043">
                <ele>524.857000</ele>
                <time>2010-09-18T12:35:10.000+02:00</time>
            </trkpt>
            <trkpt lat="41.666037" lon="2.077099">
                <ele>525.067000</ele>
                <time>2010-09-18T12:35:20.000+02:00</time>
            </trkpt>
            <trkpt lat="41.666094" lon="2.077090">
                <ele>525.611000</ele>
                <time>2010-09-18T12:35:22.000+02:00</time>
            </trkpt>
            <trkpt lat="41.666119" lon="2.077269">
                <ele>527.737000</ele>
                <time>2010-09-18T12:35:30.000+02:00</time>
            </trkpt>
            <trkpt lat="41.666041" lon="2.077349">
                <ele>528.777000</ele>
                <time>2010-09-18T12:35:35.000+02:00</time>
            </trkpt>
            <trkpt lat="41.665898" lon="2.077441">
                <ele>531.238000</ele>
                <time>2010-09-18T12:35:44.000+02:00</time>
            </trkpt>
            <trkpt lat="41.665849" lon="2.077456">
                <ele>531.880000</ele>
                <time>2010-09-18T12:35:47.000+02:00</time>
            </trkpt>
            <trkpt lat="41.665707" lon="2.077589">
                <ele>534.796000</ele>
                <time>2010-09-18T12:35:57.000+02:00</time>
            </trkpt>
            <trkpt lat="41.665464" lon="2.077452">
                <ele>537.279000</ele>
                <time>2010-09-18T12:36:11.000+02:00</time>
            </trkpt>
            <trkpt lat="41.665371" lon="2.077429">
                <ele>539.457000</ele>
                <time>2010-09-18T12:36:18.000+02:00</time>
            </trkpt>
            <trkpt lat="41.665297" lon="2.077394">
                <ele>540.597000</ele>
                <time>2010-09-18T12:36:25.000+02:00</time>
            </trkpt>
            <trkpt lat="41.665244" lon="2.077434">
                <ele>540.787000</ele>
                <time>2010-09-18T12:36:30.000+02:00</time>
            </trkpt>
            <trkpt lat="41.665257" lon="2.077454">
                <ele>541.056000</ele>
                <time>2010-09-18T12:36:34.000+02:00</time>
            </trkpt>
            <trkpt lat="41.665244" lon="2.077403">
                <ele>540.790000</ele>
                <time>2010-09-18T12:36:38.000+02:00</time>
            </trkpt>
            <trkpt lat="41.665254" lon="2.077446">
                <ele>540.794000</ele>
                <time>2010-09-18T12:36:46.000+02:00</time>
            </trkpt>
            <trkpt lat="41.665234" lon="2.077466">
                <ele>540.746000</ele>
                <time>2010-09-18T12:36:48.000+02:00</time>
            </trkpt>
            <trkpt lat="41.665067" lon="2.077472">
                <ele>537.549000</ele>
                <time>2010-09-18T12:36:56.000+02:00</time>
            </trkpt>
            <trkpt lat="41.664966" lon="2.077514">
                <ele>535.207000</ele>
                <time>2010-09-18T12:37:00.000+02:00</time>
            </trkpt>
            <trkpt lat="41.664893" lon="2.077547">
                <ele>533.017000</ele>
                <time>2010-09-18T12:37:04.000+02:00</time>
            </trkpt>
            <trkpt lat="41.664825" lon="2.077672">
                <ele>531.361000</ele>
                <time>2010-09-18T12:37:08.000+02:00</time>
            </trkpt>
            <trkpt lat="41.664824" lon="2.078163">
                <ele>533.286000</ele>
                <time>2010-09-18T12:37:23.000+02:00</time>
            </trkpt>
            <trkpt lat="41.664873" lon="2.078643">
                <ele>535.446000</ele>
                <time>2010-09-18T12:37:38.000+02:00</time>
            </trkpt>
            <trkpt lat="41.664850" lon="2.079154">
                <ele>537.835000</ele>
                <time>2010-09-18T12:37:54.000+02:00</time>
            </trkpt>
            <trkpt lat="41.664939" lon="2.079656">
                <ele>539.508000</ele>
                <time>2010-09-18T12:38:10.000+02:00</time>
            </trkpt>
            <trkpt lat="41.665347" lon="2.079966">
                <ele>536.863000</ele>
                <time>2010-09-18T12:38:23.000+02:00</time>
            </trkpt>
            <trkpt lat="41.665392" lon="2.080000">
                <ele>536.841000</ele>
                <time>2010-09-18T12:38:24.000+02:00</time>
            </trkpt>
            <trkpt lat="41.665539" lon="2.080313">
                <ele>533.113000</ele>
                <time>2010-09-18T12:38:29.000+02:00</time>
            </trkpt>
            <trkpt lat="41.665370" lon="2.080625">
                <ele>530.339000</ele>
                <time>2010-09-18T12:38:33.000+02:00</time>
            </trkpt>
            <trkpt lat="41.665208" lon="2.080786">
                <ele>531.884000</ele>
                <time>2010-09-18T12:38:36.000+02:00</time>
            </trkpt>
            <trkpt lat="41.665106" lon="2.080889">
                <ele>534.891000</ele>
                <time>2010-09-18T12:38:39.000+02:00</time>
            </trkpt>
            <trkpt lat="41.665086" lon="2.080925">
                <ele>535.145000</ele>
                <time>2010-09-18T12:38:40.000+02:00</time>
            </trkpt>
            <trkpt lat="41.665151" lon="2.081240">
                <ele>536.350000</ele>
                <time>2010-09-18T12:38:49.000+02:00</time>
            </trkpt>
            <trkpt lat="41.665524" lon="2.081712">
                <ele>538.971000</ele>
                <time>2010-09-18T12:39:05.000+02:00</time>
            </trkpt>
            <trkpt lat="41.665601" lon="2.082079">
                <ele>539.402000</ele>
                <time>2010-09-18T12:39:15.000+02:00</time>
            </trkpt>
            <trkpt lat="41.665344" lon="2.082206">
                <ele>539.624000</ele>
                <time>2010-09-18T12:39:24.000+02:00</time>
            </trkpt>
            <trkpt lat="41.665047" lon="2.082192">
                <ele>541.196000</ele>
                <time>2010-09-18T12:39:33.000+02:00</time>
            </trkpt>
            <trkpt lat="41.664981" lon="2.082553">
                <ele>542.229000</ele>
                <time>2010-09-18T12:39:43.000+02:00</time>
            </trkpt>
            <trkpt lat="41.665328" lon="2.082908">
                <ele>544.203000</ele>
                <time>2010-09-18T12:39:57.000+02:00</time>
            </trkpt>
            <trkpt lat="41.665207" lon="2.083395">
                <ele>545.302000</ele>
                <time>2010-09-18T12:40:10.000+02:00</time>
            </trkpt>
            <trkpt lat="41.665081" lon="2.083541">
                <ele>545.059000</ele>
                <time>2010-09-18T12:40:15.000+02:00</time>
            </trkpt>
            <trkpt lat="41.665033" lon="2.083778">
                <ele>543.159000</ele>
                <time>2010-09-18T12:40:19.000+02:00</time>
            </trkpt>
            <trkpt lat="41.665037" lon="2.083927">
                <ele>542.184000</ele>
                <time>2010-09-18T12:40:21.000+02:00</time>
            </trkpt>
            <trkpt lat="41.665068" lon="2.084354">
                <ele>539.256000</ele>
                <time>2010-09-18T12:40:26.000+02:00</time>
            </trkpt>
            <trkpt lat="41.664858" lon="2.084741">
                <ele>541.249000</ele>
                <time>2010-09-18T12:40:33.000+02:00</time>
            </trkpt>
            <trkpt lat="41.664769" lon="2.084699">
                <ele>542.961000</ele>
                <time>2010-09-18T12:40:35.000+02:00</time>
            </trkpt>
            <trkpt lat="41.664666" lon="2.084612">
                <ele>544.356000</ele>
                <time>2010-09-18T12:40:38.000+02:00</time>
            </trkpt>
            <trkpt lat="41.664390" lon="2.084715">
                <ele>545.532000</ele>
                <time>2010-09-18T12:40:46.000+02:00</time>
            </trkpt>
            <trkpt lat="41.664358" lon="2.084752">
                <ele>545.318000</ele>
                <time>2010-09-18T12:40:47.000+02:00</time>
            </trkpt>
            <trkpt lat="41.664083" lon="2.084797">
                <ele>545.928000</ele>
                <time>2010-09-18T12:40:54.000+02:00</time>
            </trkpt>
            <trkpt lat="41.663679" lon="2.084627">
                <ele>547.815000</ele>
                <time>2010-09-18T12:41:06.000+02:00</time>
            </trkpt>
            <trkpt lat="41.663329" lon="2.084814">
                <ele>549.944000</ele>
                <time>2010-09-18T12:41:19.000+02:00</time>
            </trkpt>
            <trkpt lat="41.663520" lon="2.085443">
                <ele>549.517000</ele>
                <time>2010-09-18T12:41:35.000+02:00</time>
            </trkpt>
            <trkpt lat="41.663715" lon="2.085864">
                <ele>551.891000</ele>
                <time>2010-09-18T12:41:48.000+02:00</time>
            </trkpt>
            <trkpt lat="41.663833" lon="2.086307">
                <ele>555.316000</ele>
                <time>2010-09-18T12:42:02.000+02:00</time>
            </trkpt>
            <trkpt lat="41.663829" lon="2.086335">
                <ele>555.097000</ele>
                <time>2010-09-18T12:42:03.000+02:00</time>
            </trkpt>
            <trkpt lat="41.663611" lon="2.086828">
                <ele>556.599000</ele>
                <time>2010-09-18T12:42:19.000+02:00</time>
            </trkpt>
            <trkpt lat="41.663245" lon="2.087127">
                <ele>558.362000</ele>
                <time>2010-09-18T12:42:34.000+02:00</time>
            </trkpt>
            <trkpt lat="41.662888" lon="2.087506">
                <ele>560.106000</ele>
                <time>2010-09-18T12:42:49.000+02:00</time>
            </trkpt>
            <trkpt lat="41.662799" lon="2.087855">
                <ele>560.930000</ele>
                <time>2010-09-18T12:42:59.000+02:00</time>
            </trkpt>
            <trkpt lat="41.662693" lon="2.087982">
                <ele>561.179000</ele>
                <time>2010-09-18T12:43:04.000+02:00</time>
            </trkpt>
            <trkpt lat="41.662450" lon="2.087775">
                <ele>562.442000</ele>
                <time>2010-09-18T12:43:18.000+02:00</time>
            </trkpt>
            <trkpt lat="41.662159" lon="2.087678">
                <ele>563.151000</ele>
                <time>2010-09-18T12:43:30.000+02:00</time>
            </trkpt>
            <trkpt lat="41.661745" lon="2.087884">
                <ele>565.821000</ele>
                <time>2010-09-18T12:43:46.000+02:00</time>
            </trkpt>
            <trkpt lat="41.661616" lon="2.087804">
                <ele>567.081000</ele>
                <time>2010-09-18T12:43:52.000+02:00</time>
            </trkpt>
            <trkpt lat="41.661510" lon="2.087609">
                <ele>567.469000</ele>
                <time>2010-09-18T12:44:00.000+02:00</time>
            </trkpt>
            <trkpt lat="41.661097" lon="2.087326">
                <ele>568.174000</ele>
                <time>2010-09-18T12:44:17.000+02:00</time>
            </trkpt>
            <trkpt lat="41.660666" lon="2.087457">
                <ele>569.931000</ele>
                <time>2010-09-18T12:44:33.000+02:00</time>
            </trkpt>
            <trkpt lat="41.660339" lon="2.087370">
                <ele>569.781000</ele>
                <time>2010-09-18T12:44:45.000+02:00</time>
            </trkpt>
            <trkpt lat="41.660047" lon="2.087417">
                <ele>569.327000</ele>
                <time>2010-09-18T12:44:55.000+02:00</time>
            </trkpt>
            <trkpt lat="41.659925" lon="2.087667">
                <ele>569.534000</ele>
                <time>2010-09-18T12:45:02.000+02:00</time>
            </trkpt>
            <trkpt lat="41.659631" lon="2.087849">
                <ele>571.039000</ele>
                <time>2010-09-18T12:45:14.000+02:00</time>
            </trkpt>
            <trkpt lat="41.659440" lon="2.087873">
                <ele>571.382000</ele>
                <time>2010-09-18T12:45:21.000+02:00</time>
            </trkpt>
            <trkpt lat="41.659186" lon="2.087695">
                <ele>571.362000</ele>
                <time>2010-09-18T12:45:33.000+02:00</time>
            </trkpt>
            <trkpt lat="41.658831" lon="2.087816">
                <ele>571.026000</ele>
                <time>2010-09-18T12:45:45.000+02:00</time>
            </trkpt>
            <trkpt lat="41.658500" lon="2.088020">
                <ele>571.732000</ele>
                <time>2010-09-18T12:45:57.000+02:00</time>
            </trkpt>
            <trkpt lat="41.658051" lon="2.088200">
                <ele>572.990000</ele>
                <time>2010-09-18T12:46:11.000+02:00</time>
            </trkpt>
            <trkpt lat="41.657739" lon="2.088491">
                <ele>575.589000</ele>
                <time>2010-09-18T12:46:24.000+02:00</time>
            </trkpt>
            <trkpt lat="41.657601" lon="2.088634">
                <ele>576.689000</ele>
                <time>2010-09-18T12:46:31.000+02:00</time>
            </trkpt>
            <trkpt lat="41.657309" lon="2.088830">
                <ele>578.130000</ele>
                <time>2010-09-18T12:46:43.000+02:00</time>
            </trkpt>
            <trkpt lat="41.656991" lon="2.088726">
                <ele>578.980000</ele>
                <time>2010-09-18T12:46:55.000+02:00</time>
            </trkpt>
            <trkpt lat="41.656629" lon="2.088387">
                <ele>578.889000</ele>
                <time>2010-09-18T12:47:10.000+02:00</time>
            </trkpt>
            <trkpt lat="41.656313" lon="2.088196">
                <ele>579.505000</ele>
                <time>2010-09-18T12:47:22.000+02:00</time>
            </trkpt>
            <trkpt lat="41.656058" lon="2.087693">
                <ele>580.874000</ele>
                <time>2010-09-18T12:47:37.000+02:00</time>
            </trkpt>
            <trkpt lat="41.655864" lon="2.087503">
                <ele>582.732000</ele>
                <time>2010-09-18T12:47:47.000+02:00</time>
            </trkpt>
            <trkpt lat="41.655525" lon="2.087369">
                <ele>585.696000</ele>
                <time>2010-09-18T12:48:02.000+02:00</time>
            </trkpt>
            <trkpt lat="41.655074" lon="2.087300">
                <ele>588.066000</ele>
                <time>2010-09-18T12:48:20.000+02:00</time>
            </trkpt>
            <trkpt lat="41.654512" lon="2.087330">
                <ele>590.541000</ele>
                <time>2010-09-18T12:48:41.000+02:00</time>
            </trkpt>
            <trkpt lat="41.654210" lon="2.087179">
                <ele>592.860000</ele>
                <time>2010-09-18T12:48:56.000+02:00</time>
            </trkpt>
            <trkpt lat="41.654164" lon="2.087122">
                <ele>593.546000</ele>
                <time>2010-09-18T12:48:59.000+02:00</time>
            </trkpt>
            <trkpt lat="41.654096" lon="2.087059">
                <ele>594.063000</ele>
                <time>2010-09-18T12:49:03.000+02:00</time>
            </trkpt>
            <trkpt lat="41.653796" lon="2.086712">
                <ele>595.687000</ele>
                <time>2010-09-18T12:49:19.000+02:00</time>
            </trkpt>
            <trkpt lat="41.653465" lon="2.086414">
                <ele>596.511000</ele>
                <time>2010-09-18T12:49:35.000+02:00</time>
            </trkpt>
            <trkpt lat="41.653100" lon="2.086318">
                <ele>596.691000</ele>
                <time>2010-09-18T12:49:52.000+02:00</time>
            </trkpt>
            <trkpt lat="41.652881" lon="2.086470">
                <ele>597.392000</ele>
                <time>2010-09-18T12:50:02.000+02:00</time>
            </trkpt>
            <trkpt lat="41.652818" lon="2.086429">
                <ele>597.424000</ele>
                <time>2010-09-18T12:50:07.000+02:00</time>
            </trkpt>
            <trkpt lat="41.652829" lon="2.086445">
                <ele>597.634000</ele>
                <time>2010-09-18T12:50:15.000+02:00</time>
            </trkpt>
            <trkpt lat="41.652808" lon="2.086438">
                <ele>598.483000</ele>
                <time>2010-09-18T12:51:22.000+02:00</time>
            </trkpt>
            <trkpt lat="41.652805" lon="2.086456">
                <ele>598.076000</ele>
                <time>2010-09-18T12:52:15.000+02:00</time>
            </trkpt>
            <trkpt lat="41.652803" lon="2.086469">
                <ele>597.912000</ele>
                <time>2010-09-18T12:52:46.000+02:00</time>
            </trkpt>
            <trkpt lat="41.652813" lon="2.086472">
                <ele>598.912000</ele>
                <time>2010-09-18T12:54:14.000+02:00</time>
            </trkpt>
            <trkpt lat="41.652797" lon="2.086459">
                <ele>598.986000</ele>
                <time>2010-09-18T12:54:53.000+02:00</time>
            </trkpt>
            <trkpt lat="41.652816" lon="2.086423">
                <ele>598.893000</ele>
                <time>2010-09-18T12:54:57.000+02:00</time>
            </trkpt>
            <trkpt lat="41.652835" lon="2.086475">
                <ele>598.855000</ele>
                <time>2010-09-18T12:55:01.000+02:00</time>
            </trkpt>
            <trkpt lat="41.652828" lon="2.086541">
                <ele>599.329000</ele>
                <time>2010-09-18T12:55:08.000+02:00</time>
            </trkpt>
            <trkpt lat="41.652776" lon="2.086574">
                <ele>599.335000</ele>
                <time>2010-09-18T12:55:14.000+02:00</time>
            </trkpt>
            <trkpt lat="41.652752" lon="2.086568">
                <ele>599.325000</ele>
                <time>2010-09-18T12:55:17.000+02:00</time>
            </trkpt>
            <trkpt lat="41.652767" lon="2.086554">
                <ele>599.409000</ele>
                <time>2010-09-18T12:55:19.000+02:00</time>
            </trkpt>
            <trkpt lat="41.652776" lon="2.086563">
                <ele>599.413000</ele>
                <time>2010-09-18T12:55:41.000+02:00</time>
            </trkpt>
            <trkpt lat="41.652766" lon="2.086546">
                <ele>599.657000</ele>
                <time>2010-09-18T12:56:41.000+02:00</time>
            </trkpt>
            <trkpt lat="41.652782" lon="2.086447">
                <ele>599.108000</ele>
                <time>2010-09-18T12:56:49.000+02:00</time>
            </trkpt>
            <trkpt lat="41.652725" lon="2.086454">
                <ele>599.917000</ele>
                <time>2010-09-18T12:56:53.000+02:00</time>
            </trkpt>
            <trkpt lat="41.652606" lon="2.086367">
                <ele>600.645000</ele>
                <time>2010-09-18T12:57:00.000+02:00</time>
            </trkpt>
            <trkpt lat="41.652557" lon="2.086392">
                <ele>600.707000</ele>
                <time>2010-09-18T12:57:03.000+02:00</time>
            </trkpt>
            <trkpt lat="41.652302" lon="2.086387">
                <ele>602.594000</ele>
                <time>2010-09-18T12:57:17.000+02:00</time>
            </trkpt>
            <trkpt lat="41.652280" lon="2.086392">
                <ele>603.351000</ele>
                <time>2010-09-18T12:57:20.000+02:00</time>
            </trkpt>
            <trkpt lat="41.652048" lon="2.086302">
                <ele>603.775000</ele>
                <time>2010-09-18T12:57:33.000+02:00</time>
            </trkpt>
            <trkpt lat="41.651992" lon="2.086301">
                <ele>604.759000</ele>
                <time>2010-09-18T12:57:38.000+02:00</time>
            </trkpt>
            <trkpt lat="41.651949" lon="2.086270">
                <ele>604.797000</ele>
                <time>2010-09-18T12:57:40.000+02:00</time>
            </trkpt>
            <trkpt lat="41.651891" lon="2.086182">
                <ele>604.530000</ele>
                <time>2010-09-18T12:57:44.000+02:00</time>
            </trkpt>
            <trkpt lat="41.651814" lon="2.086068">
                <ele>604.743000</ele>
                <time>2010-09-18T12:57:48.000+02:00</time>
            </trkpt>
            <trkpt lat="41.651754" lon="2.085933">
                <ele>605.507000</ele>
                <time>2010-09-18T12:57:52.000+02:00</time>
            </trkpt>
            <trkpt lat="41.651701" lon="2.085835">
                <ele>606.317000</ele>
                <time>2010-09-18T12:57:55.000+02:00</time>
            </trkpt>
            <trkpt lat="41.651550" lon="2.085586">
                <ele>605.853000</ele>
                <time>2010-09-18T12:58:05.000+02:00</time>
            </trkpt>
            <trkpt lat="41.651495" lon="2.085467">
                <ele>605.320000</ele>
                <time>2010-09-18T12:58:08.000+02:00</time>
            </trkpt>
            <trkpt lat="41.651388" lon="2.085158">
                <ele>602.954000</ele>
                <time>2010-09-18T12:58:15.000+02:00</time>
            </trkpt>
            <trkpt lat="41.651301" lon="2.084907">
                <ele>600.332000</ele>
                <time>2010-09-18T12:58:21.000+02:00</time>
            </trkpt>
            <trkpt lat="41.651231" lon="2.084846">
                <ele>599.047000</ele>
                <time>2010-09-18T12:58:23.000+02:00</time>
            </trkpt>
            <trkpt lat="41.651018" lon="2.084725">
                <ele>597.931000</ele>
                <time>2010-09-18T12:58:30.000+02:00</time>
            </trkpt>
            <trkpt lat="41.650971" lon="2.084666">
                <ele>598.161000</ele>
                <time>2010-09-18T12:58:32.000+02:00</time>
            </trkpt>
            <trkpt lat="41.650669" lon="2.084480">
                <ele>597.825000</ele>
                <time>2010-09-18T12:58:43.000+02:00</time>
            </trkpt>
            <trkpt lat="41.650565" lon="2.084468">
                <ele>597.603000</ele>
                <time>2010-09-18T12:58:47.000+02:00</time>
            </trkpt>
            <trkpt lat="41.650395" lon="2.084566">
                <ele>597.277000</ele>
                <time>2010-09-18T12:58:53.000+02:00</time>
            </trkpt>
            <trkpt lat="41.650206" lon="2.084548">
                <ele>597.510000</ele>
                <time>2010-09-18T12:58:59.000+02:00</time>
            </trkpt>
            <trkpt lat="41.650111" lon="2.084404">
                <ele>596.038000</ele>
                <time>2010-09-18T12:59:04.000+02:00</time>
            </trkpt>
            <trkpt lat="41.649988" lon="2.084278">
                <ele>595.392000</ele>
                <time>2010-09-18T12:59:08.000+02:00</time>
            </trkpt>
            <trkpt lat="41.649901" lon="2.084162">
                <ele>594.852000</ele>
                <time>2010-09-18T12:59:11.000+02:00</time>
            </trkpt>
            <trkpt lat="41.649837" lon="2.084087">
                <ele>594.554000</ele>
                <time>2010-09-18T12:59:13.000+02:00</time>
            </trkpt>
            <trkpt lat="41.649484" lon="2.083940">
                <ele>595.741000</ele>
                <time>2010-09-18T12:59:25.000+02:00</time>
            </trkpt>
            <trkpt lat="41.649463" lon="2.083928">
                <ele>595.958000</ele>
                <time>2010-09-18T12:59:26.000+02:00</time>
            </trkpt>
            <trkpt lat="41.649336" lon="2.083778">
                <ele>593.585000</ele>
                <time>2010-09-18T12:59:32.000+02:00</time>
            </trkpt>
            <trkpt lat="41.649264" lon="2.083687">
                <ele>590.587000</ele>
                <time>2010-09-18T12:59:38.000+02:00</time>
            </trkpt>
            <trkpt lat="41.649253" lon="2.083563">
                <ele>588.764000</ele>
                <time>2010-09-18T12:59:43.000+02:00</time>
            </trkpt>
            <trkpt lat="41.649256" lon="2.083451">
                <ele>587.706000</ele>
                <time>2010-09-18T12:59:45.000+02:00</time>
            </trkpt>
            <trkpt lat="41.649168" lon="2.082971">
                <ele>587.225000</ele>
                <time>2010-09-18T12:59:55.000+02:00</time>
            </trkpt>
            <trkpt lat="41.648969" lon="2.082560">
                <ele>587.328000</ele>
                <time>2010-09-18T13:00:05.000+02:00</time>
            </trkpt>
            <trkpt lat="41.648805" lon="2.082089">
                <ele>588.289000</ele>
                <time>2010-09-18T13:00:16.000+02:00</time>
            </trkpt>
            <trkpt lat="41.648754" lon="2.081986">
                <ele>589.791000</ele>
                <time>2010-09-18T13:00:26.000+02:00</time>
            </trkpt>
            <trkpt lat="41.648772" lon="2.081930">
                <ele>588.709000</ele>
                <time>2010-09-18T13:00:46.000+02:00</time>
            </trkpt>
            <trkpt lat="41.648775" lon="2.081906">
                <ele>589.257000</ele>
                <time>2010-09-18T13:04:53.000+02:00</time>
            </trkpt>
            <trkpt lat="41.648616" lon="2.081936">
                <ele>584.799000</ele>
                <time>2010-09-18T13:05:00.000+02:00</time>
            </trkpt>
            <trkpt lat="41.648486" lon="2.081960">
                <ele>581.875000</ele>
                <time>2010-09-18T13:05:11.000+02:00</time>
            </trkpt>
            <trkpt lat="41.648474" lon="2.081966">
                <ele>582.209000</ele>
                <time>2010-09-18T13:05:36.000+02:00</time>
            </trkpt>
            <trkpt lat="41.648466" lon="2.081972">
                <ele>582.073000</ele>
                <time>2010-09-18T13:05:44.000+02:00</time>
            </trkpt>
            <trkpt lat="41.648366" lon="2.082004">
                <ele>581.245000</ele>
                <time>2010-09-18T13:05:55.000+02:00</time>
            </trkpt>
            <trkpt lat="41.648359" lon="2.082007">
                <ele>581.134000</ele>
                <time>2010-09-18T13:05:56.000+02:00</time>
            </trkpt>
            <trkpt lat="41.648311" lon="2.082040">
                <ele>581.048000</ele>
                <time>2010-09-18T13:06:00.000+02:00</time>
            </trkpt>
            <trkpt lat="41.648258" lon="2.082026">
                <ele>579.814000</ele>
                <time>2010-09-18T13:06:05.000+02:00</time>
            </trkpt>
            <trkpt lat="41.648234" lon="2.082023">
                <ele>578.915000</ele>
                <time>2010-09-18T13:06:08.000+02:00</time>
            </trkpt>
            <trkpt lat="41.648218" lon="2.082027">
                <ele>578.935000</ele>
                <time>2010-09-18T13:06:19.000+02:00</time>
            </trkpt>
            <trkpt lat="41.648141" lon="2.081973">
                <ele>576.789000</ele>
                <time>2010-09-18T13:06:34.000+02:00</time>
            </trkpt>
            <trkpt lat="41.648095" lon="2.081994">
                <ele>575.418000</ele>
                <time>2010-09-18T13:06:37.000+02:00</time>
            </trkpt>
            <trkpt lat="41.647999" lon="2.081977">
                <ele>574.078000</ele>
                <time>2010-09-18T13:06:43.000+02:00</time>
            </trkpt>
            <trkpt lat="41.647866" lon="2.082128">
                <ele>571.393000</ele>
                <time>2010-09-18T13:06:52.000+02:00</time>
            </trkpt>
            <trkpt lat="41.647718" lon="2.082228">
                <ele>567.931000</ele>
                <time>2010-09-18T13:06:56.000+02:00</time>
            </trkpt>
            <trkpt lat="41.647464" lon="2.082305">
                <ele>567.858000</ele>
                <time>2010-09-18T13:07:02.000+02:00</time>
            </trkpt>
            <trkpt lat="41.647288" lon="2.082277">
                <ele>565.949000</ele>
                <time>2010-09-18T13:07:07.000+02:00</time>
            </trkpt>
            <trkpt lat="41.647154" lon="2.082235">
                <ele>562.967000</ele>
                <time>2010-09-18T13:07:10.000+02:00</time>
            </trkpt>
            <trkpt lat="41.647055" lon="2.082256">
                <ele>562.341000</ele>
                <time>2010-09-18T13:07:12.000+02:00</time>
            </trkpt>
            <trkpt lat="41.646989" lon="2.082325">
                <ele>561.549000</ele>
                <time>2010-09-18T13:07:14.000+02:00</time>
            </trkpt>
            <trkpt lat="41.646736" lon="2.082538">
                <ele>558.420000</ele>
                <time>2010-09-18T13:07:24.000+02:00</time>
            </trkpt>
            <trkpt lat="41.646627" lon="2.082594">
                <ele>555.912000</ele>
                <time>2010-09-18T13:07:30.000+02:00</time>
            </trkpt>
            <trkpt lat="41.646607" lon="2.082600">
                <ele>555.306000</ele>
                <time>2010-09-18T13:07:31.000+02:00</time>
            </trkpt>
            <trkpt lat="41.646500" lon="2.082619">
                <ele>553.131000</ele>
                <time>2010-09-18T13:07:34.000+02:00</time>
            </trkpt>
            <trkpt lat="41.646356" lon="2.082660">
                <ele>553.251000</ele>
                <time>2010-09-18T13:07:38.000+02:00</time>
            </trkpt>
            <trkpt lat="41.646243" lon="2.082654">
                <ele>553.850000</ele>
                <time>2010-09-18T13:07:42.000+02:00</time>
            </trkpt>
            <trkpt lat="41.646086" lon="2.082823">
                <ele>553.032000</ele>
                <time>2010-09-18T13:07:48.000+02:00</time>
            </trkpt>
            <trkpt lat="41.645808" lon="2.082935">
                <ele>551.928000</ele>
                <time>2010-09-18T13:07:58.000+02:00</time>
            </trkpt>
            <trkpt lat="41.645637" lon="2.082958">
                <ele>550.217000</ele>
                <time>2010-09-18T13:08:02.000+02:00</time>
            </trkpt>
            <trkpt lat="41.645520" lon="2.082978">
                <ele>548.275000</ele>
                <time>2010-09-18T13:08:05.000+02:00</time>
            </trkpt>
            <trkpt lat="41.645467" lon="2.082974">
                <ele>548.177000</ele>
                <time>2010-09-18T13:08:06.000+02:00</time>
            </trkpt>
            <trkpt lat="41.645305" lon="2.083001">
                <ele>546.000000</ele>
                <time>2010-09-18T13:08:09.000+02:00</time>
            </trkpt>
            <trkpt lat="41.645197" lon="2.083011">
                <ele>545.222000</ele>
                <time>2010-09-18T13:08:11.000+02:00</time>
            </trkpt>
            <trkpt lat="41.644965" lon="2.083008">
                <ele>544.370000</ele>
                <time>2010-09-18T13:08:15.000+02:00</time>
            </trkpt>
            <trkpt lat="41.644802" lon="2.082970">
                <ele>544.107000</ele>
                <time>2010-09-18T13:08:20.000+02:00</time>
            </trkpt>
            <trkpt lat="41.644634" lon="2.082988">
                <ele>542.035000</ele>
                <time>2010-09-18T13:08:24.000+02:00</time>
            </trkpt>
            <trkpt lat="41.644482" lon="2.082989">
                <ele>540.712000</ele>
                <time>2010-09-18T13:08:27.000+02:00</time>
            </trkpt>
            <trkpt lat="41.643878" lon="2.083069">
                <ele>540.099000</ele>
                <time>2010-09-18T13:08:38.000+02:00</time>
            </trkpt>
            <trkpt lat="41.643687" lon="2.083096">
                <ele>540.799000</ele>
                <time>2010-09-18T13:08:42.000+02:00</time>
            </trkpt>
            <trkpt lat="41.643219" lon="2.083119">
                <ele>544.298000</ele>
                <time>2010-09-18T13:08:55.000+02:00</time>
            </trkpt>
            <trkpt lat="41.642943" lon="2.083094">
                <ele>546.963000</ele>
                <time>2010-09-18T13:09:06.000+02:00</time>
            </trkpt>
            <trkpt lat="41.642602" lon="2.082993">
                <ele>548.607000</ele>
                <time>2010-09-18T13:09:21.000+02:00</time>
            </trkpt>
            <trkpt lat="41.642203" lon="2.082977">
                <ele>551.282000</ele>
                <time>2010-09-18T13:09:38.000+02:00</time>
            </trkpt>
            <trkpt lat="41.641990" lon="2.083007">
                <ele>554.344000</ele>
                <time>2010-09-18T13:09:51.000+02:00</time>
            </trkpt>
            <trkpt lat="41.641857" lon="2.083045">
                <ele>557.206000</ele>
                <time>2010-09-18T13:10:01.000+02:00</time>
            </trkpt>
            <trkpt lat="41.641814" lon="2.083034">
                <ele>557.735000</ele>
                <time>2010-09-18T13:10:04.000+02:00</time>
            </trkpt>
            <trkpt lat="41.641620" lon="2.082945">
                <ele>559.226000</ele>
                <time>2010-09-18T13:10:18.000+02:00</time>
            </trkpt>
            <trkpt lat="41.641412" lon="2.082714">
                <ele>560.823000</ele>
                <time>2010-09-18T13:10:33.000+02:00</time>
            </trkpt>
            <trkpt lat="41.641235" lon="2.082534">
                <ele>563.245000</ele>
                <time>2010-09-18T13:10:46.000+02:00</time>
            </trkpt>
            <trkpt lat="41.641198" lon="2.082540">
                <ele>563.405000</ele>
                <time>2010-09-18T13:11:05.000+02:00</time>
            </trkpt>
            <trkpt lat="41.641196" lon="2.082543">
                <ele>563.236000</ele>
                <time>2010-09-18T13:11:16.000+02:00</time>
            </trkpt>
            <trkpt lat="41.640917" lon="2.082556">
                <ele>562.339000</ele>
                <time>2010-09-18T13:11:26.000+02:00</time>
            </trkpt>
            <trkpt lat="41.640672" lon="2.082585">
                <ele>565.410000</ele>
                <time>2010-09-18T13:11:38.000+02:00</time>
            </trkpt>
            <trkpt lat="41.640546" lon="2.082612">
                <ele>567.284000</ele>
                <time>2010-09-18T13:11:44.000+02:00</time>
            </trkpt>
            <trkpt lat="41.640477" lon="2.082629">
                <ele>568.151000</ele>
                <time>2010-09-18T13:11:48.000+02:00</time>
            </trkpt>
            <trkpt lat="41.640170" lon="2.082721">
                <ele>568.785000</ele>
                <time>2010-09-18T13:12:03.000+02:00</time>
            </trkpt>
            <trkpt lat="41.639918" lon="2.082861">
                <ele>566.085000</ele>
                <time>2010-09-18T13:12:11.000+02:00</time>
            </trkpt>
            <trkpt lat="41.639718" lon="2.083067">
                <ele>564.141000</ele>
                <time>2010-09-18T13:12:19.000+02:00</time>
            </trkpt>
            <trkpt lat="41.639677" lon="2.083051">
                <ele>564.429000</ele>
                <time>2010-09-18T13:12:30.000+02:00</time>
            </trkpt>
            <trkpt lat="41.639501" lon="2.082996">
                <ele>560.921000</ele>
                <time>2010-09-18T13:12:38.000+02:00</time>
            </trkpt>
            <trkpt lat="41.639460" lon="2.082987">
                <ele>560.007000</ele>
                <time>2010-09-18T13:12:40.000+02:00</time>
            </trkpt>
            <trkpt lat="41.639395" lon="2.082933">
                <ele>556.335000</ele>
                <time>2010-09-18T13:12:46.000+02:00</time>
            </trkpt>
            <trkpt lat="41.639313" lon="2.082900">
                <ele>552.870000</ele>
                <time>2010-09-18T13:12:49.000+02:00</time>
            </trkpt>
            <trkpt lat="41.639272" lon="2.082682">
                <ele>554.175000</ele>
                <time>2010-09-18T13:12:58.000+02:00</time>
            </trkpt>
            <trkpt lat="41.639271" lon="2.082682">
                <ele>554.063000</ele>
                <time>2010-09-18T13:12:59.000+02:00</time>
            </trkpt>
            <trkpt lat="41.639154" lon="2.082622">
                <ele>552.466000</ele>
                <time>2010-09-18T13:13:03.000+02:00</time>
            </trkpt>
            <trkpt lat="41.638789" lon="2.082389">
                <ele>549.691000</ele>
                <time>2010-09-18T13:13:13.000+02:00</time>
            </trkpt>
            <trkpt lat="41.638760" lon="2.082380">
                <ele>549.646000</ele>
                <time>2010-09-18T13:13:14.000+02:00</time>
            </trkpt>
            <trkpt lat="41.638664" lon="2.082413">
                <ele>548.227000</ele>
                <time>2010-09-18T13:13:18.000+02:00</time>
            </trkpt>
            <trkpt lat="41.638499" lon="2.082401">
                <ele>547.898000</ele>
                <time>2010-09-18T13:13:22.000+02:00</time>
            </trkpt>
            <trkpt lat="41.638195" lon="2.082390">
                <ele>546.717000</ele>
                <time>2010-09-18T13:13:33.000+02:00</time>
            </trkpt>
            <trkpt lat="41.637979" lon="2.082400">
                <ele>544.645000</ele>
                <time>2010-09-18T13:13:41.000+02:00</time>
            </trkpt>
            <trkpt lat="41.637773" lon="2.082480">
                <ele>543.210000</ele>
                <time>2010-09-18T13:13:48.000+02:00</time>
            </trkpt>
            <trkpt lat="41.637731" lon="2.082481">
                <ele>542.850000</ele>
                <time>2010-09-18T13:14:18.000+02:00</time>
            </trkpt>
            <trkpt lat="41.637697" lon="2.082523">
                <ele>540.743000</ele>
                <time>2010-09-18T13:14:37.000+02:00</time>
            </trkpt>
            <trkpt lat="41.637662" lon="2.082521">
                <ele>541.973000</ele>
                <time>2010-09-18T13:14:53.000+02:00</time>
            </trkpt>
            <trkpt lat="41.637594" lon="2.082550">
                <ele>542.962000</ele>
                <time>2010-09-18T13:15:09.000+02:00</time>
            </trkpt>
            <trkpt lat="41.637579" lon="2.082559">
                <ele>542.839000</ele>
                <time>2010-09-18T13:15:10.000+02:00</time>
            </trkpt>
            <trkpt lat="41.637479" lon="2.082610">
                <ele>541.645000</ele>
                <time>2010-09-18T13:15:15.000+02:00</time>
            </trkpt>
            <trkpt lat="41.637237" lon="2.082665">
                <ele>540.711000</ele>
                <time>2010-09-18T13:15:20.000+02:00</time>
            </trkpt>
            <trkpt lat="41.637081" lon="2.082752">
                <ele>537.510000</ele>
                <time>2010-09-18T13:15:25.000+02:00</time>
            </trkpt>
            <trkpt lat="41.636952" lon="2.082825">
                <ele>535.592000</ele>
                <time>2010-09-18T13:15:31.000+02:00</time>
            </trkpt>
            <trkpt lat="41.636941" lon="2.082865">
                <ele>534.826000</ele>
                <time>2010-09-18T13:15:33.000+02:00</time>
            </trkpt>
            <trkpt lat="41.636929" lon="2.082915">
                <ele>533.758000</ele>
                <time>2010-09-18T13:15:35.000+02:00</time>
            </trkpt>
            <trkpt lat="41.636871" lon="2.083056">
                <ele>530.899000</ele>
                <time>2010-09-18T13:15:39.000+02:00</time>
            </trkpt>
            <trkpt lat="41.636867" lon="2.083103">
                <ele>529.979000</ele>
                <time>2010-09-18T13:15:41.000+02:00</time>
            </trkpt>
            <trkpt lat="41.636800" lon="2.083210">
                <ele>527.072000</ele>
                <time>2010-09-18T13:15:45.000+02:00</time>
            </trkpt>
            <trkpt lat="41.636780" lon="2.083250">
                <ele>526.325000</ele>
                <time>2010-09-18T13:15:46.000+02:00</time>
            </trkpt>
            <trkpt lat="41.636772" lon="2.083332">
                <ele>525.474000</ele>
                <time>2010-09-18T13:15:48.000+02:00</time>
            </trkpt>
            <trkpt lat="41.636769" lon="2.083363">
                <ele>524.571000</ele>
                <time>2010-09-18T13:15:49.000+02:00</time>
            </trkpt>
            <trkpt lat="41.636743" lon="2.083417">
                <ele>523.423000</ele>
                <time>2010-09-18T13:15:51.000+02:00</time>
            </trkpt>
            <trkpt lat="41.636671" lon="2.083534">
                <ele>521.844000</ele>
                <time>2010-09-18T13:15:54.000+02:00</time>
            </trkpt>
            <trkpt lat="41.636609" lon="2.083669">
                <ele>520.181000</ele>
                <time>2010-09-18T13:15:57.000+02:00</time>
            </trkpt>
            <trkpt lat="41.636484" lon="2.083915">
                <ele>517.118000</ele>
                <time>2010-09-18T13:16:02.000+02:00</time>
            </trkpt>
            <trkpt lat="41.636386" lon="2.084139">
                <ele>515.452000</ele>
                <time>2010-09-18T13:16:06.000+02:00</time>
            </trkpt>
            <trkpt lat="41.636095" lon="2.084450">
                <ele>513.258000</ele>
                <time>2010-09-18T13:16:16.000+02:00</time>
            </trkpt>
            <trkpt lat="41.636044" lon="2.084541">
                <ele>512.877000</ele>
                <time>2010-09-18T13:16:18.000+02:00</time>
            </trkpt>
            <trkpt lat="41.635705" lon="2.084875">
                <ele>510.765000</ele>
                <time>2010-09-18T13:16:29.000+02:00</time>
            </trkpt>
            <trkpt lat="41.635666" lon="2.084892">
                <ele>510.747000</ele>
                <time>2010-09-18T13:16:30.000+02:00</time>
            </trkpt>
            <trkpt lat="41.635456" lon="2.085020">
                <ele>510.230000</ele>
                <time>2010-09-18T13:16:38.000+02:00</time>
            </trkpt>
            <trkpt lat="41.635423" lon="2.085032">
                <ele>510.204000</ele>
                <time>2010-09-18T13:16:39.000+02:00</time>
            </trkpt>
            <trkpt lat="41.635306" lon="2.085106">
                <ele>510.289000</ele>
                <time>2010-09-18T13:16:43.000+02:00</time>
            </trkpt>
            <trkpt lat="41.635086" lon="2.085151">
                <ele>510.821000</ele>
                <time>2010-09-18T13:16:51.000+02:00</time>
            </trkpt>
            <trkpt lat="41.634955" lon="2.085175">
                <ele>510.287000</ele>
                <time>2010-09-18T13:16:55.000+02:00</time>
            </trkpt>
            <trkpt lat="41.634591" lon="2.085403">
                <ele>507.134000</ele>
                <time>2010-09-18T13:17:05.000+02:00</time>
            </trkpt>
            <trkpt lat="41.634540" lon="2.085448">
                <ele>507.461000</ele>
                <time>2010-09-18T13:17:08.000+02:00</time>
            </trkpt>
            <trkpt lat="41.634267" lon="2.085544">
                <ele>507.547000</ele>
                <time>2010-09-18T13:17:18.000+02:00</time>
            </trkpt>
            <trkpt lat="41.634188" lon="2.085531">
                <ele>507.675000</ele>
                <time>2010-09-18T13:17:21.000+02:00</time>
            </trkpt>
            <trkpt lat="41.633910" lon="2.085592">
                <ele>503.590000</ele>
                <time>2010-09-18T13:17:27.000+02:00</time>
            </trkpt>
            <trkpt lat="41.633473" lon="2.085712">
                <ele>501.054000</ele>
                <time>2010-09-18T13:17:36.000+02:00</time>
            </trkpt>
            <trkpt lat="41.633188" lon="2.085834">
                <ele>500.127000</ele>
                <time>2010-09-18T13:17:45.000+02:00</time>
            </trkpt>
            <trkpt lat="41.632936" lon="2.085873">
                <ele>501.173000</ele>
                <time>2010-09-18T13:17:54.000+02:00</time>
            </trkpt>
            <trkpt lat="41.632701" lon="2.085842">
                <ele>503.821000</ele>
                <time>2010-09-18T13:18:04.000+02:00</time>
            </trkpt>
            <trkpt lat="41.632651" lon="2.085837">
                <ele>504.287000</ele>
                <time>2010-09-18T13:18:07.000+02:00</time>
            </trkpt>
            <trkpt lat="41.632543" lon="2.085773">
                <ele>505.183000</ele>
                <time>2010-09-18T13:18:19.000+02:00</time>
            </trkpt>
            <trkpt lat="41.632541" lon="2.085759">
                <ele>505.123000</ele>
                <time>2010-09-18T13:18:28.000+02:00</time>
            </trkpt>
            <trkpt lat="41.632528" lon="2.085727">
                <ele>504.930000</ele>
                <time>2010-09-18T13:18:30.000+02:00</time>
            </trkpt>
            <trkpt lat="41.632338" lon="2.085567">
                <ele>504.648000</ele>
                <time>2010-09-18T13:18:42.000+02:00</time>
            </trkpt>
            <trkpt lat="41.632223" lon="2.085525">
                <ele>504.086000</ele>
                <time>2010-09-18T13:18:47.000+02:00</time>
            </trkpt>
            <trkpt lat="41.632171" lon="2.085455">
                <ele>504.242000</ele>
                <time>2010-09-18T13:18:50.000+02:00</time>
            </trkpt>
            <trkpt lat="41.632099" lon="2.085365">
                <ele>504.718000</ele>
                <time>2010-09-18T13:18:54.000+02:00</time>
            </trkpt>
            <trkpt lat="41.631932" lon="2.085271">
                <ele>506.532000</ele>
                <time>2010-09-18T13:19:02.000+02:00</time>
            </trkpt>
            <trkpt lat="41.631848" lon="2.085233">
                <ele>506.932000</ele>
                <time>2010-09-18T13:19:15.000+02:00</time>
            </trkpt>
            <trkpt lat="41.631782" lon="2.085209">
                <ele>506.011000</ele>
                <time>2010-09-18T13:19:32.000+02:00</time>
            </trkpt>
            <trkpt lat="41.631791" lon="2.085200">
                <ele>506.047000</ele>
                <time>2010-09-18T13:19:47.000+02:00</time>
            </trkpt>
            <trkpt lat="41.631792" lon="2.085201">
                <ele>506.007000</ele>
                <time>2010-09-18T13:20:06.000+02:00</time>
            </trkpt>
            <trkpt lat="41.631797" lon="2.085214">
                <ele>506.034000</ele>
                <time>2010-09-18T13:20:20.000+02:00</time>
            </trkpt>
            <trkpt lat="41.631783" lon="2.085216">
                <ele>505.847000</ele>
                <time>2010-09-18T13:20:21.000+02:00</time>
            </trkpt>
            <trkpt lat="41.631729" lon="2.085248">
                <ele>503.995000</ele>
                <time>2010-09-18T13:20:24.000+02:00</time>
            </trkpt>
            <trkpt lat="41.631686" lon="2.085266">
                <ele>502.793000</ele>
                <time>2010-09-18T13:20:26.000+02:00</time>
            </trkpt>
            <trkpt lat="41.631656" lon="2.085269">
                <ele>501.625000</ele>
                <time>2010-09-18T13:20:28.000+02:00</time>
            </trkpt>
            <trkpt lat="41.631559" lon="2.085326">
                <ele>498.220000</ele>
                <time>2010-09-18T13:20:33.000+02:00</time>
            </trkpt>
            <trkpt lat="41.631476" lon="2.085358">
                <ele>496.622000</ele>
                <time>2010-09-18T13:20:36.000+02:00</time>
            </trkpt>
            <trkpt lat="41.631416" lon="2.085388">
                <ele>495.928000</ele>
                <time>2010-09-18T13:20:38.000+02:00</time>
            </trkpt>
            <trkpt lat="41.631176" lon="2.085377">
                <ele>491.869000</ele>
                <time>2010-09-18T13:20:45.000+02:00</time>
            </trkpt>
            <trkpt lat="41.630964" lon="2.085404">
                <ele>488.699000</ele>
                <time>2010-09-18T13:20:51.000+02:00</time>
            </trkpt>
            <trkpt lat="41.630761" lon="2.085565">
                <ele>484.185000</ele>
                <time>2010-09-18T13:20:57.000+02:00</time>
            </trkpt>
            <trkpt lat="41.630692" lon="2.085623">
                <ele>481.447000</ele>
                <time>2010-09-18T13:20:59.000+02:00</time>
            </trkpt>
            <trkpt lat="41.630506" lon="2.085773">
                <ele>477.606000</ele>
                <time>2010-09-18T13:21:04.000+02:00</time>
            </trkpt>
            <trkpt lat="41.630457" lon="2.085810">
                <ele>477.395000</ele>
                <time>2010-09-18T13:21:05.000+02:00</time>
            </trkpt>
            <trkpt lat="41.630370" lon="2.085901">
                <ele>475.476000</ele>
                <time>2010-09-18T13:21:07.000+02:00</time>
            </trkpt>
            <trkpt lat="41.630166" lon="2.086242">
                <ele>470.914000</ele>
                <time>2010-09-18T13:21:14.000+02:00</time>
            </trkpt>
            <trkpt lat="41.630117" lon="2.086433">
                <ele>467.182000</ele>
                <time>2010-09-18T13:21:19.000+02:00</time>
            </trkpt>
            <trkpt lat="41.630234" lon="2.086339">
                <ele>463.585000</ele>
                <time>2010-09-18T13:21:26.000+02:00</time>
            </trkpt>
            <trkpt lat="41.630283" lon="2.086302">
                <ele>462.836000</ele>
                <time>2010-09-18T13:21:28.000+02:00</time>
            </trkpt>
            <trkpt lat="41.630390" lon="2.086280">
                <ele>461.462000</ele>
                <time>2010-09-18T13:21:31.000+02:00</time>
            </trkpt>
            <trkpt lat="41.630516" lon="2.086271">
                <ele>458.947000</ele>
                <time>2010-09-18T13:21:34.000+02:00</time>
            </trkpt>
            <trkpt lat="41.630479" lon="2.086413">
                <ele>455.812000</ele>
                <time>2010-09-18T13:21:40.000+02:00</time>
            </trkpt>
            <trkpt lat="41.630449" lon="2.086464">
                <ele>455.322000</ele>
                <time>2010-09-18T13:21:48.000+02:00</time>
            </trkpt>
            <trkpt lat="41.630512" lon="2.086456">
                <ele>454.592000</ele>
                <time>2010-09-18T13:22:06.000+02:00</time>
            </trkpt>
            <trkpt lat="41.630492" lon="2.086466">
                <ele>454.839000</ele>
                <time>2010-09-18T13:23:16.000+02:00</time>
            </trkpt>
            <trkpt lat="41.630466" lon="2.086493">
                <ele>454.206000</ele>
                <time>2010-09-18T13:23:18.000+02:00</time>
            </trkpt>
            <trkpt lat="41.630361" lon="2.086713">
                <ele>452.427000</ele>
                <time>2010-09-18T13:23:26.000+02:00</time>
            </trkpt>
            <trkpt lat="41.630353" lon="2.086778">
                <ele>450.935000</ele>
                <time>2010-09-18T13:23:29.000+02:00</time>
            </trkpt>
            <trkpt lat="41.630322" lon="2.086854">
                <ele>450.005000</ele>
                <time>2010-09-18T13:23:31.000+02:00</time>
            </trkpt>
            <trkpt lat="41.630269" lon="2.087008">
                <ele>448.367000</ele>
                <time>2010-09-18T13:23:35.000+02:00</time>
            </trkpt>
            <trkpt lat="41.630041" lon="2.087320">
                <ele>445.464000</ele>
                <time>2010-09-18T13:23:43.000+02:00</time>
            </trkpt>
            <trkpt lat="41.630015" lon="2.087345">
                <ele>444.506000</ele>
                <time>2010-09-18T13:23:44.000+02:00</time>
            </trkpt>
            <trkpt lat="41.629979" lon="2.087425">
                <ele>442.432000</ele>
                <time>2010-09-18T13:23:47.000+02:00</time>
            </trkpt>
            <trkpt lat="41.629868" lon="2.087548">
                <ele>438.893000</ele>
                <time>2010-09-18T13:23:52.000+02:00</time>
            </trkpt>
            <trkpt lat="41.629853" lon="2.087558">
                <ele>438.219000</ele>
                <time>2010-09-18T13:23:53.000+02:00</time>
            </trkpt>
            <trkpt lat="41.629619" lon="2.087674">
                <ele>436.431000</ele>
                <time>2010-09-18T13:24:01.000+02:00</time>
            </trkpt>
            <trkpt lat="41.629614" lon="2.087698">
                <ele>435.437000</ele>
                <time>2010-09-18T13:24:03.000+02:00</time>
            </trkpt>
            <trkpt lat="41.629580" lon="2.087749">
                <ele>435.406000</ele>
                <time>2010-09-18T13:24:22.000+02:00</time>
            </trkpt>
            <trkpt lat="41.629592" lon="2.087730">
                <ele>435.403000</ele>
                <time>2010-09-18T13:24:42.000+02:00</time>
            </trkpt>
            <trkpt lat="41.629596" lon="2.087716">
                <ele>435.241000</ele>
                <time>2010-09-18T13:24:44.000+02:00</time>
            </trkpt>
            <trkpt lat="41.629579" lon="2.087668">
                <ele>437.237000</ele>
                <time>2010-09-18T13:24:53.000+02:00</time>
            </trkpt>
            <trkpt lat="41.629541" lon="2.087691">
                <ele>436.854000</ele>
                <time>2010-09-18T13:24:55.000+02:00</time>
            </trkpt>
            <trkpt lat="41.629441" lon="2.087712">
                <ele>436.067000</ele>
                <time>2010-09-18T13:25:08.000+02:00</time>
            </trkpt>
            <trkpt lat="41.629411" lon="2.087764">
                <ele>435.929000</ele>
                <time>2010-09-18T13:25:21.000+02:00</time>
            </trkpt>
            <trkpt lat="41.629407" lon="2.087768">
                <ele>436.044000</ele>
                <time>2010-09-18T13:25:22.000+02:00</time>
            </trkpt>
            <trkpt lat="41.629330" lon="2.087821">
                <ele>434.757000</ele>
                <time>2010-09-18T13:25:29.000+02:00</time>
            </trkpt>
            <trkpt lat="41.629210" lon="2.087877">
                <ele>432.540000</ele>
                <time>2010-09-18T13:25:32.000+02:00</time>
            </trkpt>
            <trkpt lat="41.629011" lon="2.087789">
                <ele>432.666000</ele>
                <time>2010-09-18T13:25:38.000+02:00</time>
            </trkpt>
            <trkpt lat="41.628904" lon="2.087695">
                <ele>432.461000</ele>
                <time>2010-09-18T13:25:42.000+02:00</time>
            </trkpt>
            <trkpt lat="41.628772" lon="2.087549">
                <ele>431.839000</ele>
                <time>2010-09-18T13:25:46.000+02:00</time>
            </trkpt>
            <trkpt lat="41.628584" lon="2.087581">
                <ele>430.909000</ele>
                <time>2010-09-18T13:25:52.000+02:00</time>
            </trkpt>
            <trkpt lat="41.628438" lon="2.087662">
                <ele>430.138000</ele>
                <time>2010-09-18T13:25:56.000+02:00</time>
            </trkpt>
            <trkpt lat="41.628238" lon="2.087715">
                <ele>426.859000</ele>
                <time>2010-09-18T13:26:02.000+02:00</time>
            </trkpt>
            <trkpt lat="41.628187" lon="2.087721">
                <ele>425.902000</ele>
                <time>2010-09-18T13:26:03.000+02:00</time>
            </trkpt>
            <trkpt lat="41.627992" lon="2.087679">
                <ele>422.515000</ele>
                <time>2010-09-18T13:26:07.000+02:00</time>
            </trkpt>
            <trkpt lat="41.627840" lon="2.087636">
                <ele>419.447000</ele>
                <time>2010-09-18T13:26:11.000+02:00</time>
            </trkpt>
            <trkpt lat="41.627796" lon="2.087688">
                <ele>418.356000</ele>
                <time>2010-09-18T13:26:13.000+02:00</time>
            </trkpt>
            <trkpt lat="41.627348" lon="2.087941">
                <ele>416.525000</ele>
                <time>2010-09-18T13:26:24.000+02:00</time>
            </trkpt>
            <trkpt lat="41.627202" lon="2.087995">
                <ele>414.575000</ele>
                <time>2010-09-18T13:26:28.000+02:00</time>
            </trkpt>
            <trkpt lat="41.627031" lon="2.088022">
                <ele>413.198000</ele>
                <time>2010-09-18T13:26:32.000+02:00</time>
            </trkpt>
            <trkpt lat="41.626890" lon="2.087977">
                <ele>411.798000</ele>
                <time>2010-09-18T13:26:35.000+02:00</time>
            </trkpt>
            <trkpt lat="41.626586" lon="2.087835">
                <ele>408.520000</ele>
                <time>2010-09-18T13:26:46.000+02:00</time>
            </trkpt>
            <trkpt lat="41.626569" lon="2.087819">
                <ele>408.355000</ele>
                <time>2010-09-18T13:26:47.000+02:00</time>
            </trkpt>
            <trkpt lat="41.626482" lon="2.087803">
                <ele>407.284000</ele>
                <time>2010-09-18T13:26:50.000+02:00</time>
            </trkpt>
            <trkpt lat="41.626405" lon="2.087684">
                <ele>405.709000</ele>
                <time>2010-09-18T13:26:56.000+02:00</time>
            </trkpt>
            <trkpt lat="41.626346" lon="2.087425">
                <ele>403.534000</ele>
                <time>2010-09-18T13:27:04.000+02:00</time>
            </trkpt>
            <trkpt lat="41.626303" lon="2.087348">
                <ele>402.034000</ele>
                <time>2010-09-18T13:27:08.000+02:00</time>
            </trkpt>
            <trkpt lat="41.626273" lon="2.087131">
                <ele>400.742000</ele>
                <time>2010-09-18T13:27:14.000+02:00</time>
            </trkpt>
            <trkpt lat="41.626253" lon="2.086850">
                <ele>399.839000</ele>
                <time>2010-09-18T13:27:25.000+02:00</time>
            </trkpt>
            <trkpt lat="41.626208" lon="2.086857">
                <ele>397.085000</ele>
                <time>2010-09-18T13:27:30.000+02:00</time>
            </trkpt>
            <trkpt lat="41.626204" lon="2.086876">
                <ele>396.656000</ele>
                <time>2010-09-18T13:27:32.000+02:00</time>
            </trkpt>
            <trkpt lat="41.626158" lon="2.087015">
                <ele>394.255000</ele>
                <time>2010-09-18T13:27:41.000+02:00</time>
            </trkpt>
            <trkpt lat="41.626184" lon="2.087290">
                <ele>391.827000</ele>
                <time>2010-09-18T13:27:52.000+02:00</time>
            </trkpt>
            <trkpt lat="41.626167" lon="2.087639">
                <ele>389.713000</ele>
                <time>2010-09-18T13:28:01.000+02:00</time>
            </trkpt>
            <trkpt lat="41.626130" lon="2.087925">
                <ele>387.392000</ele>
                <time>2010-09-18T13:28:09.000+02:00</time>
            </trkpt>
            <trkpt lat="41.626145" lon="2.088016">
                <ele>385.559000</ele>
                <time>2010-09-18T13:28:12.000+02:00</time>
            </trkpt>
            <trkpt lat="41.626142" lon="2.088065">
                <ele>384.797000</ele>
                <time>2010-09-18T13:28:14.000+02:00</time>
            </trkpt>
            <trkpt lat="41.626131" lon="2.088083">
                <ele>384.252000</ele>
                <time>2010-09-18T13:28:18.000+02:00</time>
            </trkpt>
            <trkpt lat="41.626076" lon="2.088074">
                <ele>383.558000</ele>
                <time>2010-09-18T13:28:22.000+02:00</time>
            </trkpt>
            <trkpt lat="41.625988" lon="2.087992">
                <ele>382.643000</ele>
                <time>2010-09-18T13:28:34.000+02:00</time>
            </trkpt>
            <trkpt lat="41.626007" lon="2.087991">
                <ele>382.813000</ele>
                <time>2010-09-18T13:28:44.000+02:00</time>
            </trkpt>
            <trkpt lat="41.626037" lon="2.088012">
                <ele>383.017000</ele>
                <time>2010-09-18T13:28:52.000+02:00</time>
            </trkpt>
            <trkpt lat="41.625997" lon="2.087985">
                <ele>382.465000</ele>
                <time>2010-09-18T13:28:57.000+02:00</time>
            </trkpt>
            <trkpt lat="41.625985" lon="2.088023">
                <ele>378.542000</ele>
                <time>2010-09-18T13:29:00.000+02:00</time>
            </trkpt>
            <trkpt lat="41.625963" lon="2.088028">
                <ele>376.407000</ele>
                <time>2010-09-18T13:29:17.000+02:00</time>
            </trkpt>
            <trkpt lat="41.625957" lon="2.088126">
                <ele>376.156000</ele>
                <time>2010-09-18T13:29:21.000+02:00</time>
            </trkpt>
            <trkpt lat="41.625940" lon="2.088329">
                <ele>374.044000</ele>
                <time>2010-09-18T13:29:25.000+02:00</time>
            </trkpt>
            <trkpt lat="41.625944" lon="2.088376">
                <ele>374.007000</ele>
                <time>2010-09-18T13:29:36.000+02:00</time>
            </trkpt>
            <trkpt lat="41.625952" lon="2.088385">
                <ele>374.137000</ele>
                <time>2010-09-18T13:30:27.000+02:00</time>
            </trkpt>
            <trkpt lat="41.625885" lon="2.088336">
                <ele>373.361000</ele>
                <time>2010-09-18T13:30:34.000+02:00</time>
            </trkpt>
            <trkpt lat="41.625811" lon="2.088309">
                <ele>372.655000</ele>
                <time>2010-09-18T13:30:37.000+02:00</time>
            </trkpt>
            <trkpt lat="41.625701" lon="2.088157">
                <ele>371.508000</ele>
                <time>2010-09-18T13:30:43.000+02:00</time>
            </trkpt>
            <trkpt lat="41.625658" lon="2.087814">
                <ele>369.349000</ele>
                <time>2010-09-18T13:30:57.000+02:00</time>
            </trkpt>
            <trkpt lat="41.625648" lon="2.087694">
                <ele>369.718000</ele>
                <time>2010-09-18T13:31:05.000+02:00</time>
            </trkpt>
            <trkpt lat="41.625587" lon="2.087516">
                <ele>370.845000</ele>
                <time>2010-09-18T13:31:24.000+02:00</time>
            </trkpt>
            <trkpt lat="41.625560" lon="2.087496">
                <ele>371.303000</ele>
                <time>2010-09-18T13:31:26.000+02:00</time>
            </trkpt>
            <trkpt lat="41.625223" lon="2.087388">
                <ele>372.518000</ele>
                <time>2010-09-18T13:31:39.000+02:00</time>
            </trkpt>
            <trkpt lat="41.625021" lon="2.087230">
                <ele>372.035000</ele>
                <time>2010-09-18T13:31:46.000+02:00</time>
            </trkpt>
            <trkpt lat="41.624682" lon="2.087125">
                <ele>369.576000</ele>
                <time>2010-09-18T13:31:53.000+02:00</time>
            </trkpt>
            <trkpt lat="41.624502" lon="2.087127">
                <ele>370.694000</ele>
                <time>2010-09-18T13:31:58.000+02:00</time>
            </trkpt>
            <trkpt lat="41.624097" lon="2.087013">
                <ele>371.624000</ele>
                <time>2010-09-18T13:32:10.000+02:00</time>
            </trkpt>
            <trkpt lat="41.623957" lon="2.086935">
                <ele>370.294000</ele>
                <time>2010-09-18T13:32:15.000+02:00</time>
            </trkpt>
            <trkpt lat="41.623895" lon="2.086909">
                <ele>370.297000</ele>
                <time>2010-09-18T13:32:17.000+02:00</time>
            </trkpt>
            <trkpt lat="41.623774" lon="2.086731">
                <ele>370.010000</ele>
                <time>2010-09-18T13:32:22.000+02:00</time>
            </trkpt>
            <trkpt lat="41.623697" lon="2.086608">
                <ele>369.842000</ele>
                <time>2010-09-18T13:32:25.000+02:00</time>
            </trkpt>
            <trkpt lat="41.623670" lon="2.086590">
                <ele>369.937000</ele>
                <time>2010-09-18T13:32:27.000+02:00</time>
            </trkpt>
            <trkpt lat="41.623569" lon="2.086297">
                <ele>368.736000</ele>
                <time>2010-09-18T13:32:34.000+02:00</time>
            </trkpt>
            <trkpt lat="41.623556" lon="2.086003">
                <ele>367.990000</ele>
                <time>2010-09-18T13:32:41.000+02:00</time>
            </trkpt>
            <trkpt lat="41.623602" lon="2.085827">
                <ele>368.007000</ele>
                <time>2010-09-18T13:32:47.000+02:00</time>
            </trkpt>
            <trkpt lat="41.623643" lon="2.085499">
                <ele>365.797000</ele>
                <time>2010-09-18T13:32:53.000+02:00</time>
            </trkpt>
            <trkpt lat="41.623665" lon="2.085270">
                <ele>364.912000</ele>
                <time>2010-09-18T13:32:57.000+02:00</time>
            </trkpt>
            <trkpt lat="41.623618" lon="2.085170">
                <ele>363.339000</ele>
                <time>2010-09-18T13:33:08.000+02:00</time>
            </trkpt>
            <trkpt lat="41.623654" lon="2.085195">
                <ele>365.628000</ele>
                <time>2010-09-18T13:33:20.000+02:00</time>
            </trkpt>
            <trkpt lat="41.623637" lon="2.085283">
                <ele>365.982000</ele>
                <time>2010-09-18T13:33:29.000+02:00</time>
            </trkpt>
            <trkpt lat="41.623604" lon="2.085543">
                <ele>367.804000</ele>
                <time>2010-09-18T13:33:41.000+02:00</time>
            </trkpt>
            <trkpt lat="41.623597" lon="2.085612">
                <ele>368.132000</ele>
                <time>2010-09-18T13:33:43.000+02:00</time>
            </trkpt>
            <trkpt lat="41.623467" lon="2.085940">
                <ele>367.348000</ele>
                <time>2010-09-18T13:33:52.000+02:00</time>
            </trkpt>
            <trkpt lat="41.623395" lon="2.086085">
                <ele>366.842000</ele>
                <time>2010-09-18T13:34:01.000+02:00</time>
            </trkpt>
            <trkpt lat="41.623308" lon="2.086226">
                <ele>363.688000</ele>
                <time>2010-09-18T13:34:07.000+02:00</time>
            </trkpt>
            <trkpt lat="41.623277" lon="2.086252">
                <ele>362.732000</ele>
                <time>2010-09-18T13:34:09.000+02:00</time>
            </trkpt>
            <trkpt lat="41.623251" lon="2.086237">
                <ele>361.996000</ele>
                <time>2010-09-18T13:34:11.000+02:00</time>
            </trkpt>
            <trkpt lat="41.623243" lon="2.086231">
                <ele>361.875000</ele>
                <time>2010-09-18T13:34:12.000+02:00</time>
            </trkpt>
            <trkpt lat="41.623140" lon="2.086187">
                <ele>358.328000</ele>
                <time>2010-09-18T13:34:19.000+02:00</time>
            </trkpt>
            <trkpt lat="41.623123" lon="2.086162">
                <ele>357.861000</ele>
                <time>2010-09-18T13:34:20.000+02:00</time>
            </trkpt>
            <trkpt lat="41.623023" lon="2.086160">
                <ele>354.521000</ele>
                <time>2010-09-18T13:34:25.000+02:00</time>
            </trkpt>
            <trkpt lat="41.622933" lon="2.086126">
                <ele>352.080000</ele>
                <time>2010-09-18T13:34:28.000+02:00</time>
            </trkpt>
            <trkpt lat="41.622857" lon="2.086069">
                <ele>350.563000</ele>
                <time>2010-09-18T13:34:30.000+02:00</time>
            </trkpt>
            <trkpt lat="41.622721" lon="2.085891">
                <ele>348.955000</ele>
                <time>2010-09-18T13:34:37.000+02:00</time>
            </trkpt>
            <trkpt lat="41.622737" lon="2.085905">
                <ele>349.084000</ele>
                <time>2010-09-18T13:34:57.000+02:00</time>
            </trkpt>
            <trkpt lat="41.622743" lon="2.085907">
                <ele>349.084000</ele>
                <time>2010-09-18T13:35:36.000+02:00</time>
            </trkpt>
            <trkpt lat="41.622743" lon="2.085910">
                <ele>350.667000</ele>
                <time>2010-09-18T13:36:23.000+02:00</time>
            </trkpt>
            <trkpt lat="41.622769" lon="2.086056">
                <ele>350.667000</ele>
                <time>2010-09-18T13:36:28.000+02:00</time>
            </trkpt>
            <trkpt lat="41.622892" lon="2.086245">
                <ele>348.575000</ele>
                <time>2010-09-18T13:36:33.000+02:00</time>
            </trkpt>
            <trkpt lat="41.622943" lon="2.086324">
                <ele>348.488000</ele>
                <time>2010-09-18T13:36:35.000+02:00</time>
            </trkpt>
            <trkpt lat="41.623053" lon="2.086573">
                <ele>348.530000</ele>
                <time>2010-09-18T13:36:40.000+02:00</time>
            </trkpt>
            <trkpt lat="41.623105" lon="2.086883">
                <ele>346.454000</ele>
                <time>2010-09-18T13:36:45.000+02:00</time>
            </trkpt>
            <trkpt lat="41.623126" lon="2.087075">
                <ele>345.576000</ele>
                <time>2010-09-18T13:36:48.000+02:00</time>
            </trkpt>
            <trkpt lat="41.623178" lon="2.087210">
                <ele>345.483000</ele>
                <time>2010-09-18T13:36:50.000+02:00</time>
            </trkpt>
            <trkpt lat="41.623326" lon="2.087406">
                <ele>346.517000</ele>
                <time>2010-09-18T13:36:54.000+02:00</time>
            </trkpt>
            <trkpt lat="41.623512" lon="2.087515">
                <ele>346.606000</ele>
                <time>2010-09-18T13:37:04.000+02:00</time>
            </trkpt>
            <trkpt lat="41.623524" lon="2.087522">
                <ele>346.575000</ele>
                <time>2010-09-18T13:37:05.000+02:00</time>
            </trkpt>
            <trkpt lat="41.623549" lon="2.087526">
                <ele>346.629000</ele>
                <time>2010-09-18T13:37:07.000+02:00</time>
            </trkpt>
            <trkpt lat="41.623696" lon="2.087601">
                <ele>345.766000</ele>
                <time>2010-09-18T13:37:13.000+02:00</time>
            </trkpt>
            <trkpt lat="41.623687" lon="2.087902">
                <ele>344.725000</ele>
                <time>2010-09-18T13:37:20.000+02:00</time>
            </trkpt>
            <trkpt lat="41.623651" lon="2.087914">
                <ele>344.335000</ele>
                <time>2010-09-18T13:37:21.000+02:00</time>
            </trkpt>
            <trkpt lat="41.623521" lon="2.087948">
                <ele>344.378000</ele>
                <time>2010-09-18T13:37:24.000+02:00</time>
            </trkpt>
            <trkpt lat="41.623401" lon="2.088004">
                <ele>345.468000</ele>
                <time>2010-09-18T13:37:27.000+02:00</time>
            </trkpt>
            <trkpt lat="41.623241" lon="2.088035">
                <ele>346.236000</ele>
                <time>2010-09-18T13:37:31.000+02:00</time>
            </trkpt>
            <trkpt lat="41.623114" lon="2.088060">
                <ele>347.418000</ele>
                <time>2010-09-18T13:37:34.000+02:00</time>
            </trkpt>
            <trkpt lat="41.622818" lon="2.088059">
                <ele>349.664000</ele>
                <time>2010-09-18T13:37:43.000+02:00</time>
            </trkpt>
            <trkpt lat="41.622552" lon="2.088279">
                <ele>351.941000</ele>
                <time>2010-09-18T13:37:56.000+02:00</time>
            </trkpt>
            <trkpt lat="41.622087" lon="2.088711">
                <ele>351.129000</ele>
                <time>2010-09-18T13:38:13.000+02:00</time>
            </trkpt>
            <trkpt lat="41.621580" lon="2.089191">
                <ele>352.587000</ele>
                <time>2010-09-18T13:38:31.000+02:00</time>
            </trkpt>
            <trkpt lat="41.621146" lon="2.089934">
                <ele>351.818000</ele>
                <time>2010-09-18T13:38:43.000+02:00</time>
            </trkpt>
            <trkpt lat="41.621089" lon="2.089838">
                <ele>351.775000</ele>
                <time>2010-09-18T13:38:48.000+02:00</time>
            </trkpt>
            <trkpt lat="41.620836" lon="2.090477">
                <ele>351.439000</ele>
                <time>2010-09-18T13:38:50.000+02:00</time>
            </trkpt>
            <trkpt lat="41.620825" lon="2.089935">
                <ele>352.158000</ele>
                <time>2010-09-18T13:38:58.000+02:00</time>
            </trkpt>
            <trkpt lat="41.620760" lon="2.089891">
                <ele>352.188000</ele>
                <time>2010-09-18T13:39:00.000+02:00</time>
            </trkpt>
            <trkpt lat="41.620389" lon="2.089438">
                <ele>354.687000</ele>
                <time>2010-09-18T13:39:15.000+02:00</time>
            </trkpt>
            <trkpt lat="41.620374" lon="2.089230">
                <ele>354.343000</ele>
                <time>2010-09-18T13:39:21.000+02:00</time>
            </trkpt>
            <trkpt lat="41.620374" lon="2.088728">
                <ele>350.457000</ele>
                <time>2010-09-18T13:39:28.000+02:00</time>
            </trkpt>
            <trkpt lat="41.620374" lon="2.088335">
                <ele>347.010000</ele>
                <time>2010-09-18T13:39:32.000+02:00</time>
            </trkpt>
            <trkpt lat="41.620364" lon="2.088221">
                <ele>346.411000</ele>
                <time>2010-09-18T13:39:33.000+02:00</time>
            </trkpt>
            <trkpt lat="41.620089" lon="2.087792">
                <ele>342.995000</ele>
                <time>2010-09-18T13:39:39.000+02:00</time>
            </trkpt>
            <trkpt lat="41.620019" lon="2.087750">
                <ele>342.629000</ele>
                <time>2010-09-18T13:39:40.000+02:00</time>
            </trkpt>
            <trkpt lat="41.619444" lon="2.087409">
                <ele>339.136000</ele>
                <time>2010-09-18T13:39:48.000+02:00</time>
            </trkpt>
            <trkpt lat="41.619215" lon="2.087274">
                <ele>339.790000</ele>
                <time>2010-09-18T13:39:53.000+02:00</time>
            </trkpt>
            <trkpt lat="41.618903" lon="2.087425">
                <ele>339.758000</ele>
                <time>2010-09-18T13:39:57.000+02:00</time>
            </trkpt>
            <trkpt lat="41.618699" lon="2.087408">
                <ele>338.400000</ele>
                <time>2010-09-18T13:40:00.000+02:00</time>
            </trkpt>
            <trkpt lat="41.618389" lon="2.087205">
                <ele>334.638000</ele>
                <time>2010-09-18T13:40:05.000+02:00</time>
            </trkpt>
            <trkpt lat="41.618211" lon="2.087007">
                <ele>332.091000</ele>
                <time>2010-09-18T13:40:08.000+02:00</time>
            </trkpt>
            <trkpt lat="41.617764" lon="2.086876">
                <ele>328.163000</ele>
                <time>2010-09-18T13:40:13.000+02:00</time>
            </trkpt>
            <trkpt lat="41.617671" lon="2.086863">
                <ele>327.957000</ele>
                <time>2010-09-18T13:40:14.000+02:00</time>
            </trkpt>
            <trkpt lat="41.617330" lon="2.086802">
                <ele>328.383000</ele>
                <time>2010-09-18T13:40:18.000+02:00</time>
            </trkpt>
            <trkpt lat="41.617012" lon="2.086689">
                <ele>327.409000</ele>
                <time>2010-09-18T13:40:22.000+02:00</time>
            </trkpt>
            <trkpt lat="41.616701" lon="2.086471">
                <ele>326.196000</ele>
                <time>2010-09-18T13:40:26.000+02:00</time>
            </trkpt>
            <trkpt lat="41.616452" lon="2.086194">
                <ele>325.806000</ele>
                <time>2010-09-18T13:40:30.000+02:00</time>
            </trkpt>
            <trkpt lat="41.616050" lon="2.085729">
                <ele>323.483000</ele>
                <time>2010-09-18T13:40:37.000+02:00</time>
            </trkpt>
            <trkpt lat="41.615742" lon="2.085339">
                <ele>319.437000</ele>
                <time>2010-09-18T13:40:43.000+02:00</time>
            </trkpt>
            <trkpt lat="41.615556" lon="2.085111">
                <ele>316.778000</ele>
                <time>2010-09-18T13:40:47.000+02:00</time>
            </trkpt>
            <trkpt lat="41.615397" lon="2.084915">
                <ele>313.287000</ele>
                <time>2010-09-18T13:40:52.000+02:00</time>
            </trkpt>
            <trkpt lat="41.615396" lon="2.084913">
                <ele>309.906000</ele>
                <time>2010-09-18T13:40:59.000+02:00</time>
            </trkpt>
            <trkpt lat="41.615037" lon="2.084187">
                <ele>308.664000</ele>
                <time>2010-09-18T13:41:03.000+02:00</time>
            </trkpt>
            <trkpt lat="41.614717" lon="2.083815">
                <ele>307.722000</ele>
                <time>2010-09-18T13:41:09.000+02:00</time>
            </trkpt>
            <trkpt lat="41.614408" lon="2.083066">
                <ele>307.511000</ele>
                <time>2010-09-18T13:41:22.000+02:00</time>
            </trkpt>
            <trkpt lat="41.614067" lon="2.082902">
                <ele>307.518000</ele>
                <time>2010-09-18T13:41:32.000+02:00</time>
            </trkpt>
            <trkpt lat="41.613862" lon="2.082550">
                <ele>306.755000</ele>
                <time>2010-09-18T13:41:46.000+02:00</time>
            </trkpt>
            <trkpt lat="41.613636" lon="2.082231">
                <ele>307.058000</ele>
                <time>2010-09-18T13:41:55.000+02:00</time>
            </trkpt>
            <trkpt lat="41.613426" lon="2.081935">
                <ele>306.441000</ele>
                <time>2010-09-18T13:42:02.000+02:00</time>
            </trkpt>
            <trkpt lat="41.613019" lon="2.081349">
                <ele>305.279000</ele>
                <time>2010-09-18T13:42:16.000+02:00</time>
            </trkpt>
            <trkpt lat="41.612860" lon="2.081234">
                <ele>313.000000</ele>
                <time>1989-12-31T00:59:59.000+01:00</time>
            </trkpt>
            <trkpt lat="41.610008" lon="2.082218">
                <ele>308.200000</ele>
                <time>1989-12-31T00:59:59.000+01:00</time>
            </trkpt>
            <trkpt lat="41.609169" lon="2.082659">
                <ele>305.800000</ele>
                <time>1989-12-31T00:59:59.000+01:00</time>
            </trkpt>
            <trkpt lat="41.608602" lon="2.082730">
                <ele>304.900000</ele>
                <time>1989-12-31T00:59:59.000+01:00</time>
            </trkpt>
            <trkpt lat="41.608150" lon="2.083081">
                <ele>303.400000</ele>
                <time>1989-12-31T00:59:59.000+01:00</time>
            </trkpt>
            <trkpt lat="41.606710" lon="2.083567">
                <ele>301.500000</ele>
                <time>1989-12-31T00:59:59.000+01:00</time>
            </trkpt>
            <trkpt lat="41.605740" lon="2.083680">
                <ele>298.600000</ele>
                <time>1989-12-31T00:59:59.000+01:00</time>
            </trkpt>
            <trkpt lat="41.604256" lon="2.083640">
                <ele>295.700000</ele>
                <time>1989-12-31T00:59:59.000+01:00</time>
            </trkpt>
            <trkpt lat="41.603161" lon="2.083108">
                <ele>290.500000</ele>
                <time>1989-12-31T00:59:59.000+01:00</time>
            </trkpt>
            <trkpt lat="41.602950" lon="2.082522">
                <ele>287.100000</ele>
                <time>1989-12-31T00:59:59.000+01:00</time>
            </trkpt>
            <trkpt lat="41.603081" lon="2.081718">
                <ele>280.800000</ele>
                <time>1989-12-31T00:59:59.000+01:00</time>
            </trkpt>
            <trkpt lat="41.602727" lon="2.081462">
                <ele>277.500000</ele>
                <time>1989-12-31T00:59:59.000+01:00</time>
            </trkpt>
            <trkpt lat="41.601476" lon="2.081207">
                <ele>266.900000</ele>
                <time>1989-12-31T00:59:59.000+01:00</time>
            </trkpt>
            <trkpt lat="41.600308" lon="2.080508">
                <ele>255.400000</ele>
                <time>1989-12-31T00:59:59.000+01:00</time>
            </trkpt>
            <trkpt lat="41.598195" lon="2.080478">
                <ele>232.800000</ele>
                <time>1989-12-31T00:59:59.000+01:00</time>
            </trkpt>
            <trkpt lat="41.597273" lon="2.079886">
                <ele>224.600000</ele>
                <time>1989-12-31T00:59:59.000+01:00</time>
            </trkpt>
            <trkpt lat="41.596640" lon="2.079780">
                <ele>221.700000</ele>
                <time>1989-12-31T00:59:59.000+01:00</time>
            </trkpt>
            <trkpt lat="41.595846" lon="2.080091">
                <ele>218.800000</ele>
                <time>1989-12-31T00:59:59.000+01:00</time>
            </trkpt>
            <trkpt lat="41.595074" lon="2.080637">
                <ele>216.000000</ele>
                <time>1989-12-31T00:59:59.000+01:00</time>
            </trkpt>
            <trkpt lat="41.594517" lon="2.081761">
                <ele>211.600000</ele>
                <time>1989-12-31T00:59:59.000+01:00</time>
            </trkpt>
            <trkpt lat="41.594526" lon="2.082276">
                <ele>215.500000</ele>
                <time>1989-12-31T00:59:59.000+01:00</time>
            </trkpt>
            <trkpt lat="41.593803" lon="2.082536">
                <ele>216.900000</ele>
                <time>1989-12-31T00:59:59.000+01:00</time>
            </trkpt>
            <trkpt lat="41.591812" lon="2.082590">
                <ele>214.500000</ele>
                <time>1989-12-31T00:59:59.000+01:00</time>
            </trkpt>
            <trkpt lat="41.590339" lon="2.082066">
                <ele>213.600000</ele>
                <time>1989-12-31T00:59:59.000+01:00</time>
            </trkpt>
            <trkpt lat="41.589813" lon="2.082161">
                <ele>212.100000</ele>
                <time>1989-12-31T00:59:59.000+01:00</time>
            </trkpt>
            <trkpt lat="41.587899" lon="2.081905">
                <ele>209.200000</ele>
                <time>1989-12-31T00:59:59.000+01:00</time>
            </trkpt>
            <trkpt lat="41.584940" lon="2.078352">
                <ele>205.900000</ele>
                <time>1989-12-31T00:59:59.000+01:00</time>
            </trkpt>
            <trkpt lat="41.585051" lon="2.076468">
                <ele>210.200000</ele>
                <time>1989-12-31T00:59:59.000+01:00</time>
            </trkpt>
            <trkpt lat="41.585395" lon="2.074433">
                <ele>214.000000</ele>
                <time>1989-12-31T00:59:59.000+01:00</time>
            </trkpt>
            <trkpt lat="41.585380" lon="2.073578">
                <ele>215.000000</ele>
                <time>1989-12-31T00:59:59.000+01:00</time>
            </trkpt>
            <trkpt lat="41.585194" lon="2.073283">
                <ele>216.000000</ele>
                <time>1989-12-31T00:59:59.000+01:00</time>
            </trkpt>
            <trkpt lat="41.585258" lon="2.072677">
                <ele>217.400000</ele>
                <time>1989-12-31T00:59:59.000+01:00</time>
            </trkpt>
            <trkpt lat="41.585961" lon="2.071143">
                <ele>221.700000</ele>
                <time>1989-12-31T00:59:59.000+01:00</time>
            </trkpt>
            <trkpt lat="41.586583" lon="2.070787">
                <ele>223.600000</ele>
                <time>1989-12-31T00:59:59.000+01:00</time>
            </trkpt>
            <trkpt lat="41.587042" lon="2.069159">
                <ele>229.400000</ele>
                <time>1989-12-31T00:59:59.000+01:00</time>
            </trkpt>
            <trkpt lat="41.586585" lon="2.068207">
                <ele>233.300000</ele>
                <time>1989-12-31T00:59:59.000+01:00</time>
            </trkpt>
            <trkpt lat="41.585960" lon="2.067960">
                <ele>238.100000</ele>
                <time>1989-12-31T00:59:59.000+01:00</time>
            </trkpt>
            <trkpt lat="41.585632" lon="2.067568">
                <ele>243.400000</ele>
                <time>1989-12-31T00:59:59.000+01:00</time>
            </trkpt>
            <trkpt lat="41.586455" lon="2.066441">
                <ele>255.400000</ele>
                <time>1989-12-31T00:59:59.000+01:00</time>
            </trkpt>
            <trkpt lat="41.586371" lon="2.066165">
                <ele>259.200000</ele>
                <time>1989-12-31T00:59:59.000+01:00</time>
            </trkpt>
            <trkpt lat="41.585863" lon="2.066629">
                <ele>268.300000</ele>
                <time>1989-12-31T00:59:59.000+01:00</time>
            </trkpt>
            <trkpt lat="41.585475" lon="2.066523">
                <ele>274.100000</ele>
                <time>1989-12-31T00:59:59.000+01:00</time>
            </trkpt>
            <trkpt lat="41.585216" lon="2.066793">
                <ele>275.100000</ele>
                <time>1989-12-31T00:59:59.000+01:00</time>
            </trkpt>
            <trkpt lat="41.584517" lon="2.065895">
                <ele>291.400000</ele>
                <time>1989-12-31T00:59:59.000+01:00</time>
            </trkpt>
            <trkpt lat="41.584536" lon="2.066554">
                <ele>302.500000</ele>
                <time>1989-12-31T00:59:59.000+01:00</time>
            </trkpt>
            <trkpt lat="41.584300" lon="2.067059">
                <ele>311.100000</ele>
                <time>1989-12-31T00:59:59.000+01:00</time>
            </trkpt>
            <trkpt lat="41.584107" lon="2.066992">
                <ele>313.500000</ele>
                <time>1989-12-31T00:59:59.000+01:00</time>
            </trkpt>
            <trkpt lat="41.583871" lon="2.065766">
                <ele>316.900000</ele>
                <time>1989-12-31T00:59:59.000+01:00</time>
            </trkpt>
            <trkpt lat="41.583915" lon="2.065241">
                <ele>317.400000</ele>
                <time>1989-12-31T00:59:59.000+01:00</time>
            </trkpt>
            <trkpt lat="41.584346" lon="2.064292">
                <ele>320.700000</ele>
                <time>1989-12-31T00:59:59.000+01:00</time>
            </trkpt>
            <trkpt lat="41.584537" lon="2.062627">
                <ele>325.100000</ele>
                <time>1989-12-31T00:59:59.000+01:00</time>
            </trkpt>
            <trkpt lat="41.584726" lon="2.062452">
                <ele>327.000000</ele>
                <time>1989-12-31T00:59:59.000+01:00</time>
            </trkpt>
            <trkpt lat="41.585096" lon="2.062622">
                <ele>327.900000</ele>
                <time>1989-12-31T00:59:59.000+01:00</time>
            </trkpt>
            <trkpt lat="41.585367" lon="2.062437">
                <ele>327.500000</ele>
                <time>1989-12-31T00:59:59.000+01:00</time>
            </trkpt>
            <trkpt lat="41.586272" lon="2.060059">
                <ele>334.700000</ele>
                <time>1989-12-31T00:59:59.000+01:00</time>
            </trkpt>
            <trkpt lat="41.586177" lon="2.059793">
                <ele>333.700000</ele>
                <time>1989-12-31T00:59:59.000+01:00</time>
            </trkpt>
            <trkpt lat="41.585476" lon="2.059281">
                <ele>334.700000</ele>
                <time>1989-12-31T00:59:59.000+01:00</time>
            </trkpt>
            <trkpt lat="41.585356" lon="2.058777">
                <ele>336.100000</ele>
                <time>1989-12-31T00:59:59.000+01:00</time>
            </trkpt>
            <trkpt lat="41.585622" lon="2.057329">
                <ele>338.000000</ele>
                <time>1989-12-31T00:59:59.000+01:00</time>
            </trkpt>
            <trkpt lat="41.585189" lon="2.056572">
                <ele>341.400000</ele>
                <time>1989-12-31T00:59:59.000+01:00</time>
            </trkpt>
            <trkpt lat="41.585027" lon="2.056536">
                <ele>341.400000</ele>
                <time>1989-12-31T00:59:59.000+01:00</time>
            </trkpt>
            <trkpt lat="41.585019" lon="2.055112">
                <ele>341.900000</ele>
                <time>1989-12-31T00:59:59.000+01:00</time>
            </trkpt>
            <trkpt lat="41.585552" lon="2.052689">
                <ele>346.200000</ele>
                <time>1989-12-31T00:59:59.000+01:00</time>
            </trkpt>
            <trkpt lat="41.586736" lon="2.050301">
                <ele>354.900000</ele>
                <time>1989-12-31T00:59:59.000+01:00</time>
            </trkpt>
            <trkpt lat="41.586535" lon="2.049636">
                <ele>353.400000</ele>
                <time>1989-12-31T00:59:59.000+01:00</time>
            </trkpt>
            <trkpt lat="41.585786" lon="2.049404">
                <ele>357.300000</ele>
                <time>1989-12-31T00:59:59.000+01:00</time>
            </trkpt>
            <trkpt lat="41.585336" lon="2.048787">
                <ele>360.200000</ele>
                <time>1989-12-31T00:59:59.000+01:00</time>
            </trkpt>
            <trkpt lat="41.584118" lon="2.044762">
                <ele>346.700000</ele>
                <time>1989-12-31T00:59:59.000+01:00</time>
            </trkpt>
            <trkpt lat="41.583779" lon="2.044561">
                <ele>341.400000</ele>
                <time>1989-12-31T00:59:59.000+01:00</time>
            </trkpt>
            <trkpt lat="41.583462" lon="2.044563">
                <ele>342.400000</ele>
                <time>1989-12-31T00:59:59.000+01:00</time>
            </trkpt>
            <trkpt lat="41.583007" lon="2.044122">
                <ele>345.700000</ele>
                <time>1989-12-31T00:59:59.000+01:00</time>
            </trkpt>
            <trkpt lat="41.583174" lon="2.042454">
                <ele>354.400000</ele>
                <time>1989-12-31T00:59:59.000+01:00</time>
            </trkpt>
            <trkpt lat="41.582816" lon="2.040549">
                <ele>354.900000</ele>
                <time>1989-12-31T00:59:59.000+01:00</time>
            </trkpt>
            <trkpt lat="41.582879" lon="2.040009">
                <ele>355.300000</ele>
                <time>1989-12-31T00:59:59.000+01:00</time>
            </trkpt>
            <trkpt lat="41.583100" lon="2.039491">
                <ele>354.400000</ele>
                <time>1989-12-31T00:59:59.000+01:00</time>
            </trkpt>
            <trkpt lat="41.583545" lon="2.039054">
                <ele>353.900000</ele>
                <time>1989-12-31T00:59:59.000+01:00</time>
            </trkpt>
            <trkpt lat="41.585084" lon="2.039006">
                <ele>351.000000</ele>
                <time>1989-12-31T00:59:59.000+01:00</time>
            </trkpt>
            <trkpt lat="41.585140" lon="2.038737">
                <ele>348.600000</ele>
                <time>1989-12-31T00:59:59.000+01:00</time>
            </trkpt>
            <trkpt lat="41.584508" lon="2.036898">
                <ele>347.700000</ele>
                <time>1989-12-31T00:59:59.000+01:00</time>
            </trkpt>
            <trkpt lat="41.584194" lon="2.036546">
                <ele>348.100000</ele>
                <time>1989-12-31T00:59:59.000+01:00</time>
            </trkpt>
            <trkpt lat="41.582115" lon="2.036934">
                <ele>347.200000</ele>
                <time>1989-12-31T00:59:59.000+01:00</time>
            </trkpt>
            <trkpt lat="41.581853" lon="2.036817">
                <ele>347.700000</ele>
                <time>1989-12-31T00:59:59.000+01:00</time>
            </trkpt>
            <trkpt lat="41.581856" lon="2.036530">
                <ele>348.600000</ele>
                <time>1989-12-31T00:59:59.000+01:00</time>
            </trkpt>
            <trkpt lat="41.583017" lon="2.033925">
                <ele>353.900000</ele>
                <time>1989-12-31T00:59:59.000+01:00</time>
            </trkpt>
            <trkpt lat="41.582901" lon="2.033620">
                <ele>353.900000</ele>
                <time>1989-12-31T00:59:59.000+01:00</time>
            </trkpt>
            <trkpt lat="41.580385" lon="2.031480">
                <ele>348.100000</ele>
                <time>1989-12-31T00:59:59.000+01:00</time>
            </trkpt>
            <trkpt lat="41.580753" lon="2.030246">
                <ele>349.600000</ele>
                <time>1989-12-31T00:59:59.000+01:00</time>
            </trkpt>
            <trkpt lat="41.580480" lon="2.028495">
                <ele>352.900000</ele>
                <time>1989-12-31T00:59:59.000+01:00</time>
            </trkpt>
            <trkpt lat="41.580593" lon="2.027814">
                <ele>354.900000</ele>
                <time>1989-12-31T00:59:59.000+01:00</time>
            </trkpt>
        </trkseg>
    </trk>
</gpx>